<?xml version="1.0" encoding="UTF-8" standalone="no" ?>
<gpx xmlns="http://www.topografix.com/GPX/1/1" xmlns:xsi="http://www.w3.org/2001/XMLSchema-instance" xsi:schemaLocation="http://www.topografix.com/GPX/1/1 http://www.topografix.com/GPX/1/1/gpx.xsd" version="1.1" creator="VisuGPX - https://www.visugpx.com">
  <metadata>
    <name>Les Portes-en-Ré</name>
  </metadata>
  <trk>
    <name><![CDATA[Les Portes-en-Ré_1]]></name>
    <trkseg>
      <trkpt lat="46.24746" lon="-1.4999">
        <ele>1.2</ele>
        <time>2025-07-04T08:34:16Z</time>
      </trkpt>
      <trkpt lat="46.24751" lon="-1.49988">
        <ele>0.80000000000001</ele>
        <time>2025-07-04T08:34:28Z</time>
      </trkpt>
      <trkpt lat="46.24761" lon="-1.49988">
        <ele>0.80000000000001</ele>
        <time>2025-07-04T08:34:37Z</time>
      </trkpt>
      <trkpt lat="46.24764" lon="-1.49988">
        <ele>1</ele>
        <time>2025-07-04T08:34:41Z</time>
      </trkpt>
      <trkpt lat="46.24766" lon="-1.49988">
        <ele>1</ele>
        <time>2025-07-04T08:34:43Z</time>
      </trkpt>
      <trkpt lat="46.24768" lon="-1.4999">
        <ele>0.80000000000001</ele>
        <time>2025-07-04T08:34:48Z</time>
      </trkpt>
      <trkpt lat="46.24772" lon="-1.49995">
        <ele>1.2</ele>
        <time>2025-07-04T08:34:55Z</time>
      </trkpt>
      <trkpt lat="46.24774" lon="-1.49995">
        <ele>1</ele>
        <time>2025-07-04T08:34:59Z</time>
      </trkpt>
      <trkpt lat="46.24774" lon="-1.49993">
        <ele>1</ele>
        <time>2025-07-04T08:35:01Z</time>
      </trkpt>
      <trkpt lat="46.24775" lon="-1.49992">
        <ele>1</ele>
        <time>2025-07-04T08:35:02Z</time>
      </trkpt>
      <trkpt lat="46.24782" lon="-1.49988">
        <ele>0.80000000000001</ele>
        <time>2025-07-04T08:35:09Z</time>
      </trkpt>
      <trkpt lat="46.24789" lon="-1.49984">
        <ele>0.60000000000002</ele>
        <time>2025-07-04T08:35:14Z</time>
      </trkpt>
      <trkpt lat="46.24791" lon="-1.49982">
        <ele>0.39999999999998</ele>
        <time>2025-07-04T08:35:16Z</time>
      </trkpt>
      <trkpt lat="46.24798" lon="-1.49978">
        <ele>0.60000000000002</ele>
        <time>2025-07-04T08:35:22Z</time>
      </trkpt>
      <trkpt lat="46.24804" lon="-1.49976">
        <ele>0.60000000000002</ele>
        <time>2025-07-04T08:35:26Z</time>
      </trkpt>
      <trkpt lat="46.24809" lon="-1.49975">
        <ele>0.60000000000002</ele>
        <time>2025-07-04T08:35:30Z</time>
      </trkpt>
      <trkpt lat="46.24813" lon="-1.49976">
        <ele>-0.19999999999999</ele>
        <time>2025-07-04T08:35:33Z</time>
      </trkpt>
      <trkpt lat="46.24821" lon="-1.49976">
        <ele>-0.19999999999999</ele>
        <time>2025-07-04T08:35:40Z</time>
      </trkpt>
      <trkpt lat="46.24833" lon="-1.49971">
        <ele>0.19999999999999</ele>
        <time>2025-07-04T08:35:49Z</time>
      </trkpt>
      <trkpt lat="46.24838" lon="-1.49966">
        <ele>0.19999999999999</ele>
        <time>2025-07-04T08:35:55Z</time>
      </trkpt>
      <trkpt lat="46.24842" lon="-1.49963">
        <ele>0.39999999999998</ele>
        <time>2025-07-04T08:35:58Z</time>
      </trkpt>
      <trkpt lat="46.24844" lon="-1.49959">
        <ele>0.39999999999998</ele>
        <time>2025-07-04T08:36:01Z</time>
      </trkpt>
      <trkpt lat="46.24846" lon="-1.49957">
        <ele>0.60000000000002</ele>
        <time>2025-07-04T08:36:04Z</time>
      </trkpt>
      <trkpt lat="46.24855" lon="-1.49953">
        <ele>0.60000000000002</ele>
        <time>2025-07-04T08:36:12Z</time>
      </trkpt>
      <trkpt lat="46.24862" lon="-1.49948">
        <ele>1</ele>
        <time>2025-07-04T08:36:18Z</time>
      </trkpt>
      <trkpt lat="46.24863" lon="-1.49947">
        <ele>1</ele>
        <time>2025-07-04T08:36:19Z</time>
      </trkpt>
      <trkpt lat="46.24871" lon="-1.49943">
        <ele>0.80000000000001</ele>
        <time>2025-07-04T08:36:26Z</time>
      </trkpt>
      <trkpt lat="46.24871" lon="-1.49943">
        <ele>1</ele>
        <time>2025-07-04T08:36:27Z</time>
      </trkpt>
      <trkpt lat="46.24873" lon="-1.49942">
        <ele>1</ele>
        <time>2025-07-04T08:36:29Z</time>
      </trkpt>
      <trkpt lat="46.24876" lon="-1.49941">
        <ele>1</ele>
        <time>2025-07-04T08:36:32Z</time>
      </trkpt>
      <trkpt lat="46.24886" lon="-1.49938">
        <ele>1</ele>
        <time>2025-07-04T08:36:38Z</time>
      </trkpt>
      <trkpt lat="46.2489" lon="-1.49936">
        <ele>1</ele>
        <time>2025-07-04T08:36:41Z</time>
      </trkpt>
      <trkpt lat="46.24894" lon="-1.49933">
        <ele>1.2</ele>
        <time>2025-07-04T08:36:44Z</time>
      </trkpt>
      <trkpt lat="46.24894" lon="-1.49931">
        <ele>1.2</ele>
        <time>2025-07-04T08:36:45Z</time>
      </trkpt>
      <trkpt lat="46.24895" lon="-1.49929">
        <ele>1.2</ele>
        <time>2025-07-04T08:36:46Z</time>
      </trkpt>
      <trkpt lat="46.24896" lon="-1.49924">
        <ele>1</ele>
        <time>2025-07-04T08:36:50Z</time>
      </trkpt>
      <trkpt lat="46.24892" lon="-1.49911">
        <ele>1.8</ele>
        <time>2025-07-04T08:36:57Z</time>
      </trkpt>
      <trkpt lat="46.24893" lon="-1.4991">
        <ele>1.8</ele>
        <time>2025-07-04T08:36:58Z</time>
      </trkpt>
      <trkpt lat="46.24892" lon="-1.49906">
        <ele>1.8</ele>
        <time>2025-07-04T08:37:00Z</time>
      </trkpt>
      <trkpt lat="46.24888" lon="-1.499">
        <ele>1.6</ele>
        <time>2025-07-04T08:37:03Z</time>
      </trkpt>
      <trkpt lat="46.24885" lon="-1.49887">
        <ele>1.6</ele>
        <time>2025-07-04T08:37:11Z</time>
      </trkpt>
      <trkpt lat="46.24884" lon="-1.49879">
        <ele>1.4</ele>
        <time>2025-07-04T08:37:16Z</time>
      </trkpt>
      <trkpt lat="46.24884" lon="-1.49875">
        <ele>1.4</ele>
        <time>2025-07-04T08:37:18Z</time>
      </trkpt>
      <trkpt lat="46.24883" lon="-1.4986">
        <ele>1.8</ele>
        <time>2025-07-04T08:37:26Z</time>
      </trkpt>
      <trkpt lat="46.24882" lon="-1.49858">
        <ele>1.6</ele>
        <time>2025-07-04T08:37:27Z</time>
      </trkpt>
      <trkpt lat="46.24879" lon="-1.49854">
        <ele>1.6</ele>
        <time>2025-07-04T08:37:29Z</time>
      </trkpt>
      <trkpt lat="46.24879" lon="-1.49851">
        <ele>1.4</ele>
        <time>2025-07-04T08:37:31Z</time>
      </trkpt>
      <trkpt lat="46.24878" lon="-1.49842">
        <ele>1.2</ele>
        <time>2025-07-04T08:37:36Z</time>
      </trkpt>
      <trkpt lat="46.24877" lon="-1.49832">
        <ele>1</ele>
        <time>2025-07-04T08:37:41Z</time>
      </trkpt>
      <trkpt lat="46.24875" lon="-1.49814">
        <ele>0.80000000000001</ele>
        <time>2025-07-04T08:37:50Z</time>
      </trkpt>
      <trkpt lat="46.2487" lon="-1.49801">
        <ele>1</ele>
        <time>2025-07-04T08:37:59Z</time>
      </trkpt>
      <trkpt lat="46.24864" lon="-1.49785">
        <ele>0.80000000000001</ele>
        <time>2025-07-04T08:38:07Z</time>
      </trkpt>
      <trkpt lat="46.24863" lon="-1.4978">
        <ele>0.60000000000002</ele>
        <time>2025-07-04T08:38:10Z</time>
      </trkpt>
      <trkpt lat="46.24863" lon="-1.49774">
        <ele>0.60000000000002</ele>
        <time>2025-07-04T08:38:13Z</time>
      </trkpt>
      <trkpt lat="46.24862" lon="-1.49766">
        <ele>0.39999999999998</ele>
        <time>2025-07-04T08:38:19Z</time>
      </trkpt>
      <trkpt lat="46.24861" lon="-1.4975">
        <ele>0.39999999999998</ele>
        <time>2025-07-04T08:38:27Z</time>
      </trkpt>
      <trkpt lat="46.24862" lon="-1.49732">
        <ele>0.19999999999999</ele>
        <time>2025-07-04T08:38:37Z</time>
      </trkpt>
      <trkpt lat="46.24862" lon="-1.49731">
        <ele>0.19999999999999</ele>
        <time>2025-07-04T08:38:38Z</time>
      </trkpt>
      <trkpt lat="46.24862" lon="-1.49728">
        <ele>0.19999999999999</ele>
        <time>2025-07-04T08:38:39Z</time>
      </trkpt>
      <trkpt lat="46.24863" lon="-1.4972">
        <ele>0.19999999999999</ele>
        <time>2025-07-04T08:38:43Z</time>
      </trkpt>
      <trkpt lat="46.24863" lon="-1.49716">
        <ele>0.19999999999999</ele>
        <time>2025-07-04T08:38:45Z</time>
      </trkpt>
      <trkpt lat="46.24864" lon="-1.49713">
        <ele>0.19999999999999</ele>
        <time>2025-07-04T08:38:47Z</time>
      </trkpt>
      <trkpt lat="46.24865" lon="-1.49712">
        <ele>0.19999999999999</ele>
        <time>2025-07-04T08:38:48Z</time>
      </trkpt>
      <trkpt lat="46.24867" lon="-1.49711">
        <ele>0.19999999999999</ele>
        <time>2025-07-04T08:38:51Z</time>
      </trkpt>
      <trkpt lat="46.24871" lon="-1.49711">
        <ele>0.39999999999998</ele>
        <time>2025-07-04T08:38:54Z</time>
      </trkpt>
      <trkpt lat="46.24879" lon="-1.49713">
        <ele>0.19999999999999</ele>
        <time>2025-07-04T08:39:00Z</time>
      </trkpt>
      <trkpt lat="46.24882" lon="-1.49714">
        <ele>0.39999999999998</ele>
        <time>2025-07-04T08:39:03Z</time>
      </trkpt>
      <trkpt lat="46.24888" lon="-1.49715">
        <ele>0.60000000000002</ele>
        <time>2025-07-04T08:39:06Z</time>
      </trkpt>
      <trkpt lat="46.24891" lon="-1.49717">
        <ele>0.60000000000002</ele>
        <time>2025-07-04T08:39:09Z</time>
      </trkpt>
      <trkpt lat="46.24905" lon="-1.49716">
        <ele>0.80000000000001</ele>
        <time>2025-07-04T08:39:19Z</time>
      </trkpt>
      <trkpt lat="46.24917" lon="-1.49716">
        <ele>0.60000000000002</ele>
        <time>2025-07-04T08:39:26Z</time>
      </trkpt>
      <trkpt lat="46.24924" lon="-1.49713">
        <ele>0.80000000000001</ele>
        <time>2025-07-04T08:39:34Z</time>
      </trkpt>
      <trkpt lat="46.24925" lon="-1.49713">
        <ele>0.60000000000002</ele>
        <time>2025-07-04T08:39:35Z</time>
      </trkpt>
      <trkpt lat="46.24926" lon="-1.49714">
        <ele>0.60000000000002</ele>
        <time>2025-07-04T08:39:36Z</time>
      </trkpt>
      <trkpt lat="46.24929" lon="-1.49713">
        <ele>0.60000000000002</ele>
        <time>2025-07-04T08:39:39Z</time>
      </trkpt>
      <trkpt lat="46.2493" lon="-1.49714">
        <ele>0.60000000000002</ele>
        <time>2025-07-04T08:39:40Z</time>
      </trkpt>
      <trkpt lat="46.24942" lon="-1.49715">
        <ele>0.60000000000002</ele>
        <time>2025-07-04T08:39:46Z</time>
      </trkpt>
      <trkpt lat="46.24942" lon="-1.49716">
        <ele>0.60000000000002</ele>
        <time>2025-07-04T08:39:47Z</time>
      </trkpt>
      <trkpt lat="46.24946" lon="-1.49717">
        <ele>0.80000000000001</ele>
        <time>2025-07-04T08:39:51Z</time>
      </trkpt>
      <trkpt lat="46.24953" lon="-1.49717">
        <ele>0.80000000000001</ele>
        <time>2025-07-04T08:39:57Z</time>
      </trkpt>
      <trkpt lat="46.24955" lon="-1.49718">
        <ele>1</ele>
        <time>2025-07-04T08:39:59Z</time>
      </trkpt>
      <trkpt lat="46.24961" lon="-1.49718">
        <ele>1</ele>
        <time>2025-07-04T08:40:04Z</time>
      </trkpt>
      <trkpt lat="46.24962" lon="-1.49719">
        <ele>1</ele>
        <time>2025-07-04T08:40:05Z</time>
      </trkpt>
      <trkpt lat="46.24963" lon="-1.49718">
        <ele>1.2</ele>
        <time>2025-07-04T08:40:06Z</time>
      </trkpt>
      <trkpt lat="46.24964" lon="-1.49718">
        <ele>1.2</ele>
        <time>2025-07-04T08:40:07Z</time>
      </trkpt>
      <trkpt lat="46.24965" lon="-1.49718">
        <ele>1.2</ele>
        <time>2025-07-04T08:40:08Z</time>
      </trkpt>
      <trkpt lat="46.24966" lon="-1.49718">
        <ele>1.4</ele>
        <time>2025-07-04T08:40:11Z</time>
      </trkpt>
      <trkpt lat="46.24972" lon="-1.49717">
        <ele>1.8</ele>
        <time>2025-07-04T08:40:15Z</time>
      </trkpt>
      <trkpt lat="46.24973" lon="-1.49717">
        <ele>1.8</ele>
        <time>2025-07-04T08:40:16Z</time>
      </trkpt>
      <trkpt lat="46.24978" lon="-1.49715">
        <ele>1.8</ele>
        <time>2025-07-04T08:40:21Z</time>
      </trkpt>
      <trkpt lat="46.2498" lon="-1.49711">
        <ele>2</ele>
        <time>2025-07-04T08:40:25Z</time>
      </trkpt>
      <trkpt lat="46.24984" lon="-1.49696">
        <ele>1.8</ele>
        <time>2025-07-04T08:40:33Z</time>
      </trkpt>
      <trkpt lat="46.24983" lon="-1.49693">
        <ele>1.8</ele>
        <time>2025-07-04T08:40:34Z</time>
      </trkpt>
      <trkpt lat="46.24986" lon="-1.49689">
        <ele>2.2</ele>
        <time>2025-07-04T08:40:37Z</time>
      </trkpt>
      <trkpt lat="46.24987" lon="-1.49685">
        <ele>2</ele>
        <time>2025-07-04T08:40:40Z</time>
      </trkpt>
      <trkpt lat="46.24996" lon="-1.49671">
        <ele>1.8</ele>
        <time>2025-07-04T08:40:48Z</time>
      </trkpt>
      <trkpt lat="46.24998" lon="-1.49668">
        <ele>1.8</ele>
        <time>2025-07-04T08:40:50Z</time>
      </trkpt>
      <trkpt lat="46.25004" lon="-1.49661">
        <ele>2</ele>
        <time>2025-07-04T08:40:54Z</time>
      </trkpt>
      <trkpt lat="46.25006" lon="-1.49656">
        <ele>2</ele>
        <time>2025-07-04T08:40:57Z</time>
      </trkpt>
      <trkpt lat="46.25008" lon="-1.49651">
        <ele>1.8</ele>
        <time>2025-07-04T08:41:00Z</time>
      </trkpt>
      <trkpt lat="46.25012" lon="-1.49644">
        <ele>1.8</ele>
        <time>2025-07-04T08:41:05Z</time>
      </trkpt>
      <trkpt lat="46.25012" lon="-1.49642">
        <ele>2</ele>
        <time>2025-07-04T08:41:06Z</time>
      </trkpt>
      <trkpt lat="46.25013" lon="-1.49641">
        <ele>2</ele>
        <time>2025-07-04T08:41:07Z</time>
      </trkpt>
      <trkpt lat="46.25017" lon="-1.49636">
        <ele>2</ele>
        <time>2025-07-04T08:41:11Z</time>
      </trkpt>
      <trkpt lat="46.25024" lon="-1.49628">
        <ele>1.8</ele>
        <time>2025-07-04T08:41:17Z</time>
      </trkpt>
      <trkpt lat="46.25028" lon="-1.49623">
        <ele>1.8</ele>
        <time>2025-07-04T08:41:21Z</time>
      </trkpt>
      <trkpt lat="46.2503" lon="-1.4962">
        <ele>1.8</ele>
        <time>2025-07-04T08:41:23Z</time>
      </trkpt>
      <trkpt lat="46.25032" lon="-1.49618">
        <ele>1.8</ele>
        <time>2025-07-04T08:41:25Z</time>
      </trkpt>
      <trkpt lat="46.25036" lon="-1.49614">
        <ele>1.6</ele>
        <time>2025-07-04T08:41:28Z</time>
      </trkpt>
      <trkpt lat="46.25045" lon="-1.49604">
        <ele>1.6</ele>
        <time>2025-07-04T08:41:36Z</time>
      </trkpt>
      <trkpt lat="46.25047" lon="-1.49598">
        <ele>1.8</ele>
        <time>2025-07-04T08:41:40Z</time>
      </trkpt>
      <trkpt lat="46.25051" lon="-1.49594">
        <ele>1.8</ele>
        <time>2025-07-04T08:41:43Z</time>
      </trkpt>
      <trkpt lat="46.25054" lon="-1.49589">
        <ele>1.8</ele>
        <time>2025-07-04T08:41:46Z</time>
      </trkpt>
      <trkpt lat="46.25055" lon="-1.49583">
        <ele>2</ele>
        <time>2025-07-04T08:41:49Z</time>
      </trkpt>
      <trkpt lat="46.25056" lon="-1.49579">
        <ele>2</ele>
        <time>2025-07-04T08:41:51Z</time>
      </trkpt>
      <trkpt lat="46.25056" lon="-1.49577">
        <ele>1.8</ele>
        <time>2025-07-04T08:41:52Z</time>
      </trkpt>
      <trkpt lat="46.25058" lon="-1.49575">
        <ele>1.8</ele>
        <time>2025-07-04T08:41:54Z</time>
      </trkpt>
      <trkpt lat="46.25059" lon="-1.49573">
        <ele>1.8</ele>
        <time>2025-07-04T08:41:55Z</time>
      </trkpt>
      <trkpt lat="46.2506" lon="-1.4956">
        <ele>1.8</ele>
        <time>2025-07-04T08:42:01Z</time>
      </trkpt>
      <trkpt lat="46.2506" lon="-1.49559">
        <ele>1.8</ele>
        <time>2025-07-04T08:42:02Z</time>
      </trkpt>
      <trkpt lat="46.25063" lon="-1.49556">
        <ele>1.8</ele>
        <time>2025-07-04T08:42:04Z</time>
      </trkpt>
      <trkpt lat="46.25064" lon="-1.49555">
        <ele>1.8</ele>
        <time>2025-07-04T08:42:05Z</time>
      </trkpt>
      <trkpt lat="46.25066" lon="-1.49552">
        <ele>1.8</ele>
        <time>2025-07-04T08:42:07Z</time>
      </trkpt>
      <trkpt lat="46.2507" lon="-1.49548">
        <ele>1.8</ele>
        <time>2025-07-04T08:42:10Z</time>
      </trkpt>
      <trkpt lat="46.2507" lon="-1.49546">
        <ele>1.8</ele>
        <time>2025-07-04T08:42:11Z</time>
      </trkpt>
      <trkpt lat="46.25069" lon="-1.49538">
        <ele>2</ele>
        <time>2025-07-04T08:42:15Z</time>
      </trkpt>
      <trkpt lat="46.25073" lon="-1.49532">
        <ele>2</ele>
        <time>2025-07-04T08:42:19Z</time>
      </trkpt>
      <trkpt lat="46.25074" lon="-1.49531">
        <ele>2</ele>
        <time>2025-07-04T08:42:20Z</time>
      </trkpt>
      <trkpt lat="46.25077" lon="-1.49526">
        <ele>2.2</ele>
        <time>2025-07-04T08:42:23Z</time>
      </trkpt>
      <trkpt lat="46.25078" lon="-1.4952">
        <ele>2</ele>
        <time>2025-07-04T08:42:26Z</time>
      </trkpt>
      <trkpt lat="46.25079" lon="-1.49516">
        <ele>2</ele>
        <time>2025-07-04T08:42:28Z</time>
      </trkpt>
      <trkpt lat="46.2508" lon="-1.49512">
        <ele>2</ele>
        <time>2025-07-04T08:42:30Z</time>
      </trkpt>
      <trkpt lat="46.2508" lon="-1.4951">
        <ele>2</ele>
        <time>2025-07-04T08:42:31Z</time>
      </trkpt>
      <trkpt lat="46.25077" lon="-1.49504">
        <ele>2.2</ele>
        <time>2025-07-04T08:42:34Z</time>
      </trkpt>
      <trkpt lat="46.25077" lon="-1.49499">
        <ele>2.4</ele>
        <time>2025-07-04T08:42:37Z</time>
      </trkpt>
      <trkpt lat="46.25081" lon="-1.49489">
        <ele>2.6</ele>
        <time>2025-07-04T08:42:43Z</time>
      </trkpt>
      <trkpt lat="46.25082" lon="-1.49486">
        <ele>2.4</ele>
        <time>2025-07-04T08:42:45Z</time>
      </trkpt>
      <trkpt lat="46.25082" lon="-1.49482">
        <ele>2.4</ele>
        <time>2025-07-04T08:42:47Z</time>
      </trkpt>
      <trkpt lat="46.25081" lon="-1.49476">
        <ele>2.4</ele>
        <time>2025-07-04T08:42:50Z</time>
      </trkpt>
      <trkpt lat="46.25081" lon="-1.49473">
        <ele>2.4</ele>
        <time>2025-07-04T08:42:51Z</time>
      </trkpt>
      <trkpt lat="46.25082" lon="-1.4947">
        <ele>2.6</ele>
        <time>2025-07-04T08:42:53Z</time>
      </trkpt>
      <trkpt lat="46.25083" lon="-1.49469">
        <ele>2.6</ele>
        <time>2025-07-04T08:42:54Z</time>
      </trkpt>
      <trkpt lat="46.25083" lon="-1.49462">
        <ele>2.6</ele>
        <time>2025-07-04T08:42:58Z</time>
      </trkpt>
      <trkpt lat="46.25084" lon="-1.49458">
        <ele>2.8</ele>
        <time>2025-07-04T08:43:00Z</time>
      </trkpt>
      <trkpt lat="46.25086" lon="-1.49449">
        <ele>3</ele>
        <time>2025-07-04T08:43:05Z</time>
      </trkpt>
      <trkpt lat="46.25087" lon="-1.49446">
        <ele>3</ele>
        <time>2025-07-04T08:43:07Z</time>
      </trkpt>
      <trkpt lat="46.25088" lon="-1.49442">
        <ele>3</ele>
        <time>2025-07-04T08:43:09Z</time>
      </trkpt>
      <trkpt lat="46.25088" lon="-1.49438">
        <ele>3</ele>
        <time>2025-07-04T08:43:11Z</time>
      </trkpt>
      <trkpt lat="46.25091" lon="-1.49432">
        <ele>3</ele>
        <time>2025-07-04T08:43:15Z</time>
      </trkpt>
      <trkpt lat="46.25091" lon="-1.49426">
        <ele>3</ele>
        <time>2025-07-04T08:43:18Z</time>
      </trkpt>
      <trkpt lat="46.25091" lon="-1.49425">
        <ele>3.2</ele>
        <time>2025-07-04T08:43:19Z</time>
      </trkpt>
      <trkpt lat="46.25092" lon="-1.49412">
        <ele>3.6</ele>
        <time>2025-07-04T08:43:26Z</time>
      </trkpt>
      <trkpt lat="46.25092" lon="-1.49398">
        <ele>3.8</ele>
        <time>2025-07-04T08:43:34Z</time>
      </trkpt>
      <trkpt lat="46.25092" lon="-1.49382">
        <ele>3.6</ele>
        <time>2025-07-04T08:43:43Z</time>
      </trkpt>
      <trkpt lat="46.25092" lon="-1.49367">
        <ele>3.6</ele>
        <time>2025-07-04T08:43:51Z</time>
      </trkpt>
      <trkpt lat="46.25092" lon="-1.49352">
        <ele>3.6</ele>
        <time>2025-07-04T08:43:58Z</time>
      </trkpt>
      <trkpt lat="46.25091" lon="-1.49336">
        <ele>3.4</ele>
        <time>2025-07-04T08:44:07Z</time>
      </trkpt>
      <trkpt lat="46.25092" lon="-1.49319">
        <ele>3.4</ele>
        <time>2025-07-04T08:44:16Z</time>
      </trkpt>
      <trkpt lat="46.25093" lon="-1.49308">
        <ele>3.2</ele>
        <time>2025-07-04T08:44:22Z</time>
      </trkpt>
      <trkpt lat="46.25097" lon="-1.49289">
        <ele>3</ele>
        <time>2025-07-04T08:44:32Z</time>
      </trkpt>
      <trkpt lat="46.25099" lon="-1.49276">
        <ele>2.8</ele>
        <time>2025-07-04T08:44:39Z</time>
      </trkpt>
      <trkpt lat="46.251" lon="-1.49274">
        <ele>2.8</ele>
        <time>2025-07-04T08:44:40Z</time>
      </trkpt>
      <trkpt lat="46.25107" lon="-1.49254">
        <ele>2.4</ele>
        <time>2025-07-04T08:44:52Z</time>
      </trkpt>
      <trkpt lat="46.25109" lon="-1.49239">
        <ele>2.2</ele>
        <time>2025-07-04T08:45:00Z</time>
      </trkpt>
      <trkpt lat="46.25115" lon="-1.4922">
        <ele>2.2</ele>
        <time>2025-07-04T08:45:11Z</time>
      </trkpt>
      <trkpt lat="46.25115" lon="-1.49219">
        <ele>2.2</ele>
        <time>2025-07-04T08:45:12Z</time>
      </trkpt>
      <trkpt lat="46.25119" lon="-1.49209">
        <ele>2.2</ele>
        <time>2025-07-04T08:45:18Z</time>
      </trkpt>
      <trkpt lat="46.25119" lon="-1.49204">
        <ele>2.2</ele>
        <time>2025-07-04T08:45:21Z</time>
      </trkpt>
      <trkpt lat="46.25127" lon="-1.49186">
        <ele>2</ele>
        <time>2025-07-04T08:45:32Z</time>
      </trkpt>
      <trkpt lat="46.25131" lon="-1.49173">
        <ele>2</ele>
        <time>2025-07-04T08:45:40Z</time>
      </trkpt>
      <trkpt lat="46.25135" lon="-1.49159">
        <ele>2</ele>
        <time>2025-07-04T08:45:48Z</time>
      </trkpt>
      <trkpt lat="46.25138" lon="-1.49143">
        <ele>1.8</ele>
        <time>2025-07-04T08:45:56Z</time>
      </trkpt>
      <trkpt lat="46.25139" lon="-1.49124">
        <ele>1.4</ele>
        <time>2025-07-04T08:46:07Z</time>
      </trkpt>
      <trkpt lat="46.25139" lon="-1.4912">
        <ele>1.4</ele>
        <time>2025-07-04T08:46:09Z</time>
      </trkpt>
      <trkpt lat="46.2514" lon="-1.49109">
        <ele>1.6</ele>
        <time>2025-07-04T08:46:15Z</time>
      </trkpt>
      <trkpt lat="46.2514" lon="-1.49107">
        <ele>1.6</ele>
        <time>2025-07-04T08:46:16Z</time>
      </trkpt>
      <trkpt lat="46.2514" lon="-1.49091">
        <ele>1.4</ele>
        <time>2025-07-04T08:46:26Z</time>
      </trkpt>
      <trkpt lat="46.2514" lon="-1.49072">
        <ele>1.4</ele>
        <time>2025-07-04T08:46:36Z</time>
      </trkpt>
      <trkpt lat="46.25139" lon="-1.49048">
        <ele>1.4</ele>
        <time>2025-07-04T08:46:48Z</time>
      </trkpt>
      <trkpt lat="46.25141" lon="-1.49028">
        <ele>1.6</ele>
        <time>2025-07-04T08:46:59Z</time>
      </trkpt>
      <trkpt lat="46.25143" lon="-1.49018">
        <ele>1.6</ele>
        <time>2025-07-04T08:47:05Z</time>
      </trkpt>
      <trkpt lat="46.25144" lon="-1.49011">
        <ele>1.6</ele>
        <time>2025-07-04T08:47:09Z</time>
      </trkpt>
      <trkpt lat="46.25145" lon="-1.48996">
        <ele>1.4</ele>
        <time>2025-07-04T08:47:17Z</time>
      </trkpt>
      <trkpt lat="46.25146" lon="-1.48983">
        <ele>1.2</ele>
        <time>2025-07-04T08:47:24Z</time>
      </trkpt>
      <trkpt lat="46.25148" lon="-1.48972">
        <ele>1.4</ele>
        <time>2025-07-04T08:47:30Z</time>
      </trkpt>
      <trkpt lat="46.25148" lon="-1.4897">
        <ele>1.4</ele>
        <time>2025-07-04T08:47:32Z</time>
      </trkpt>
      <trkpt lat="46.25151" lon="-1.48948">
        <ele>1.4</ele>
        <time>2025-07-04T08:47:44Z</time>
      </trkpt>
      <trkpt lat="46.2515" lon="-1.48925">
        <ele>1.6</ele>
        <time>2025-07-04T08:47:56Z</time>
      </trkpt>
      <trkpt lat="46.25147" lon="-1.48919">
        <ele>1.6</ele>
        <time>2025-07-04T08:48:00Z</time>
      </trkpt>
      <trkpt lat="46.25145" lon="-1.48914">
        <ele>2</ele>
        <time>2025-07-04T08:48:03Z</time>
      </trkpt>
      <trkpt lat="46.2514" lon="-1.48909">
        <ele>2</ele>
        <time>2025-07-04T08:48:08Z</time>
      </trkpt>
      <trkpt lat="46.25137" lon="-1.48906">
        <ele>2</ele>
        <time>2025-07-04T08:48:11Z</time>
      </trkpt>
      <trkpt lat="46.25128" lon="-1.48895">
        <ele>2.2</ele>
        <time>2025-07-04T08:48:22Z</time>
      </trkpt>
      <trkpt lat="46.2512" lon="-1.48886">
        <ele>2.4</ele>
        <time>2025-07-04T08:48:30Z</time>
      </trkpt>
      <trkpt lat="46.25115" lon="-1.4888">
        <ele>2.6</ele>
        <time>2025-07-04T08:48:35Z</time>
      </trkpt>
      <trkpt lat="46.25113" lon="-1.48878">
        <ele>2.8</ele>
        <time>2025-07-04T08:48:37Z</time>
      </trkpt>
      <trkpt lat="46.25107" lon="-1.48872">
        <ele>3.2</ele>
        <time>2025-07-04T08:48:43Z</time>
      </trkpt>
      <trkpt lat="46.25105" lon="-1.48868">
        <ele>3.2</ele>
        <time>2025-07-04T08:48:45Z</time>
      </trkpt>
      <trkpt lat="46.25099" lon="-1.4886">
        <ele>3</ele>
        <time>2025-07-04T08:48:53Z</time>
      </trkpt>
      <trkpt lat="46.2509" lon="-1.48856">
        <ele>2.6</ele>
        <time>2025-07-04T08:49:04Z</time>
      </trkpt>
      <trkpt lat="46.25089" lon="-1.48856">
        <ele>2.8</ele>
        <time>2025-07-04T08:49:12Z</time>
      </trkpt>
      <trkpt lat="46.25089" lon="-1.48857">
        <ele>3.2</ele>
        <time>2025-07-04T08:49:29Z</time>
      </trkpt>
      <trkpt lat="46.25086" lon="-1.48859">
        <ele>3.6</ele>
        <time>2025-07-04T08:49:42Z</time>
      </trkpt>
      <trkpt lat="46.25078" lon="-1.48859">
        <ele>3.6</ele>
        <time>2025-07-04T08:49:48Z</time>
      </trkpt>
      <trkpt lat="46.25074" lon="-1.48859">
        <ele>3.8</ele>
        <time>2025-07-04T08:49:51Z</time>
      </trkpt>
      <trkpt lat="46.25065" lon="-1.48856">
        <ele>4</ele>
        <time>2025-07-04T08:49:58Z</time>
      </trkpt>
      <trkpt lat="46.25061" lon="-1.48856">
        <ele>4</ele>
        <time>2025-07-04T08:50:01Z</time>
      </trkpt>
      <trkpt lat="46.25059" lon="-1.48855">
        <ele>3.8</ele>
        <time>2025-07-04T08:50:03Z</time>
      </trkpt>
      <trkpt lat="46.25058" lon="-1.48855">
        <ele>3.8</ele>
        <time>2025-07-04T08:50:05Z</time>
      </trkpt>
      <trkpt lat="46.25049" lon="-1.48849">
        <ele>3.8</ele>
        <time>2025-07-04T08:50:13Z</time>
      </trkpt>
      <trkpt lat="46.25038" lon="-1.48841">
        <ele>2.8</ele>
        <time>2025-07-04T08:50:23Z</time>
      </trkpt>
      <trkpt lat="46.25033" lon="-1.48838">
        <ele>3</ele>
        <time>2025-07-04T08:50:28Z</time>
      </trkpt>
      <trkpt lat="46.25031" lon="-1.48837">
        <ele>3</ele>
        <time>2025-07-04T08:50:30Z</time>
      </trkpt>
      <trkpt lat="46.25028" lon="-1.48834">
        <ele>2.6</ele>
        <time>2025-07-04T08:50:37Z</time>
      </trkpt>
      <trkpt lat="46.25028" lon="-1.48833">
        <ele>3.6</ele>
        <time>2025-07-04T08:50:48Z</time>
      </trkpt>
      <trkpt lat="46.25022" lon="-1.48831">
        <ele>3</ele>
        <time>2025-07-04T08:50:57Z</time>
      </trkpt>
      <trkpt lat="46.25011" lon="-1.48825">
        <ele>2.8</ele>
        <time>2025-07-04T08:51:04Z</time>
      </trkpt>
      <trkpt lat="46.25001" lon="-1.48815">
        <ele>2.6</ele>
        <time>2025-07-04T08:51:14Z</time>
      </trkpt>
      <trkpt lat="46.24996" lon="-1.48811">
        <ele>2.6</ele>
        <time>2025-07-04T08:51:19Z</time>
      </trkpt>
      <trkpt lat="46.24992" lon="-1.48807">
        <ele>2.6</ele>
        <time>2025-07-04T08:51:23Z</time>
      </trkpt>
      <trkpt lat="46.24989" lon="-1.48804">
        <ele>2.6</ele>
        <time>2025-07-04T08:51:26Z</time>
      </trkpt>
      <trkpt lat="46.24982" lon="-1.488">
        <ele>2.8</ele>
        <time>2025-07-04T08:51:32Z</time>
      </trkpt>
      <trkpt lat="46.24975" lon="-1.48794">
        <ele>3</ele>
        <time>2025-07-04T08:51:39Z</time>
      </trkpt>
      <trkpt lat="46.24973" lon="-1.48791">
        <ele>2.8</ele>
        <time>2025-07-04T08:51:42Z</time>
      </trkpt>
      <trkpt lat="46.24969" lon="-1.48786">
        <ele>2.8</ele>
        <time>2025-07-04T08:51:47Z</time>
      </trkpt>
      <trkpt lat="46.24964" lon="-1.48782">
        <ele>2.6</ele>
        <time>2025-07-04T08:51:51Z</time>
      </trkpt>
      <trkpt lat="46.24954" lon="-1.48773">
        <ele>3</ele>
        <time>2025-07-04T08:52:00Z</time>
      </trkpt>
      <trkpt lat="46.24945" lon="-1.48763">
        <ele>3</ele>
        <time>2025-07-04T08:52:08Z</time>
      </trkpt>
      <trkpt lat="46.24936" lon="-1.48754">
        <ele>2.8</ele>
        <time>2025-07-04T08:52:17Z</time>
      </trkpt>
      <trkpt lat="46.24926" lon="-1.48737">
        <ele>2.6</ele>
        <time>2025-07-04T08:52:29Z</time>
      </trkpt>
      <trkpt lat="46.24921" lon="-1.48726">
        <ele>2.2</ele>
        <time>2025-07-04T08:52:37Z</time>
      </trkpt>
      <trkpt lat="46.24914" lon="-1.48715">
        <ele>2.2</ele>
        <time>2025-07-04T08:52:46Z</time>
      </trkpt>
      <trkpt lat="46.24912" lon="-1.48712">
        <ele>2.4</ele>
        <time>2025-07-04T08:52:49Z</time>
      </trkpt>
      <trkpt lat="46.24903" lon="-1.48698">
        <ele>2.6</ele>
        <time>2025-07-04T08:52:59Z</time>
      </trkpt>
      <trkpt lat="46.24898" lon="-1.48688">
        <ele>2.4</ele>
        <time>2025-07-04T08:53:07Z</time>
      </trkpt>
      <trkpt lat="46.24891" lon="-1.48676">
        <ele>2.6</ele>
        <time>2025-07-04T08:53:15Z</time>
      </trkpt>
      <trkpt lat="46.24887" lon="-1.48664">
        <ele>2.8</ele>
        <time>2025-07-04T08:53:23Z</time>
      </trkpt>
      <trkpt lat="46.2488" lon="-1.48651">
        <ele>3</ele>
        <time>2025-07-04T08:53:32Z</time>
      </trkpt>
      <trkpt lat="46.24877" lon="-1.48645">
        <ele>3.4</ele>
        <time>2025-07-04T08:53:37Z</time>
      </trkpt>
      <trkpt lat="46.24873" lon="-1.48638">
        <ele>3.8</ele>
        <time>2025-07-04T08:53:42Z</time>
      </trkpt>
      <trkpt lat="46.24873" lon="-1.48636">
        <ele>3.8</ele>
        <time>2025-07-04T08:53:44Z</time>
      </trkpt>
      <trkpt lat="46.2487" lon="-1.48631">
        <ele>3.8</ele>
        <time>2025-07-04T08:53:48Z</time>
      </trkpt>
      <trkpt lat="46.24867" lon="-1.48625">
        <ele>4.2</ele>
        <time>2025-07-04T08:53:56Z</time>
      </trkpt>
      <trkpt lat="46.24867" lon="-1.48624">
        <ele>3.6</ele>
        <time>2025-07-04T08:54:05Z</time>
      </trkpt>
      <trkpt lat="46.24865" lon="-1.48624">
        <ele>3.4</ele>
        <time>2025-07-04T08:54:11Z</time>
      </trkpt>
      <trkpt lat="46.24871" lon="-1.48627">
        <ele>2.8</ele>
        <time>2025-07-04T08:54:18Z</time>
      </trkpt>
      <trkpt lat="46.2487" lon="-1.48623">
        <ele>2.4</ele>
        <time>2025-07-04T08:54:21Z</time>
      </trkpt>
      <trkpt lat="46.24871" lon="-1.48622">
        <ele>2.4</ele>
        <time>2025-07-04T08:54:23Z</time>
      </trkpt>
      <trkpt lat="46.2487" lon="-1.48622">
        <ele>2.6</ele>
        <time>2025-07-04T08:54:25Z</time>
      </trkpt>
      <trkpt lat="46.24871" lon="-1.48623">
        <ele>2.4</ele>
        <time>2025-07-04T08:54:30Z</time>
      </trkpt>
      <trkpt lat="46.24872" lon="-1.48623">
        <ele>2.4</ele>
        <time>2025-07-04T08:54:39Z</time>
      </trkpt>
      <trkpt lat="46.24872" lon="-1.48623">
        <ele>1.4</ele>
        <time>2025-07-04T08:54:44Z</time>
      </trkpt>
      <trkpt lat="46.24872" lon="-1.48623">
        <ele>1</ele>
        <time>2025-07-04T08:54:46Z</time>
      </trkpt>
      <trkpt lat="46.24872" lon="-1.48623">
        <ele>0.19999999999999</ele>
        <time>2025-07-04T08:54:50Z</time>
      </trkpt>
      <trkpt lat="46.24876" lon="-1.48614">
        <ele>-0.80000000000001</ele>
        <time>2025-07-04T08:54:59Z</time>
      </trkpt>
      <trkpt lat="46.24881" lon="-1.48604">
        <ele>-1.4</ele>
        <time>2025-07-04T08:55:05Z</time>
      </trkpt>
      <trkpt lat="46.24882" lon="-1.48603">
        <ele>-1.2</ele>
        <time>2025-07-04T08:55:06Z</time>
      </trkpt>
      <trkpt lat="46.24883" lon="-1.48597">
        <ele>-1.2</ele>
        <time>2025-07-04T08:55:09Z</time>
      </trkpt>
      <trkpt lat="46.24882" lon="-1.48597">
        <ele>-1.2</ele>
        <time>2025-07-04T08:55:11Z</time>
      </trkpt>
      <trkpt lat="46.24882" lon="-1.48593">
        <ele>-1.4</ele>
        <time>2025-07-04T08:55:14Z</time>
      </trkpt>
      <trkpt lat="46.24882" lon="-1.48588">
        <ele>-1.8</ele>
        <time>2025-07-04T08:55:17Z</time>
      </trkpt>
      <trkpt lat="46.24882" lon="-1.48586">
        <ele>-1.8</ele>
        <time>2025-07-04T08:55:18Z</time>
      </trkpt>
      <trkpt lat="46.24878" lon="-1.48574">
        <ele>-2.2</ele>
        <time>2025-07-04T08:55:26Z</time>
      </trkpt>
      <trkpt lat="46.24872" lon="-1.4856">
        <ele>-2.2</ele>
        <time>2025-07-04T08:55:35Z</time>
      </trkpt>
      <trkpt lat="46.24865" lon="-1.48547">
        <ele>-2.4</ele>
        <time>2025-07-04T08:55:44Z</time>
      </trkpt>
      <trkpt lat="46.24861" lon="-1.48537">
        <ele>-2.6</ele>
        <time>2025-07-04T08:55:50Z</time>
      </trkpt>
      <trkpt lat="46.24861" lon="-1.48534">
        <ele>-2.2</ele>
        <time>2025-07-04T08:55:52Z</time>
      </trkpt>
      <trkpt lat="46.24858" lon="-1.48521">
        <ele>-2.2</ele>
        <time>2025-07-04T08:56:00Z</time>
      </trkpt>
      <trkpt lat="46.24855" lon="-1.48503">
        <ele>-2</ele>
        <time>2025-07-04T08:56:10Z</time>
      </trkpt>
      <trkpt lat="46.24854" lon="-1.4849">
        <ele>-2.2</ele>
        <time>2025-07-04T08:56:18Z</time>
      </trkpt>
      <trkpt lat="46.2485" lon="-1.48471">
        <ele>-2</ele>
        <time>2025-07-04T08:56:28Z</time>
      </trkpt>
      <trkpt lat="46.24846" lon="-1.48452">
        <ele>-2.4</ele>
        <time>2025-07-04T08:56:38Z</time>
      </trkpt>
      <trkpt lat="46.24845" lon="-1.48444">
        <ele>-2</ele>
        <time>2025-07-04T08:56:43Z</time>
      </trkpt>
      <trkpt lat="46.24844" lon="-1.48437">
        <ele>-1.4</ele>
        <time>2025-07-04T08:56:47Z</time>
      </trkpt>
      <trkpt lat="46.24844" lon="-1.48435">
        <ele>-1.2</ele>
        <time>2025-07-04T08:56:48Z</time>
      </trkpt>
      <trkpt lat="46.24844" lon="-1.48424">
        <ele>-2</ele>
        <time>2025-07-04T08:56:53Z</time>
      </trkpt>
      <trkpt lat="46.24839" lon="-1.48402">
        <ele>-2</ele>
        <time>2025-07-04T08:57:04Z</time>
      </trkpt>
      <trkpt lat="46.24837" lon="-1.48381">
        <ele>-2</ele>
        <time>2025-07-04T08:57:14Z</time>
      </trkpt>
      <trkpt lat="46.24834" lon="-1.48359">
        <ele>-1.6</ele>
        <time>2025-07-04T08:57:26Z</time>
      </trkpt>
      <trkpt lat="46.24831" lon="-1.4834">
        <ele>-1.2</ele>
        <time>2025-07-04T08:57:36Z</time>
      </trkpt>
      <trkpt lat="46.2483" lon="-1.48327">
        <ele>-1.6</ele>
        <time>2025-07-04T08:57:42Z</time>
      </trkpt>
      <trkpt lat="46.24829" lon="-1.48319">
        <ele>-1.4</ele>
        <time>2025-07-04T08:57:46Z</time>
      </trkpt>
      <trkpt lat="46.24827" lon="-1.48299">
        <ele>-1</ele>
        <time>2025-07-04T08:57:56Z</time>
      </trkpt>
      <trkpt lat="46.24824" lon="-1.48274">
        <ele>-1.4</ele>
        <time>2025-07-04T08:58:09Z</time>
      </trkpt>
      <trkpt lat="46.24821" lon="-1.48251">
        <ele>-1.2</ele>
        <time>2025-07-04T08:58:21Z</time>
      </trkpt>
      <trkpt lat="46.24818" lon="-1.48243">
        <ele>-0.80000000000001</ele>
        <time>2025-07-04T08:58:26Z</time>
      </trkpt>
      <trkpt lat="46.24817" lon="-1.48243">
        <ele>-0.39999999999998</ele>
        <time>2025-07-04T08:58:27Z</time>
      </trkpt>
      <trkpt lat="46.24816" lon="-1.48243">
        <ele>-0.39999999999998</ele>
        <time>2025-07-04T08:58:28Z</time>
      </trkpt>
      <trkpt lat="46.24813" lon="-1.48245">
        <ele>0.39999999999998</ele>
        <time>2025-07-04T08:58:31Z</time>
      </trkpt>
      <trkpt lat="46.24809" lon="-1.48248">
        <ele>0.39999999999998</ele>
        <time>2025-07-04T08:58:34Z</time>
      </trkpt>
      <trkpt lat="46.24807" lon="-1.48249">
        <ele>0.39999999999998</ele>
        <time>2025-07-04T08:58:36Z</time>
      </trkpt>
      <trkpt lat="46.24804" lon="-1.48247">
        <ele>0.39999999999998</ele>
        <time>2025-07-04T08:58:41Z</time>
      </trkpt>
      <trkpt lat="46.24802" lon="-1.48244">
        <ele>-0.60000000000002</ele>
        <time>2025-07-04T08:58:44Z</time>
      </trkpt>
      <trkpt lat="46.24801" lon="-1.48243">
        <ele>-0.60000000000002</ele>
        <time>2025-07-04T08:58:45Z</time>
      </trkpt>
      <trkpt lat="46.24798" lon="-1.4824">
        <ele>-0.80000000000001</ele>
        <time>2025-07-04T08:58:48Z</time>
      </trkpt>
      <trkpt lat="46.24783" lon="-1.48224">
        <ele>-0.39999999999998</ele>
        <time>2025-07-04T08:59:02Z</time>
      </trkpt>
      <trkpt lat="46.2478" lon="-1.48222">
        <ele>-0.39999999999998</ele>
        <time>2025-07-04T08:59:05Z</time>
      </trkpt>
      <trkpt lat="46.24766" lon="-1.48205">
        <ele>0.19999999999999</ele>
        <time>2025-07-04T08:59:19Z</time>
      </trkpt>
      <trkpt lat="46.24764" lon="-1.48202">
        <ele>0.19999999999999</ele>
        <time>2025-07-04T08:59:21Z</time>
      </trkpt>
      <trkpt lat="46.24763" lon="-1.48201">
        <ele>0.39999999999998</ele>
        <time>2025-07-04T08:59:22Z</time>
      </trkpt>
      <trkpt lat="46.24758" lon="-1.48193">
        <ele>1</ele>
        <time>2025-07-04T08:59:27Z</time>
      </trkpt>
      <trkpt lat="46.24752" lon="-1.48185">
        <ele>1.2</ele>
        <time>2025-07-04T08:59:33Z</time>
      </trkpt>
      <trkpt lat="46.24749" lon="-1.48182">
        <ele>1.6</ele>
        <time>2025-07-04T08:59:35Z</time>
      </trkpt>
      <trkpt lat="46.2474" lon="-1.48178">
        <ele>2.4</ele>
        <time>2025-07-04T08:59:43Z</time>
      </trkpt>
      <trkpt lat="46.24738" lon="-1.4818">
        <ele>2.6</ele>
        <time>2025-07-04T08:59:45Z</time>
      </trkpt>
      <trkpt lat="46.24737" lon="-1.48183">
        <ele>2.8</ele>
        <time>2025-07-04T08:59:47Z</time>
      </trkpt>
      <trkpt lat="46.24733" lon="-1.48183">
        <ele>2.8</ele>
        <time>2025-07-04T08:59:50Z</time>
      </trkpt>
      <trkpt lat="46.24728" lon="-1.48182">
        <ele>1.6</ele>
        <time>2025-07-04T08:59:54Z</time>
      </trkpt>
      <trkpt lat="46.24721" lon="-1.48176">
        <ele>1.2</ele>
        <time>2025-07-04T09:00:00Z</time>
      </trkpt>
      <trkpt lat="46.24705" lon="-1.48164">
        <ele>1.6</ele>
        <time>2025-07-04T09:00:13Z</time>
      </trkpt>
      <trkpt lat="46.24704" lon="-1.48163">
        <ele>1.6</ele>
        <time>2025-07-04T09:00:14Z</time>
      </trkpt>
      <trkpt lat="46.24687" lon="-1.48151">
        <ele>1.4</ele>
        <time>2025-07-04T09:00:27Z</time>
      </trkpt>
      <trkpt lat="46.24682" lon="-1.48151">
        <ele>1.4</ele>
        <time>2025-07-04T09:00:29Z</time>
      </trkpt>
      <trkpt lat="46.24667" lon="-1.48141">
        <ele>2</ele>
        <time>2025-07-04T09:00:41Z</time>
      </trkpt>
      <trkpt lat="46.24664" lon="-1.48138">
        <ele>2</ele>
        <time>2025-07-04T09:00:44Z</time>
      </trkpt>
      <trkpt lat="46.24648" lon="-1.48132">
        <ele>1.8</ele>
        <time>2025-07-04T09:00:57Z</time>
      </trkpt>
      <trkpt lat="46.2463" lon="-1.48126">
        <ele>2.2</ele>
        <time>2025-07-04T09:01:11Z</time>
      </trkpt>
      <trkpt lat="46.24629" lon="-1.48125">
        <ele>2.2</ele>
        <time>2025-07-04T09:01:12Z</time>
      </trkpt>
      <trkpt lat="46.24617" lon="-1.48121">
        <ele>2</ele>
        <time>2025-07-04T09:01:21Z</time>
      </trkpt>
      <trkpt lat="46.24614" lon="-1.4812">
        <ele>2</ele>
        <time>2025-07-04T09:01:23Z</time>
      </trkpt>
      <trkpt lat="46.24598" lon="-1.48114">
        <ele>2</ele>
        <time>2025-07-04T09:01:37Z</time>
      </trkpt>
      <trkpt lat="46.24582" lon="-1.48115">
        <ele>2</ele>
        <time>2025-07-04T09:01:49Z</time>
      </trkpt>
      <trkpt lat="46.24568" lon="-1.48112">
        <ele>1.8</ele>
        <time>2025-07-04T09:02:02Z</time>
      </trkpt>
      <trkpt lat="46.24552" lon="-1.48108">
        <ele>1.6</ele>
        <time>2025-07-04T09:02:13Z</time>
      </trkpt>
      <trkpt lat="46.24537" lon="-1.48105">
        <ele>1.8</ele>
        <time>2025-07-04T09:02:26Z</time>
      </trkpt>
      <trkpt lat="46.24526" lon="-1.48103">
        <ele>1.6</ele>
        <time>2025-07-04T09:02:35Z</time>
      </trkpt>
      <trkpt lat="46.24512" lon="-1.48101">
        <ele>1.8</ele>
        <time>2025-07-04T09:02:47Z</time>
      </trkpt>
      <trkpt lat="46.24502" lon="-1.48102">
        <ele>1.8</ele>
        <time>2025-07-04T09:02:55Z</time>
      </trkpt>
      <trkpt lat="46.24491" lon="-1.48101">
        <ele>1.6</ele>
        <time>2025-07-04T09:03:04Z</time>
      </trkpt>
      <trkpt lat="46.2448" lon="-1.48099">
        <ele>1.6</ele>
        <time>2025-07-04T09:03:13Z</time>
      </trkpt>
      <trkpt lat="46.24465" lon="-1.48099">
        <ele>1.6</ele>
        <time>2025-07-04T09:03:25Z</time>
      </trkpt>
      <trkpt lat="46.24455" lon="-1.48098">
        <ele>1.6</ele>
        <time>2025-07-04T09:03:33Z</time>
      </trkpt>
      <trkpt lat="46.24448" lon="-1.48098">
        <ele>1.4</ele>
        <time>2025-07-04T09:03:39Z</time>
      </trkpt>
      <trkpt lat="46.24447" lon="-1.48099">
        <ele>1.6</ele>
        <time>2025-07-04T09:03:40Z</time>
      </trkpt>
      <trkpt lat="46.2444" lon="-1.48099">
        <ele>1.8</ele>
        <time>2025-07-04T09:03:47Z</time>
      </trkpt>
      <trkpt lat="46.24431" lon="-1.48097">
        <ele>1.4</ele>
        <time>2025-07-04T09:03:55Z</time>
      </trkpt>
      <trkpt lat="46.24417" lon="-1.48096">
        <ele>0.80000000000001</ele>
        <time>2025-07-04T09:04:05Z</time>
      </trkpt>
      <trkpt lat="46.24406" lon="-1.48095">
        <ele>0.80000000000001</ele>
        <time>2025-07-04T09:04:14Z</time>
      </trkpt>
      <trkpt lat="46.24393" lon="-1.48097">
        <ele>1</ele>
        <time>2025-07-04T09:04:24Z</time>
      </trkpt>
      <trkpt lat="46.2438" lon="-1.48097">
        <ele>0.60000000000002</ele>
        <time>2025-07-04T09:04:33Z</time>
      </trkpt>
      <trkpt lat="46.2437" lon="-1.48098">
        <ele>1.2</ele>
        <time>2025-07-04T09:04:41Z</time>
      </trkpt>
      <trkpt lat="46.24358" lon="-1.48099">
        <ele>1</ele>
        <time>2025-07-04T09:04:50Z</time>
      </trkpt>
      <trkpt lat="46.24349" lon="-1.481">
        <ele>1</ele>
        <time>2025-07-04T09:04:57Z</time>
      </trkpt>
      <trkpt lat="46.24337" lon="-1.48101">
        <ele>0.80000000000001</ele>
        <time>2025-07-04T09:05:06Z</time>
      </trkpt>
      <trkpt lat="46.24326" lon="-1.48103">
        <ele>0.80000000000001</ele>
        <time>2025-07-04T09:05:14Z</time>
      </trkpt>
      <trkpt lat="46.24311" lon="-1.48108">
        <ele>1</ele>
        <time>2025-07-04T09:05:26Z</time>
      </trkpt>
      <trkpt lat="46.24295" lon="-1.48112">
        <ele>1</ele>
        <time>2025-07-04T09:05:37Z</time>
      </trkpt>
      <trkpt lat="46.24285" lon="-1.48113">
        <ele>1</ele>
        <time>2025-07-04T09:05:45Z</time>
      </trkpt>
      <trkpt lat="46.24276" lon="-1.48112">
        <ele>0.80000000000001</ele>
        <time>2025-07-04T09:05:51Z</time>
      </trkpt>
      <trkpt lat="46.24263" lon="-1.48116">
        <ele>0.80000000000001</ele>
        <time>2025-07-04T09:06:01Z</time>
      </trkpt>
      <trkpt lat="46.2425" lon="-1.48119">
        <ele>0.80000000000001</ele>
        <time>2025-07-04T09:06:11Z</time>
      </trkpt>
      <trkpt lat="46.24234" lon="-1.48123">
        <ele>0.39999999999998</ele>
        <time>2025-07-04T09:06:23Z</time>
      </trkpt>
      <trkpt lat="46.24232" lon="-1.48124">
        <ele>0.19999999999999</ele>
        <time>2025-07-04T09:06:25Z</time>
      </trkpt>
      <trkpt lat="46.24221" lon="-1.48126">
        <ele>0.60000000000002</ele>
        <time>2025-07-04T09:06:33Z</time>
      </trkpt>
      <trkpt lat="46.24219" lon="-1.48127">
        <ele>0.60000000000002</ele>
        <time>2025-07-04T09:06:35Z</time>
      </trkpt>
      <trkpt lat="46.24212" lon="-1.48128">
        <ele>0.60000000000002</ele>
        <time>2025-07-04T09:06:41Z</time>
      </trkpt>
      <trkpt lat="46.24195" lon="-1.48132">
        <ele>0.80000000000001</ele>
        <time>2025-07-04T09:06:53Z</time>
      </trkpt>
      <trkpt lat="46.24182" lon="-1.48134">
        <ele>0.80000000000001</ele>
        <time>2025-07-04T09:07:03Z</time>
      </trkpt>
      <trkpt lat="46.24172" lon="-1.48133">
        <ele>0.60000000000002</ele>
        <time>2025-07-04T09:07:11Z</time>
      </trkpt>
      <trkpt lat="46.24159" lon="-1.48134">
        <ele>0.39999999999998</ele>
        <time>2025-07-04T09:07:20Z</time>
      </trkpt>
      <trkpt lat="46.24149" lon="-1.48132">
        <ele>0.80000000000001</ele>
        <time>2025-07-04T09:07:28Z</time>
      </trkpt>
      <trkpt lat="46.2414" lon="-1.48131">
        <ele>0.60000000000002</ele>
        <time>2025-07-04T09:07:36Z</time>
      </trkpt>
      <trkpt lat="46.24125" lon="-1.48127">
        <ele>0.60000000000002</ele>
        <time>2025-07-04T09:07:47Z</time>
      </trkpt>
      <trkpt lat="46.2412" lon="-1.48125">
        <ele>0.39999999999998</ele>
        <time>2025-07-04T09:07:51Z</time>
      </trkpt>
      <trkpt lat="46.24114" lon="-1.48123">
        <ele>0.39999999999998</ele>
        <time>2025-07-04T09:07:56Z</time>
      </trkpt>
      <trkpt lat="46.24103" lon="-1.48118">
        <ele>0.39999999999998</ele>
        <time>2025-07-04T09:08:06Z</time>
      </trkpt>
      <trkpt lat="46.24091" lon="-1.48114">
        <ele>0.39999999999998</ele>
        <time>2025-07-04T09:08:15Z</time>
      </trkpt>
      <trkpt lat="46.24079" lon="-1.48109">
        <ele>0.19999999999999</ele>
        <time>2025-07-04T09:08:24Z</time>
      </trkpt>
      <trkpt lat="46.24065" lon="-1.48101">
        <ele>0.39999999999998</ele>
        <time>2025-07-04T09:08:35Z</time>
      </trkpt>
      <trkpt lat="46.24053" lon="-1.48094">
        <ele>0.39999999999998</ele>
        <time>2025-07-04T09:08:45Z</time>
      </trkpt>
      <trkpt lat="46.24036" lon="-1.48084">
        <ele>0.39999999999998</ele>
        <time>2025-07-04T09:08:58Z</time>
      </trkpt>
      <trkpt lat="46.24023" lon="-1.48074">
        <ele>0.39999999999998</ele>
        <time>2025-07-04T09:09:09Z</time>
      </trkpt>
      <trkpt lat="46.24015" lon="-1.48069">
        <ele>0.19999999999999</ele>
        <time>2025-07-04T09:09:16Z</time>
      </trkpt>
      <trkpt lat="46.24012" lon="-1.48067">
        <ele>0.19999999999999</ele>
        <time>2025-07-04T09:09:18Z</time>
      </trkpt>
      <trkpt lat="46.23995" lon="-1.48055">
        <ele>0.19999999999999</ele>
        <time>2025-07-04T09:09:33Z</time>
      </trkpt>
      <trkpt lat="46.23982" lon="-1.48044">
        <ele>0.19999999999999</ele>
        <time>2025-07-04T09:09:45Z</time>
      </trkpt>
      <trkpt lat="46.2397" lon="-1.48033">
        <ele>0.19999999999999</ele>
        <time>2025-07-04T09:09:56Z</time>
      </trkpt>
      <trkpt lat="46.23962" lon="-1.48029">
        <ele>0.19999999999999</ele>
        <time>2025-07-04T09:10:02Z</time>
      </trkpt>
      <trkpt lat="46.23953" lon="-1.4802">
        <ele>0.19999999999999</ele>
        <time>2025-07-04T09:10:10Z</time>
      </trkpt>
      <trkpt lat="46.23943" lon="-1.48011">
        <ele>0.19999999999999</ele>
        <time>2025-07-04T09:10:19Z</time>
      </trkpt>
      <trkpt lat="46.23933" lon="-1.48003">
        <ele>-0.19999999999999</ele>
        <time>2025-07-04T09:10:27Z</time>
      </trkpt>
      <trkpt lat="46.23918" lon="-1.4799">
        <ele>-0.19999999999999</ele>
        <time>2025-07-04T09:10:39Z</time>
      </trkpt>
      <trkpt lat="46.23907" lon="-1.4798">
        <ele>-0.19999999999999</ele>
        <time>2025-07-04T09:10:48Z</time>
      </trkpt>
      <trkpt lat="46.239" lon="-1.47972">
        <ele>-0.19999999999999</ele>
        <time>2025-07-04T09:10:56Z</time>
      </trkpt>
      <trkpt lat="46.23891" lon="-1.47961">
        <ele>-0.19999999999999</ele>
        <time>2025-07-04T09:11:06Z</time>
      </trkpt>
      <trkpt lat="46.23885" lon="-1.4795">
        <ele>-0.19999999999999</ele>
        <time>2025-07-04T09:11:13Z</time>
      </trkpt>
      <trkpt lat="46.23879" lon="-1.4794">
        <ele>-0.19999999999999</ele>
        <time>2025-07-04T09:11:20Z</time>
      </trkpt>
      <trkpt lat="46.23872" lon="-1.47928">
        <ele>-0.19999999999999</ele>
        <time>2025-07-04T09:11:28Z</time>
      </trkpt>
      <trkpt lat="46.23872" lon="-1.47927">
        <ele>-0.19999999999999</ele>
        <time>2025-07-04T09:11:29Z</time>
      </trkpt>
      <trkpt lat="46.23865" lon="-1.47914">
        <ele>-0.19999999999999</ele>
        <time>2025-07-04T09:11:38Z</time>
      </trkpt>
      <trkpt lat="46.23858" lon="-1.47899">
        <ele>-0.19999999999999</ele>
        <time>2025-07-04T09:11:47Z</time>
      </trkpt>
      <trkpt lat="46.23853" lon="-1.47894">
        <ele>0.19999999999999</ele>
        <time>2025-07-04T09:11:52Z</time>
      </trkpt>
      <trkpt lat="46.23851" lon="-1.47893">
        <ele>0.39999999999998</ele>
        <time>2025-07-04T09:11:54Z</time>
      </trkpt>
      <trkpt lat="46.23844" lon="-1.47881">
        <ele>0.39999999999998</ele>
        <time>2025-07-04T09:12:02Z</time>
      </trkpt>
      <trkpt lat="46.23842" lon="-1.47876">
        <ele>0.39999999999998</ele>
        <time>2025-07-04T09:12:05Z</time>
      </trkpt>
      <trkpt lat="46.23838" lon="-1.47867">
        <ele>-0.39999999999998</ele>
        <time>2025-07-04T09:12:11Z</time>
      </trkpt>
      <trkpt lat="46.23831" lon="-1.47851">
        <ele>-0.39999999999998</ele>
        <time>2025-07-04T09:12:22Z</time>
      </trkpt>
      <trkpt lat="46.23823" lon="-1.47833">
        <ele>0.19999999999999</ele>
        <time>2025-07-04T09:12:33Z</time>
      </trkpt>
      <trkpt lat="46.23818" lon="-1.4782">
        <ele>0.19999999999999</ele>
        <time>2025-07-04T09:12:41Z</time>
      </trkpt>
      <trkpt lat="46.23811" lon="-1.47806">
        <ele>0.19999999999999</ele>
        <time>2025-07-04T09:12:50Z</time>
      </trkpt>
      <trkpt lat="46.23803" lon="-1.47797">
        <ele>0.80000000000001</ele>
        <time>2025-07-04T09:12:58Z</time>
      </trkpt>
      <trkpt lat="46.23796" lon="-1.478">
        <ele>1.6</ele>
        <time>2025-07-04T09:13:05Z</time>
      </trkpt>
      <trkpt lat="46.23795" lon="-1.478">
        <ele>1.8</ele>
        <time>2025-07-04T09:13:06Z</time>
      </trkpt>
      <trkpt lat="46.23789" lon="-1.47806">
        <ele>2.2</ele>
        <time>2025-07-04T09:13:13Z</time>
      </trkpt>
      <trkpt lat="46.23788" lon="-1.47807">
        <ele>2.2</ele>
        <time>2025-07-04T09:13:14Z</time>
      </trkpt>
      <trkpt lat="46.23787" lon="-1.47809">
        <ele>2.2</ele>
        <time>2025-07-04T09:13:17Z</time>
      </trkpt>
      <trkpt lat="46.23785" lon="-1.47808">
        <ele>2</ele>
        <time>2025-07-04T09:13:22Z</time>
      </trkpt>
      <trkpt lat="46.23786" lon="-1.47807">
        <ele>1.6</ele>
        <time>2025-07-04T09:13:30Z</time>
      </trkpt>
      <trkpt lat="46.23783" lon="-1.47799">
        <ele>0.80000000000001</ele>
        <time>2025-07-04T09:13:35Z</time>
      </trkpt>
      <trkpt lat="46.2378" lon="-1.47795">
        <ele>0.60000000000002</ele>
        <time>2025-07-04T09:13:38Z</time>
      </trkpt>
      <trkpt lat="46.23776" lon="-1.47793">
        <ele>0.60000000000002</ele>
        <time>2025-07-04T09:13:41Z</time>
      </trkpt>
      <trkpt lat="46.23771" lon="-1.47789">
        <ele>0.60000000000002</ele>
        <time>2025-07-04T09:13:45Z</time>
      </trkpt>
      <trkpt lat="46.23767" lon="-1.47784">
        <ele>0.19999999999999</ele>
        <time>2025-07-04T09:13:49Z</time>
      </trkpt>
      <trkpt lat="46.23764" lon="-1.47781">
        <ele>0.19999999999999</ele>
        <time>2025-07-04T09:13:51Z</time>
      </trkpt>
      <trkpt lat="46.23755" lon="-1.47767">
        <ele>0.19999999999999</ele>
        <time>2025-07-04T09:14:00Z</time>
      </trkpt>
      <trkpt lat="46.2375" lon="-1.47758">
        <ele>-0.19999999999999</ele>
        <time>2025-07-04T09:14:06Z</time>
      </trkpt>
      <trkpt lat="46.23745" lon="-1.4775">
        <ele>-0.39999999999998</ele>
        <time>2025-07-04T09:14:11Z</time>
      </trkpt>
      <trkpt lat="46.23744" lon="-1.47747">
        <ele>-0.39999999999998</ele>
        <time>2025-07-04T09:14:13Z</time>
      </trkpt>
      <trkpt lat="46.2374" lon="-1.4774">
        <ele>-0.19999999999999</ele>
        <time>2025-07-04T09:14:18Z</time>
      </trkpt>
      <trkpt lat="46.23737" lon="-1.47736">
        <ele>0.19999999999999</ele>
        <time>2025-07-04T09:14:21Z</time>
      </trkpt>
      <trkpt lat="46.23735" lon="-1.47729">
        <ele>0.19999999999999</ele>
        <time>2025-07-04T09:14:25Z</time>
      </trkpt>
      <trkpt lat="46.23732" lon="-1.47725">
        <ele>0.19999999999999</ele>
        <time>2025-07-04T09:14:28Z</time>
      </trkpt>
      <trkpt lat="46.23723" lon="-1.47708">
        <ele>-0.19999999999999</ele>
        <time>2025-07-04T09:14:38Z</time>
      </trkpt>
      <trkpt lat="46.23718" lon="-1.47696">
        <ele>-0.19999999999999</ele>
        <time>2025-07-04T09:14:45Z</time>
      </trkpt>
      <trkpt lat="46.23709" lon="-1.47684">
        <ele>0.39999999999998</ele>
        <time>2025-07-04T09:14:54Z</time>
      </trkpt>
      <trkpt lat="46.23707" lon="-1.47683">
        <ele>0.60000000000002</ele>
        <time>2025-07-04T09:14:56Z</time>
      </trkpt>
      <trkpt lat="46.23703" lon="-1.47684">
        <ele>1</ele>
        <time>2025-07-04T09:15:00Z</time>
      </trkpt>
      <trkpt lat="46.23696" lon="-1.47678">
        <ele>0.39999999999998</ele>
        <time>2025-07-04T09:15:07Z</time>
      </trkpt>
      <trkpt lat="46.23683" lon="-1.47675">
        <ele>0.39999999999998</ele>
        <time>2025-07-04T09:15:18Z</time>
      </trkpt>
      <trkpt lat="46.23675" lon="-1.47676">
        <ele>2</ele>
        <time>2025-07-04T09:15:25Z</time>
      </trkpt>
      <trkpt lat="46.23672" lon="-1.47675">
        <ele>2</ele>
        <time>2025-07-04T09:15:27Z</time>
      </trkpt>
      <trkpt lat="46.2367" lon="-1.47675">
        <ele>2</ele>
        <time>2025-07-04T09:15:29Z</time>
      </trkpt>
      <trkpt lat="46.23656" lon="-1.47673">
        <ele>1.6</ele>
        <time>2025-07-04T09:15:43Z</time>
      </trkpt>
      <trkpt lat="46.23648" lon="-1.4767">
        <ele>1.4</ele>
        <time>2025-07-04T09:15:51Z</time>
      </trkpt>
      <trkpt lat="46.23635" lon="-1.47663">
        <ele>1.4</ele>
        <time>2025-07-04T09:16:02Z</time>
      </trkpt>
      <trkpt lat="46.23623" lon="-1.47661">
        <ele>1.8</ele>
        <time>2025-07-04T09:16:12Z</time>
      </trkpt>
      <trkpt lat="46.2362" lon="-1.4766">
        <ele>1.8</ele>
        <time>2025-07-04T09:16:15Z</time>
      </trkpt>
      <trkpt lat="46.23615" lon="-1.47656">
        <ele>1.8</ele>
        <time>2025-07-04T09:16:20Z</time>
      </trkpt>
      <trkpt lat="46.23605" lon="-1.47643">
        <ele>1</ele>
        <time>2025-07-04T09:16:31Z</time>
      </trkpt>
      <trkpt lat="46.23599" lon="-1.47628">
        <ele>1.4</ele>
        <time>2025-07-04T09:16:40Z</time>
      </trkpt>
      <trkpt lat="46.23595" lon="-1.47615">
        <ele>1.4</ele>
        <time>2025-07-04T09:16:48Z</time>
      </trkpt>
      <trkpt lat="46.23584" lon="-1.47595">
        <ele>1.4</ele>
        <time>2025-07-04T09:17:01Z</time>
      </trkpt>
      <trkpt lat="46.23578" lon="-1.47585">
        <ele>2.2</ele>
        <time>2025-07-04T09:17:08Z</time>
      </trkpt>
      <trkpt lat="46.23577" lon="-1.47583">
        <ele>2.4</ele>
        <time>2025-07-04T09:17:10Z</time>
      </trkpt>
      <trkpt lat="46.2357" lon="-1.4757">
        <ele>2.2</ele>
        <time>2025-07-04T09:17:19Z</time>
      </trkpt>
      <trkpt lat="46.23567" lon="-1.47564">
        <ele>2.2</ele>
        <time>2025-07-04T09:17:23Z</time>
      </trkpt>
      <trkpt lat="46.23557" lon="-1.47548">
        <ele>1.8</ele>
        <time>2025-07-04T09:17:35Z</time>
      </trkpt>
      <trkpt lat="46.23551" lon="-1.47543">
        <ele>1.8</ele>
        <time>2025-07-04T09:17:42Z</time>
      </trkpt>
      <trkpt lat="46.23551" lon="-1.47541">
        <ele>1.8</ele>
        <time>2025-07-04T09:17:44Z</time>
      </trkpt>
      <trkpt lat="46.23545" lon="-1.47525">
        <ele>2</ele>
        <time>2025-07-04T09:17:55Z</time>
      </trkpt>
      <trkpt lat="46.23539" lon="-1.47506">
        <ele>2.2</ele>
        <time>2025-07-04T09:18:06Z</time>
      </trkpt>
      <trkpt lat="46.23535" lon="-1.47502">
        <ele>2.2</ele>
        <time>2025-07-04T09:18:09Z</time>
      </trkpt>
      <trkpt lat="46.23532" lon="-1.47498">
        <ele>2.2</ele>
        <time>2025-07-04T09:18:12Z</time>
      </trkpt>
      <trkpt lat="46.2353" lon="-1.47498">
        <ele>2.2</ele>
        <time>2025-07-04T09:18:14Z</time>
      </trkpt>
      <trkpt lat="46.23529" lon="-1.47493">
        <ele>2.2</ele>
        <time>2025-07-04T09:18:17Z</time>
      </trkpt>
      <trkpt lat="46.23529" lon="-1.4749">
        <ele>2</ele>
        <time>2025-07-04T09:18:19Z</time>
      </trkpt>
      <trkpt lat="46.23523" lon="-1.47476">
        <ele>2</ele>
        <time>2025-07-04T09:18:28Z</time>
      </trkpt>
      <trkpt lat="46.23513" lon="-1.47464">
        <ele>2.2</ele>
        <time>2025-07-04T09:18:39Z</time>
      </trkpt>
      <trkpt lat="46.23502" lon="-1.47455">
        <ele>2</ele>
        <time>2025-07-04T09:18:49Z</time>
      </trkpt>
      <trkpt lat="46.23492" lon="-1.47447">
        <ele>2.2</ele>
        <time>2025-07-04T09:18:58Z</time>
      </trkpt>
      <trkpt lat="46.2348" lon="-1.4744">
        <ele>2.2</ele>
        <time>2025-07-04T09:19:08Z</time>
      </trkpt>
      <trkpt lat="46.23469" lon="-1.47434">
        <ele>2.4</ele>
        <time>2025-07-04T09:19:17Z</time>
      </trkpt>
      <trkpt lat="46.23459" lon="-1.47427">
        <ele>2.4</ele>
        <time>2025-07-04T09:19:26Z</time>
      </trkpt>
      <trkpt lat="46.23449" lon="-1.47422">
        <ele>2.2</ele>
        <time>2025-07-04T09:19:34Z</time>
      </trkpt>
      <trkpt lat="46.23438" lon="-1.47415">
        <ele>2</ele>
        <time>2025-07-04T09:19:45Z</time>
      </trkpt>
      <trkpt lat="46.2343" lon="-1.47415">
        <ele>2.2</ele>
        <time>2025-07-04T09:19:51Z</time>
      </trkpt>
      <trkpt lat="46.23426" lon="-1.47414">
        <ele>2.2</ele>
        <time>2025-07-04T09:19:54Z</time>
      </trkpt>
      <trkpt lat="46.23414" lon="-1.47412">
        <ele>2.2</ele>
        <time>2025-07-04T09:20:03Z</time>
      </trkpt>
      <trkpt lat="46.23413" lon="-1.47413">
        <ele>2.2</ele>
        <time>2025-07-04T09:20:04Z</time>
      </trkpt>
      <trkpt lat="46.234" lon="-1.4741">
        <ele>2</ele>
        <time>2025-07-04T09:20:14Z</time>
      </trkpt>
      <trkpt lat="46.23393" lon="-1.47408">
        <ele>2</ele>
        <time>2025-07-04T09:20:20Z</time>
      </trkpt>
      <trkpt lat="46.23388" lon="-1.47408">
        <ele>1.8</ele>
        <time>2025-07-04T09:20:24Z</time>
      </trkpt>
      <trkpt lat="46.23373" lon="-1.47404">
        <ele>1.8</ele>
        <time>2025-07-04T09:20:36Z</time>
      </trkpt>
      <trkpt lat="46.23361" lon="-1.474">
        <ele>1.6</ele>
        <time>2025-07-04T09:20:46Z</time>
      </trkpt>
      <trkpt lat="46.23352" lon="-1.47392">
        <ele>1.4</ele>
        <time>2025-07-04T09:20:55Z</time>
      </trkpt>
      <trkpt lat="46.23348" lon="-1.47389">
        <ele>1.4</ele>
        <time>2025-07-04T09:20:59Z</time>
      </trkpt>
      <trkpt lat="46.23344" lon="-1.47386">
        <ele>1.4</ele>
        <time>2025-07-04T09:21:03Z</time>
      </trkpt>
      <trkpt lat="46.23341" lon="-1.47384">
        <ele>1.8</ele>
        <time>2025-07-04T09:21:05Z</time>
      </trkpt>
      <trkpt lat="46.23335" lon="-1.47385">
        <ele>2.4</ele>
        <time>2025-07-04T09:21:11Z</time>
      </trkpt>
      <trkpt lat="46.23328" lon="-1.47391">
        <ele>2.4</ele>
        <time>2025-07-04T09:21:18Z</time>
      </trkpt>
      <trkpt lat="46.23327" lon="-1.47392">
        <ele>2.4</ele>
        <time>2025-07-04T09:21:19Z</time>
      </trkpt>
      <trkpt lat="46.23326" lon="-1.47392">
        <ele>2.4</ele>
        <time>2025-07-04T09:21:20Z</time>
      </trkpt>
      <trkpt lat="46.23325" lon="-1.47393">
        <ele>2.4</ele>
        <time>2025-07-04T09:21:21Z</time>
      </trkpt>
      <trkpt lat="46.23322" lon="-1.47391">
        <ele>2.4</ele>
        <time>2025-07-04T09:21:25Z</time>
      </trkpt>
      <trkpt lat="46.23322" lon="-1.47391">
        <ele>2.4</ele>
        <time>2025-07-04T09:21:28Z</time>
      </trkpt>
      <trkpt lat="46.23323" lon="-1.4739">
        <ele>2.4</ele>
        <time>2025-07-04T09:21:33Z</time>
      </trkpt>
      <trkpt lat="46.23322" lon="-1.47387">
        <ele>2</ele>
        <time>2025-07-04T09:21:37Z</time>
      </trkpt>
      <trkpt lat="46.2332" lon="-1.47386">
        <ele>2</ele>
        <time>2025-07-04T09:21:39Z</time>
      </trkpt>
      <trkpt lat="46.23317" lon="-1.47382">
        <ele>1.8</ele>
        <time>2025-07-04T09:21:45Z</time>
      </trkpt>
      <trkpt lat="46.23311" lon="-1.47377">
        <ele>1.6</ele>
        <time>2025-07-04T09:21:51Z</time>
      </trkpt>
      <trkpt lat="46.2331" lon="-1.47377">
        <ele>1.6</ele>
        <time>2025-07-04T09:21:52Z</time>
      </trkpt>
      <trkpt lat="46.23304" lon="-1.47374">
        <ele>1.6</ele>
        <time>2025-07-04T09:21:57Z</time>
      </trkpt>
      <trkpt lat="46.23298" lon="-1.47371">
        <ele>1.2</ele>
        <time>2025-07-04T09:22:02Z</time>
      </trkpt>
      <trkpt lat="46.23283" lon="-1.47374">
        <ele>1.6</ele>
        <time>2025-07-04T09:22:12Z</time>
      </trkpt>
      <trkpt lat="46.23271" lon="-1.47382">
        <ele>1.6</ele>
        <time>2025-07-04T09:22:22Z</time>
      </trkpt>
      <trkpt lat="46.23263" lon="-1.47393">
        <ele>2.2</ele>
        <time>2025-07-04T09:22:31Z</time>
      </trkpt>
      <trkpt lat="46.23255" lon="-1.47406">
        <ele>2.2</ele>
        <time>2025-07-04T09:22:41Z</time>
      </trkpt>
      <trkpt lat="46.23254" lon="-1.47409">
        <ele>2.2</ele>
        <time>2025-07-04T09:22:43Z</time>
      </trkpt>
      <trkpt lat="46.23249" lon="-1.47416">
        <ele>1.8</ele>
        <time>2025-07-04T09:22:49Z</time>
      </trkpt>
      <trkpt lat="46.23245" lon="-1.47423">
        <ele>1.8</ele>
        <time>2025-07-04T09:22:54Z</time>
      </trkpt>
      <trkpt lat="46.23244" lon="-1.47428">
        <ele>2</ele>
        <time>2025-07-04T09:22:57Z</time>
      </trkpt>
      <trkpt lat="46.23243" lon="-1.47429">
        <ele>2</ele>
        <time>2025-07-04T09:22:58Z</time>
      </trkpt>
      <trkpt lat="46.2324" lon="-1.47438">
        <ele>2</ele>
        <time>2025-07-04T09:23:04Z</time>
      </trkpt>
      <trkpt lat="46.23239" lon="-1.4744">
        <ele>2</ele>
        <time>2025-07-04T09:23:05Z</time>
      </trkpt>
      <trkpt lat="46.23234" lon="-1.47449">
        <ele>2</ele>
        <time>2025-07-04T09:23:11Z</time>
      </trkpt>
      <trkpt lat="46.23232" lon="-1.47454">
        <ele>2</ele>
        <time>2025-07-04T09:23:15Z</time>
      </trkpt>
      <trkpt lat="46.23228" lon="-1.47461">
        <ele>2.2</ele>
        <time>2025-07-04T09:23:19Z</time>
      </trkpt>
      <trkpt lat="46.23226" lon="-1.47464">
        <ele>2.2</ele>
        <time>2025-07-04T09:23:21Z</time>
      </trkpt>
      <trkpt lat="46.2322" lon="-1.47474">
        <ele>2.2</ele>
        <time>2025-07-04T09:23:29Z</time>
      </trkpt>
      <trkpt lat="46.23216" lon="-1.47484">
        <ele>2.2</ele>
        <time>2025-07-04T09:23:36Z</time>
      </trkpt>
      <trkpt lat="46.23212" lon="-1.47489">
        <ele>2.4</ele>
        <time>2025-07-04T09:23:40Z</time>
      </trkpt>
      <trkpt lat="46.23206" lon="-1.475">
        <ele>2.6</ele>
        <time>2025-07-04T09:23:48Z</time>
      </trkpt>
      <trkpt lat="46.23202" lon="-1.47507">
        <ele>2.4</ele>
        <time>2025-07-04T09:23:53Z</time>
      </trkpt>
      <trkpt lat="46.232" lon="-1.47511">
        <ele>2.6</ele>
        <time>2025-07-04T09:23:56Z</time>
      </trkpt>
      <trkpt lat="46.23196" lon="-1.47523">
        <ele>2.8</ele>
        <time>2025-07-04T09:24:04Z</time>
      </trkpt>
      <trkpt lat="46.23191" lon="-1.47533">
        <ele>3.2</ele>
        <time>2025-07-04T09:24:11Z</time>
      </trkpt>
      <trkpt lat="46.2319" lon="-1.47534">
        <ele>3.2</ele>
        <time>2025-07-04T09:24:12Z</time>
      </trkpt>
      <trkpt lat="46.23189" lon="-1.47537">
        <ele>3.2</ele>
        <time>2025-07-04T09:24:14Z</time>
      </trkpt>
      <trkpt lat="46.23186" lon="-1.47541">
        <ele>3.4</ele>
        <time>2025-07-04T09:24:18Z</time>
      </trkpt>
      <trkpt lat="46.23181" lon="-1.47551">
        <ele>3.4</ele>
        <time>2025-07-04T09:24:24Z</time>
      </trkpt>
      <trkpt lat="46.23181" lon="-1.47552">
        <ele>3.2</ele>
        <time>2025-07-04T09:24:25Z</time>
      </trkpt>
      <trkpt lat="46.2318" lon="-1.47553">
        <ele>3.2</ele>
        <time>2025-07-04T09:24:26Z</time>
      </trkpt>
      <trkpt lat="46.23178" lon="-1.47556">
        <ele>3.2</ele>
        <time>2025-07-04T09:24:28Z</time>
      </trkpt>
      <trkpt lat="46.23177" lon="-1.47559">
        <ele>3.2</ele>
        <time>2025-07-04T09:24:30Z</time>
      </trkpt>
      <trkpt lat="46.23172" lon="-1.47572">
        <ele>3.2</ele>
        <time>2025-07-04T09:24:38Z</time>
      </trkpt>
      <trkpt lat="46.23171" lon="-1.47586">
        <ele>3.6</ele>
        <time>2025-07-04T09:24:46Z</time>
      </trkpt>
      <trkpt lat="46.23173" lon="-1.47599">
        <ele>4.2</ele>
        <time>2025-07-04T09:24:55Z</time>
      </trkpt>
      <trkpt lat="46.23177" lon="-1.47606">
        <ele>4.8</ele>
        <time>2025-07-04T09:25:01Z</time>
      </trkpt>
      <trkpt lat="46.23178" lon="-1.47608">
        <ele>4.8</ele>
        <time>2025-07-04T09:25:03Z</time>
      </trkpt>
      <trkpt lat="46.23179" lon="-1.4761">
        <ele>5</ele>
        <time>2025-07-04T09:25:05Z</time>
      </trkpt>
      <trkpt lat="46.23182" lon="-1.47614">
        <ele>5.4</ele>
        <time>2025-07-04T09:25:10Z</time>
      </trkpt>
      <trkpt lat="46.23183" lon="-1.47614">
        <ele>5.4</ele>
        <time>2025-07-04T09:25:11Z</time>
      </trkpt>
      <trkpt lat="46.23186" lon="-1.47618">
        <ele>6.4</ele>
        <time>2025-07-04T09:25:17Z</time>
      </trkpt>
      <trkpt lat="46.23187" lon="-1.47619">
        <ele>6.8</ele>
        <time>2025-07-04T09:25:19Z</time>
      </trkpt>
      <trkpt lat="46.23188" lon="-1.47623">
        <ele>7.4</ele>
        <time>2025-07-04T09:25:23Z</time>
      </trkpt>
      <trkpt lat="46.23189" lon="-1.47626">
        <ele>7.8</ele>
        <time>2025-07-04T09:25:26Z</time>
      </trkpt>
      <trkpt lat="46.23189" lon="-1.4763">
        <ele>8</ele>
        <time>2025-07-04T09:25:29Z</time>
      </trkpt>
      <trkpt lat="46.23189" lon="-1.47636">
        <ele>8</ele>
        <time>2025-07-04T09:25:32Z</time>
      </trkpt>
      <trkpt lat="46.23188" lon="-1.47639">
        <ele>8.2</ele>
        <time>2025-07-04T09:25:34Z</time>
      </trkpt>
      <trkpt lat="46.23187" lon="-1.47647">
        <ele>8.4</ele>
        <time>2025-07-04T09:25:40Z</time>
      </trkpt>
      <trkpt lat="46.23187" lon="-1.47648">
        <ele>8.4</ele>
        <time>2025-07-04T09:25:41Z</time>
      </trkpt>
      <trkpt lat="46.23185" lon="-1.47653">
        <ele>8</ele>
        <time>2025-07-04T09:25:44Z</time>
      </trkpt>
      <trkpt lat="46.23185" lon="-1.47655">
        <ele>7.8</ele>
        <time>2025-07-04T09:25:45Z</time>
      </trkpt>
      <trkpt lat="46.23184" lon="-1.47657">
        <ele>7.8</ele>
        <time>2025-07-04T09:25:46Z</time>
      </trkpt>
      <trkpt lat="46.23182" lon="-1.47661">
        <ele>7.6</ele>
        <time>2025-07-04T09:25:49Z</time>
      </trkpt>
      <trkpt lat="46.23181" lon="-1.47665">
        <ele>7.6</ele>
        <time>2025-07-04T09:25:52Z</time>
      </trkpt>
      <trkpt lat="46.23178" lon="-1.47675">
        <ele>7.6</ele>
        <time>2025-07-04T09:25:59Z</time>
      </trkpt>
      <trkpt lat="46.23173" lon="-1.4768">
        <ele>8</ele>
        <time>2025-07-04T09:26:05Z</time>
      </trkpt>
      <trkpt lat="46.23174" lon="-1.47682">
        <ele>8.2</ele>
        <time>2025-07-04T09:26:06Z</time>
      </trkpt>
      <trkpt lat="46.23174" lon="-1.4769">
        <ele>8.4</ele>
        <time>2025-07-04T09:26:10Z</time>
      </trkpt>
      <trkpt lat="46.23174" lon="-1.47692">
        <ele>8.4</ele>
        <time>2025-07-04T09:26:11Z</time>
      </trkpt>
      <trkpt lat="46.23174" lon="-1.47705">
        <ele>8.4</ele>
        <time>2025-07-04T09:26:18Z</time>
      </trkpt>
      <trkpt lat="46.23174" lon="-1.47706">
        <ele>8.2</ele>
        <time>2025-07-04T09:26:19Z</time>
      </trkpt>
      <trkpt lat="46.23173" lon="-1.47707">
        <ele>8.2</ele>
        <time>2025-07-04T09:26:20Z</time>
      </trkpt>
      <trkpt lat="46.23171" lon="-1.47712">
        <ele>8</ele>
        <time>2025-07-04T09:26:23Z</time>
      </trkpt>
      <trkpt lat="46.23169" lon="-1.47716">
        <ele>8</ele>
        <time>2025-07-04T09:26:25Z</time>
      </trkpt>
      <trkpt lat="46.23168" lon="-1.47718">
        <ele>8</ele>
        <time>2025-07-04T09:26:26Z</time>
      </trkpt>
      <trkpt lat="46.23161" lon="-1.47725">
        <ele>7.4</ele>
        <time>2025-07-04T09:26:32Z</time>
      </trkpt>
      <trkpt lat="46.23161" lon="-1.47727">
        <ele>7.2</ele>
        <time>2025-07-04T09:26:34Z</time>
      </trkpt>
      <trkpt lat="46.23161" lon="-1.4773">
        <ele>7</ele>
        <time>2025-07-04T09:26:37Z</time>
      </trkpt>
      <trkpt lat="46.23161" lon="-1.47737">
        <ele>6.8</ele>
        <time>2025-07-04T09:26:40Z</time>
      </trkpt>
      <trkpt lat="46.23161" lon="-1.4774">
        <ele>6.6</ele>
        <time>2025-07-04T09:26:42Z</time>
      </trkpt>
      <trkpt lat="46.23161" lon="-1.47744">
        <ele>6.4</ele>
        <time>2025-07-04T09:26:44Z</time>
      </trkpt>
      <trkpt lat="46.23162" lon="-1.47747">
        <ele>6.4</ele>
        <time>2025-07-04T09:26:46Z</time>
      </trkpt>
      <trkpt lat="46.23161" lon="-1.47758">
        <ele>6.2</ele>
        <time>2025-07-04T09:26:51Z</time>
      </trkpt>
      <trkpt lat="46.2316" lon="-1.4776">
        <ele>6.2</ele>
        <time>2025-07-04T09:26:52Z</time>
      </trkpt>
      <trkpt lat="46.23159" lon="-1.47763">
        <ele>6.2</ele>
        <time>2025-07-04T09:26:54Z</time>
      </trkpt>
      <trkpt lat="46.23156" lon="-1.47766">
        <ele>6.2</ele>
        <time>2025-07-04T09:26:58Z</time>
      </trkpt>
      <trkpt lat="46.23155" lon="-1.47767">
        <ele>6.2</ele>
        <time>2025-07-04T09:26:59Z</time>
      </trkpt>
      <trkpt lat="46.23154" lon="-1.47768">
        <ele>6.2</ele>
        <time>2025-07-04T09:27:00Z</time>
      </trkpt>
      <trkpt lat="46.23154" lon="-1.47772">
        <ele>6.2</ele>
        <time>2025-07-04T09:27:02Z</time>
      </trkpt>
      <trkpt lat="46.23155" lon="-1.47781">
        <ele>5.8</ele>
        <time>2025-07-04T09:28:26Z</time>
      </trkpt>
      <trkpt lat="46.23155" lon="-1.47781">
        <ele>5.8</ele>
        <time>2025-07-04T09:28:27Z</time>
      </trkpt>
      <trkpt lat="46.2315" lon="-1.47782">
        <ele>5.6</ele>
        <time>2025-07-04T09:28:38Z</time>
      </trkpt>
      <trkpt lat="46.23141" lon="-1.47787">
        <ele>5.4</ele>
        <time>2025-07-04T09:28:44Z</time>
      </trkpt>
      <trkpt lat="46.23139" lon="-1.47788">
        <ele>5.4</ele>
        <time>2025-07-04T09:28:45Z</time>
      </trkpt>
      <trkpt lat="46.23138" lon="-1.4779">
        <ele>5.6</ele>
        <time>2025-07-04T09:28:47Z</time>
      </trkpt>
      <trkpt lat="46.2313" lon="-1.47796">
        <ele>5.8</ele>
        <time>2025-07-04T09:28:52Z</time>
      </trkpt>
      <trkpt lat="46.23127" lon="-1.47798">
        <ele>5.8</ele>
        <time>2025-07-04T09:28:54Z</time>
      </trkpt>
      <trkpt lat="46.23124" lon="-1.47807">
        <ele>5.6</ele>
        <time>2025-07-04T09:28:59Z</time>
      </trkpt>
      <trkpt lat="46.23118" lon="-1.47814">
        <ele>5.8</ele>
        <time>2025-07-04T09:29:03Z</time>
      </trkpt>
      <trkpt lat="46.23118" lon="-1.47815">
        <ele>5.8</ele>
        <time>2025-07-04T09:29:04Z</time>
      </trkpt>
      <trkpt lat="46.23117" lon="-1.47818">
        <ele>5.8</ele>
        <time>2025-07-04T09:29:06Z</time>
      </trkpt>
      <trkpt lat="46.23115" lon="-1.4782">
        <ele>5.8</ele>
        <time>2025-07-04T09:29:09Z</time>
      </trkpt>
      <trkpt lat="46.23108" lon="-1.47829">
        <ele>6.2</ele>
        <time>2025-07-04T09:29:17Z</time>
      </trkpt>
      <trkpt lat="46.23107" lon="-1.4783">
        <ele>6.4</ele>
        <time>2025-07-04T09:29:18Z</time>
      </trkpt>
      <trkpt lat="46.23106" lon="-1.47831">
        <ele>6.6</ele>
        <time>2025-07-04T09:29:19Z</time>
      </trkpt>
      <trkpt lat="46.23103" lon="-1.47835">
        <ele>6.8</ele>
        <time>2025-07-04T09:29:22Z</time>
      </trkpt>
      <trkpt lat="46.23103" lon="-1.47837">
        <ele>6.8</ele>
        <time>2025-07-04T09:29:23Z</time>
      </trkpt>
      <trkpt lat="46.23103" lon="-1.47841">
        <ele>7</ele>
        <time>2025-07-04T09:29:25Z</time>
      </trkpt>
      <trkpt lat="46.23105" lon="-1.47849">
        <ele>7</ele>
        <time>2025-07-04T09:29:29Z</time>
      </trkpt>
      <trkpt lat="46.23107" lon="-1.47853">
        <ele>7</ele>
        <time>2025-07-04T09:29:31Z</time>
      </trkpt>
      <trkpt lat="46.23109" lon="-1.47856">
        <ele>7.2</ele>
        <time>2025-07-04T09:29:34Z</time>
      </trkpt>
      <trkpt lat="46.2311" lon="-1.47857">
        <ele>7.2</ele>
        <time>2025-07-04T09:29:35Z</time>
      </trkpt>
      <trkpt lat="46.23115" lon="-1.47867">
        <ele>7.2</ele>
        <time>2025-07-04T09:29:42Z</time>
      </trkpt>
      <trkpt lat="46.23117" lon="-1.4787">
        <ele>7.4</ele>
        <time>2025-07-04T09:29:44Z</time>
      </trkpt>
      <trkpt lat="46.23121" lon="-1.47872">
        <ele>7.4</ele>
        <time>2025-07-04T09:29:48Z</time>
      </trkpt>
      <trkpt lat="46.23126" lon="-1.47876">
        <ele>7.4</ele>
        <time>2025-07-04T09:29:52Z</time>
      </trkpt>
      <trkpt lat="46.23128" lon="-1.47883">
        <ele>7.6</ele>
        <time>2025-07-04T09:29:56Z</time>
      </trkpt>
      <trkpt lat="46.23128" lon="-1.47884">
        <ele>7.6</ele>
        <time>2025-07-04T09:29:57Z</time>
      </trkpt>
      <trkpt lat="46.23125" lon="-1.47893">
        <ele>7.6</ele>
        <time>2025-07-04T09:30:01Z</time>
      </trkpt>
      <trkpt lat="46.23121" lon="-1.47904">
        <ele>8</ele>
        <time>2025-07-04T09:30:08Z</time>
      </trkpt>
      <trkpt lat="46.23114" lon="-1.47918">
        <ele>8</ele>
        <time>2025-07-04T09:30:16Z</time>
      </trkpt>
      <trkpt lat="46.2311" lon="-1.47931">
        <ele>7.6</ele>
        <time>2025-07-04T09:30:23Z</time>
      </trkpt>
      <trkpt lat="46.23103" lon="-1.47944">
        <ele>7.2</ele>
        <time>2025-07-04T09:30:30Z</time>
      </trkpt>
      <trkpt lat="46.23103" lon="-1.47946">
        <ele>7.2</ele>
        <time>2025-07-04T09:30:31Z</time>
      </trkpt>
      <trkpt lat="46.23105" lon="-1.47957">
        <ele>7.2</ele>
        <time>2025-07-04T09:30:37Z</time>
      </trkpt>
      <trkpt lat="46.23105" lon="-1.47959">
        <ele>7.2</ele>
        <time>2025-07-04T09:30:38Z</time>
      </trkpt>
      <trkpt lat="46.23105" lon="-1.47971">
        <ele>7.6</ele>
        <time>2025-07-04T09:30:44Z</time>
      </trkpt>
      <trkpt lat="46.23106" lon="-1.47973">
        <ele>7.6</ele>
        <time>2025-07-04T09:30:45Z</time>
      </trkpt>
      <trkpt lat="46.23106" lon="-1.47985">
        <ele>7.2</ele>
        <time>2025-07-04T09:30:51Z</time>
      </trkpt>
      <trkpt lat="46.23106" lon="-1.47992">
        <ele>7</ele>
        <time>2025-07-04T09:30:55Z</time>
      </trkpt>
      <trkpt lat="46.23107" lon="-1.47995">
        <ele>7</ele>
        <time>2025-07-04T09:30:57Z</time>
      </trkpt>
      <trkpt lat="46.23107" lon="-1.47997">
        <ele>7</ele>
        <time>2025-07-04T09:30:58Z</time>
      </trkpt>
      <trkpt lat="46.23107" lon="-1.48003">
        <ele>6.6</ele>
        <time>2025-07-04T09:31:02Z</time>
      </trkpt>
      <trkpt lat="46.23106" lon="-1.48011">
        <ele>6.8</ele>
        <time>2025-07-04T09:31:06Z</time>
      </trkpt>
      <trkpt lat="46.23102" lon="-1.48026">
        <ele>6.8</ele>
        <time>2025-07-04T09:31:14Z</time>
      </trkpt>
      <trkpt lat="46.23101" lon="-1.48028">
        <ele>6.8</ele>
        <time>2025-07-04T09:31:15Z</time>
      </trkpt>
      <trkpt lat="46.23096" lon="-1.48035">
        <ele>6.8</ele>
        <time>2025-07-04T09:31:20Z</time>
      </trkpt>
      <trkpt lat="46.23094" lon="-1.48037">
        <ele>6.6</ele>
        <time>2025-07-04T09:31:23Z</time>
      </trkpt>
      <trkpt lat="46.23093" lon="-1.48039">
        <ele>6.6</ele>
        <time>2025-07-04T09:31:24Z</time>
      </trkpt>
      <trkpt lat="46.23092" lon="-1.48041">
        <ele>6.4</ele>
        <time>2025-07-04T09:31:25Z</time>
      </trkpt>
      <trkpt lat="46.23087" lon="-1.48048">
        <ele>6.2</ele>
        <time>2025-07-04T09:31:29Z</time>
      </trkpt>
      <trkpt lat="46.2308" lon="-1.48062">
        <ele>6.4</ele>
        <time>2025-07-04T09:31:37Z</time>
      </trkpt>
      <trkpt lat="46.23078" lon="-1.48063">
        <ele>6.4</ele>
        <time>2025-07-04T09:31:38Z</time>
      </trkpt>
      <trkpt lat="46.23075" lon="-1.4807">
        <ele>6.2</ele>
        <time>2025-07-04T09:31:42Z</time>
      </trkpt>
      <trkpt lat="46.23075" lon="-1.48071">
        <ele>6.2</ele>
        <time>2025-07-04T09:31:43Z</time>
      </trkpt>
      <trkpt lat="46.23074" lon="-1.48072">
        <ele>6.2</ele>
        <time>2025-07-04T09:31:44Z</time>
      </trkpt>
      <trkpt lat="46.2307" lon="-1.48075">
        <ele>6.4</ele>
        <time>2025-07-04T09:31:47Z</time>
      </trkpt>
      <trkpt lat="46.23062" lon="-1.48084">
        <ele>7</ele>
        <time>2025-07-04T09:31:54Z</time>
      </trkpt>
      <trkpt lat="46.23062" lon="-1.48086">
        <ele>7</ele>
        <time>2025-07-04T09:31:55Z</time>
      </trkpt>
      <trkpt lat="46.2306" lon="-1.48089">
        <ele>7.2</ele>
        <time>2025-07-04T09:31:57Z</time>
      </trkpt>
      <trkpt lat="46.23058" lon="-1.48091">
        <ele>7.2</ele>
        <time>2025-07-04T09:31:59Z</time>
      </trkpt>
      <trkpt lat="46.23057" lon="-1.48093">
        <ele>7.6</ele>
        <time>2025-07-04T09:32:01Z</time>
      </trkpt>
      <trkpt lat="46.23047" lon="-1.48102">
        <ele>8</ele>
        <time>2025-07-04T09:32:09Z</time>
      </trkpt>
      <trkpt lat="46.23044" lon="-1.48104">
        <ele>8</ele>
        <time>2025-07-04T09:32:12Z</time>
      </trkpt>
      <trkpt lat="46.2304" lon="-1.48107">
        <ele>8.2</ele>
        <time>2025-07-04T09:32:15Z</time>
      </trkpt>
      <trkpt lat="46.23037" lon="-1.48111">
        <ele>8.2</ele>
        <time>2025-07-04T09:32:19Z</time>
      </trkpt>
      <trkpt lat="46.23027" lon="-1.48118">
        <ele>8.2</ele>
        <time>2025-07-04T09:32:27Z</time>
      </trkpt>
      <trkpt lat="46.23026" lon="-1.48118">
        <ele>8.2</ele>
        <time>2025-07-04T09:32:28Z</time>
      </trkpt>
      <trkpt lat="46.23016" lon="-1.48121">
        <ele>8.2</ele>
        <time>2025-07-04T09:32:34Z</time>
      </trkpt>
      <trkpt lat="46.23012" lon="-1.48123">
        <ele>8.2</ele>
        <time>2025-07-04T09:32:37Z</time>
      </trkpt>
      <trkpt lat="46.23005" lon="-1.48128">
        <ele>8.2</ele>
        <time>2025-07-04T09:32:44Z</time>
      </trkpt>
      <trkpt lat="46.22993" lon="-1.48138">
        <ele>8.2</ele>
        <time>2025-07-04T09:32:53Z</time>
      </trkpt>
      <trkpt lat="46.22987" lon="-1.48145">
        <ele>8.2</ele>
        <time>2025-07-04T09:33:00Z</time>
      </trkpt>
      <trkpt lat="46.22977" lon="-1.48155">
        <ele>8.2</ele>
        <time>2025-07-04T09:33:09Z</time>
      </trkpt>
      <trkpt lat="46.22965" lon="-1.48166">
        <ele>8.2</ele>
        <time>2025-07-04T09:33:19Z</time>
      </trkpt>
      <trkpt lat="46.22963" lon="-1.48168">
        <ele>8.2</ele>
        <time>2025-07-04T09:33:21Z</time>
      </trkpt>
      <trkpt lat="46.22957" lon="-1.48173">
        <ele>8.4</ele>
        <time>2025-07-04T09:33:25Z</time>
      </trkpt>
      <trkpt lat="46.22948" lon="-1.48182">
        <ele>8.4</ele>
        <time>2025-07-04T09:33:32Z</time>
      </trkpt>
      <trkpt lat="46.22946" lon="-1.48186">
        <ele>8.6</ele>
        <time>2025-07-04T09:33:35Z</time>
      </trkpt>
      <trkpt lat="46.22942" lon="-1.48185">
        <ele>8.6</ele>
        <time>2025-07-04T09:33:38Z</time>
      </trkpt>
      <trkpt lat="46.22938" lon="-1.48189">
        <ele>8.6</ele>
        <time>2025-07-04T09:33:44Z</time>
      </trkpt>
      <trkpt lat="46.22936" lon="-1.4819">
        <ele>8.8</ele>
        <time>2025-07-04T09:33:47Z</time>
      </trkpt>
      <trkpt lat="46.22931" lon="-1.48189">
        <ele>9</ele>
        <time>2025-07-04T09:33:50Z</time>
      </trkpt>
      <trkpt lat="46.22924" lon="-1.4819">
        <ele>9</ele>
        <time>2025-07-04T09:33:56Z</time>
      </trkpt>
      <trkpt lat="46.22921" lon="-1.48192">
        <ele>9.2</ele>
        <time>2025-07-04T09:34:00Z</time>
      </trkpt>
      <trkpt lat="46.2292" lon="-1.48191">
        <ele>9.2</ele>
        <time>2025-07-04T09:34:01Z</time>
      </trkpt>
      <trkpt lat="46.22911" lon="-1.48191">
        <ele>9.4</ele>
        <time>2025-07-04T09:34:08Z</time>
      </trkpt>
      <trkpt lat="46.22907" lon="-1.48191">
        <ele>9.8</ele>
        <time>2025-07-04T09:34:11Z</time>
      </trkpt>
      <trkpt lat="46.229" lon="-1.48192">
        <ele>9.8</ele>
        <time>2025-07-04T09:34:16Z</time>
      </trkpt>
      <trkpt lat="46.22892" lon="-1.48194">
        <ele>9.4</ele>
        <time>2025-07-04T09:34:22Z</time>
      </trkpt>
      <trkpt lat="46.2289" lon="-1.48195">
        <ele>9.4</ele>
        <time>2025-07-04T09:34:24Z</time>
      </trkpt>
      <trkpt lat="46.22888" lon="-1.48196">
        <ele>9.2</ele>
        <time>2025-07-04T09:34:26Z</time>
      </trkpt>
      <trkpt lat="46.22881" lon="-1.48196">
        <ele>9</ele>
        <time>2025-07-04T09:34:30Z</time>
      </trkpt>
      <trkpt lat="46.22873" lon="-1.48201">
        <ele>8.6</ele>
        <time>2025-07-04T09:34:35Z</time>
      </trkpt>
      <trkpt lat="46.2287" lon="-1.48205">
        <ele>8.2</ele>
        <time>2025-07-04T09:34:38Z</time>
      </trkpt>
      <trkpt lat="46.22865" lon="-1.48218">
        <ele>8</ele>
        <time>2025-07-04T09:34:45Z</time>
      </trkpt>
      <trkpt lat="46.22862" lon="-1.48232">
        <ele>7.6</ele>
        <time>2025-07-04T09:34:52Z</time>
      </trkpt>
      <trkpt lat="46.22862" lon="-1.4824">
        <ele>7.4</ele>
        <time>2025-07-04T09:34:57Z</time>
      </trkpt>
      <trkpt lat="46.22862" lon="-1.48242">
        <ele>7.4</ele>
        <time>2025-07-04T09:34:58Z</time>
      </trkpt>
      <trkpt lat="46.22859" lon="-1.48247">
        <ele>7.2</ele>
        <time>2025-07-04T09:35:01Z</time>
      </trkpt>
      <trkpt lat="46.22852" lon="-1.48262">
        <ele>7.8</ele>
        <time>2025-07-04T09:35:11Z</time>
      </trkpt>
      <trkpt lat="46.22851" lon="-1.48265">
        <ele>8</ele>
        <time>2025-07-04T09:35:13Z</time>
      </trkpt>
      <trkpt lat="46.2285" lon="-1.48271">
        <ele>8</ele>
        <time>2025-07-04T09:35:16Z</time>
      </trkpt>
      <trkpt lat="46.2285" lon="-1.48275">
        <ele>8</ele>
        <time>2025-07-04T09:35:18Z</time>
      </trkpt>
      <trkpt lat="46.2285" lon="-1.48277">
        <ele>8</ele>
        <time>2025-07-04T09:35:19Z</time>
      </trkpt>
      <trkpt lat="46.2285" lon="-1.48282">
        <ele>7.8</ele>
        <time>2025-07-04T09:35:22Z</time>
      </trkpt>
      <trkpt lat="46.2285" lon="-1.48284">
        <ele>7.8</ele>
        <time>2025-07-04T09:35:23Z</time>
      </trkpt>
      <trkpt lat="46.22848" lon="-1.48298">
        <ele>7.6</ele>
        <time>2025-07-04T09:35:30Z</time>
      </trkpt>
      <trkpt lat="46.22847" lon="-1.48318">
        <ele>7.4</ele>
        <time>2025-07-04T09:35:40Z</time>
      </trkpt>
      <trkpt lat="46.22846" lon="-1.48329">
        <ele>7.4</ele>
        <time>2025-07-04T09:35:46Z</time>
      </trkpt>
      <trkpt lat="46.22846" lon="-1.48331">
        <ele>7.4</ele>
        <time>2025-07-04T09:35:47Z</time>
      </trkpt>
      <trkpt lat="46.22845" lon="-1.48333">
        <ele>7.4</ele>
        <time>2025-07-04T09:35:48Z</time>
      </trkpt>
      <trkpt lat="46.22842" lon="-1.48352">
        <ele>7.2</ele>
        <time>2025-07-04T09:35:58Z</time>
      </trkpt>
      <trkpt lat="46.2284" lon="-1.48373">
        <ele>7.2</ele>
        <time>2025-07-04T09:36:08Z</time>
      </trkpt>
      <trkpt lat="46.22837" lon="-1.48393">
        <ele>7.2</ele>
        <time>2025-07-04T09:36:18Z</time>
      </trkpt>
      <trkpt lat="46.22835" lon="-1.48421">
        <ele>7.2</ele>
        <time>2025-07-04T09:36:31Z</time>
      </trkpt>
      <trkpt lat="46.22834" lon="-1.48446">
        <ele>6.8</ele>
        <time>2025-07-04T09:36:43Z</time>
      </trkpt>
      <trkpt lat="46.22834" lon="-1.48447">
        <ele>6.8</ele>
        <time>2025-07-04T09:36:44Z</time>
      </trkpt>
      <trkpt lat="46.22831" lon="-1.48462">
        <ele>7</ele>
        <time>2025-07-04T09:36:51Z</time>
      </trkpt>
      <trkpt lat="46.2283" lon="-1.48478">
        <ele>6.8</ele>
        <time>2025-07-04T09:36:59Z</time>
      </trkpt>
      <trkpt lat="46.2283" lon="-1.48497">
        <ele>6.8</ele>
        <time>2025-07-04T09:37:08Z</time>
      </trkpt>
      <trkpt lat="46.2283" lon="-1.48499">
        <ele>6.8</ele>
        <time>2025-07-04T09:37:09Z</time>
      </trkpt>
      <trkpt lat="46.22832" lon="-1.48509">
        <ele>6.6</ele>
        <time>2025-07-04T09:37:14Z</time>
      </trkpt>
      <trkpt lat="46.22837" lon="-1.48529">
        <ele>6.4</ele>
        <time>2025-07-04T09:37:24Z</time>
      </trkpt>
      <trkpt lat="46.22843" lon="-1.48544">
        <ele>6.2</ele>
        <time>2025-07-04T09:37:33Z</time>
      </trkpt>
      <trkpt lat="46.22843" lon="-1.48546">
        <ele>6.2</ele>
        <time>2025-07-04T09:37:34Z</time>
      </trkpt>
      <trkpt lat="46.2285" lon="-1.48569">
        <ele>6</ele>
        <time>2025-07-04T09:37:46Z</time>
      </trkpt>
      <trkpt lat="46.22854" lon="-1.48595">
        <ele>6.4</ele>
        <time>2025-07-04T09:37:59Z</time>
      </trkpt>
      <trkpt lat="46.22857" lon="-1.48615">
        <ele>6.2</ele>
        <time>2025-07-04T09:38:09Z</time>
      </trkpt>
      <trkpt lat="46.22857" lon="-1.48638">
        <ele>6.2</ele>
        <time>2025-07-04T09:38:21Z</time>
      </trkpt>
      <trkpt lat="46.22854" lon="-1.48654">
        <ele>6</ele>
        <time>2025-07-04T09:38:29Z</time>
      </trkpt>
      <trkpt lat="46.2285" lon="-1.48676">
        <ele>5.8</ele>
        <time>2025-07-04T09:38:40Z</time>
      </trkpt>
      <trkpt lat="46.22849" lon="-1.48703">
        <ele>6</ele>
        <time>2025-07-04T09:38:53Z</time>
      </trkpt>
      <trkpt lat="46.2285" lon="-1.48713">
        <ele>6.4</ele>
        <time>2025-07-04T09:38:58Z</time>
      </trkpt>
      <trkpt lat="46.22851" lon="-1.48724">
        <ele>6.2</ele>
        <time>2025-07-04T09:39:04Z</time>
      </trkpt>
      <trkpt lat="46.22854" lon="-1.4875">
        <ele>5.8</ele>
        <time>2025-07-04T09:39:17Z</time>
      </trkpt>
      <trkpt lat="46.22854" lon="-1.48752">
        <ele>5.8</ele>
        <time>2025-07-04T09:39:18Z</time>
      </trkpt>
      <trkpt lat="46.22855" lon="-1.48761">
        <ele>5.6</ele>
        <time>2025-07-04T09:39:23Z</time>
      </trkpt>
      <trkpt lat="46.22854" lon="-1.48769">
        <ele>5.4</ele>
        <time>2025-07-04T09:39:27Z</time>
      </trkpt>
      <trkpt lat="46.22854" lon="-1.48773">
        <ele>5.6</ele>
        <time>2025-07-04T09:39:29Z</time>
      </trkpt>
      <trkpt lat="46.22857" lon="-1.48797">
        <ele>5.4</ele>
        <time>2025-07-04T09:39:40Z</time>
      </trkpt>
      <trkpt lat="46.22859" lon="-1.48813">
        <ele>5.4</ele>
        <time>2025-07-04T09:39:48Z</time>
      </trkpt>
      <trkpt lat="46.22865" lon="-1.48829">
        <ele>5.6</ele>
        <time>2025-07-04T09:39:57Z</time>
      </trkpt>
      <trkpt lat="46.2287" lon="-1.4885">
        <ele>5.2</ele>
        <time>2025-07-04T09:40:09Z</time>
      </trkpt>
      <trkpt lat="46.22874" lon="-1.48867">
        <ele>5.2</ele>
        <time>2025-07-04T09:40:18Z</time>
      </trkpt>
      <trkpt lat="46.22879" lon="-1.48892">
        <ele>5.6</ele>
        <time>2025-07-04T09:40:30Z</time>
      </trkpt>
      <trkpt lat="46.22882" lon="-1.48908">
        <ele>5.4</ele>
        <time>2025-07-04T09:40:38Z</time>
      </trkpt>
      <trkpt lat="46.22885" lon="-1.48926">
        <ele>5.4</ele>
        <time>2025-07-04T09:40:47Z</time>
      </trkpt>
      <trkpt lat="46.22885" lon="-1.48928">
        <ele>5.2</ele>
        <time>2025-07-04T09:40:48Z</time>
      </trkpt>
      <trkpt lat="46.22887" lon="-1.48935">
        <ele>5.8</ele>
        <time>2025-07-04T09:40:52Z</time>
      </trkpt>
      <trkpt lat="46.2289" lon="-1.48946">
        <ele>6.2</ele>
        <time>2025-07-04T09:40:57Z</time>
      </trkpt>
      <trkpt lat="46.2289" lon="-1.48954">
        <ele>5.6</ele>
        <time>2025-07-04T09:41:01Z</time>
      </trkpt>
      <trkpt lat="46.22892" lon="-1.48966">
        <ele>5.2</ele>
        <time>2025-07-04T09:41:07Z</time>
      </trkpt>
      <trkpt lat="46.22893" lon="-1.48971">
        <ele>5.2</ele>
        <time>2025-07-04T09:41:10Z</time>
      </trkpt>
      <trkpt lat="46.22895" lon="-1.48991">
        <ele>5.4</ele>
        <time>2025-07-04T09:41:19Z</time>
      </trkpt>
      <trkpt lat="46.22899" lon="-1.49013">
        <ele>5.2</ele>
        <time>2025-07-04T09:41:30Z</time>
      </trkpt>
      <trkpt lat="46.22903" lon="-1.49039">
        <ele>5.4</ele>
        <time>2025-07-04T09:41:43Z</time>
      </trkpt>
      <trkpt lat="46.22904" lon="-1.49043">
        <ele>5.4</ele>
        <time>2025-07-04T09:41:45Z</time>
      </trkpt>
      <trkpt lat="46.22909" lon="-1.49067">
        <ele>5.4</ele>
        <time>2025-07-04T09:41:57Z</time>
      </trkpt>
      <trkpt lat="46.22912" lon="-1.49084">
        <ele>5.4</ele>
        <time>2025-07-04T09:42:06Z</time>
      </trkpt>
      <trkpt lat="46.22917" lon="-1.49103">
        <ele>5.6</ele>
        <time>2025-07-04T09:42:17Z</time>
      </trkpt>
      <trkpt lat="46.22917" lon="-1.49105">
        <ele>5.6</ele>
        <time>2025-07-04T09:42:18Z</time>
      </trkpt>
      <trkpt lat="46.22921" lon="-1.49123">
        <ele>5.4</ele>
        <time>2025-07-04T09:42:29Z</time>
      </trkpt>
      <trkpt lat="46.22923" lon="-1.49128">
        <ele>5.6</ele>
        <time>2025-07-04T09:42:36Z</time>
      </trkpt>
      <trkpt lat="46.22923" lon="-1.4913">
        <ele>5.6</ele>
        <time>2025-07-04T09:42:42Z</time>
      </trkpt>
      <trkpt lat="46.22926" lon="-1.49142">
        <ele>5.2</ele>
        <time>2025-07-04T09:42:49Z</time>
      </trkpt>
      <trkpt lat="46.22927" lon="-1.49143">
        <ele>5.2</ele>
        <time>2025-07-04T09:42:54Z</time>
      </trkpt>
      <trkpt lat="46.22928" lon="-1.49144">
        <ele>5.2</ele>
        <time>2025-07-04T09:42:55Z</time>
      </trkpt>
      <trkpt lat="46.22931" lon="-1.49151">
        <ele>5</ele>
        <time>2025-07-04T09:43:00Z</time>
      </trkpt>
      <trkpt lat="46.22936" lon="-1.49166">
        <ele>4.8</ele>
        <time>2025-07-04T09:43:09Z</time>
      </trkpt>
      <trkpt lat="46.22942" lon="-1.49188">
        <ele>5.4</ele>
        <time>2025-07-04T09:43:21Z</time>
      </trkpt>
      <trkpt lat="46.22951" lon="-1.49204">
        <ele>5.6</ele>
        <time>2025-07-04T09:43:31Z</time>
      </trkpt>
      <trkpt lat="46.22957" lon="-1.49214">
        <ele>5.6</ele>
        <time>2025-07-04T09:43:38Z</time>
      </trkpt>
      <trkpt lat="46.22966" lon="-1.4923">
        <ele>5.4</ele>
        <time>2025-07-04T09:43:48Z</time>
      </trkpt>
      <trkpt lat="46.22978" lon="-1.49244">
        <ele>5.6</ele>
        <time>2025-07-04T09:43:59Z</time>
      </trkpt>
      <trkpt lat="46.22989" lon="-1.49255">
        <ele>5.8</ele>
        <time>2025-07-04T09:44:08Z</time>
      </trkpt>
      <trkpt lat="46.22999" lon="-1.49264">
        <ele>5.8</ele>
        <time>2025-07-04T09:44:16Z</time>
      </trkpt>
      <trkpt lat="46.23014" lon="-1.49273">
        <ele>5.8</ele>
        <time>2025-07-04T09:44:27Z</time>
      </trkpt>
      <trkpt lat="46.23026" lon="-1.49279">
        <ele>5.8</ele>
        <time>2025-07-04T09:44:36Z</time>
      </trkpt>
      <trkpt lat="46.23034" lon="-1.49284">
        <ele>5.8</ele>
        <time>2025-07-04T09:44:42Z</time>
      </trkpt>
      <trkpt lat="46.23035" lon="-1.49285">
        <ele>5.8</ele>
        <time>2025-07-04T09:44:43Z</time>
      </trkpt>
      <trkpt lat="46.2304" lon="-1.49288">
        <ele>5.8</ele>
        <time>2025-07-04T09:44:46Z</time>
      </trkpt>
      <trkpt lat="46.23042" lon="-1.49288">
        <ele>5.6</ele>
        <time>2025-07-04T09:44:48Z</time>
      </trkpt>
      <trkpt lat="46.23056" lon="-1.49295">
        <ele>6</ele>
        <time>2025-07-04T09:44:57Z</time>
      </trkpt>
      <trkpt lat="46.2307" lon="-1.493">
        <ele>5.6</ele>
        <time>2025-07-04T09:45:08Z</time>
      </trkpt>
      <trkpt lat="46.23072" lon="-1.49301">
        <ele>5.8</ele>
        <time>2025-07-04T09:45:10Z</time>
      </trkpt>
      <trkpt lat="46.23085" lon="-1.49306">
        <ele>6</ele>
        <time>2025-07-04T09:45:20Z</time>
      </trkpt>
      <trkpt lat="46.23097" lon="-1.49311">
        <ele>6.4</ele>
        <time>2025-07-04T09:45:29Z</time>
      </trkpt>
      <trkpt lat="46.23112" lon="-1.49315">
        <ele>6.4</ele>
        <time>2025-07-04T09:45:39Z</time>
      </trkpt>
      <trkpt lat="46.23123" lon="-1.49324">
        <ele>6.2</ele>
        <time>2025-07-04T09:45:48Z</time>
      </trkpt>
      <trkpt lat="46.23137" lon="-1.49331">
        <ele>5.8</ele>
        <time>2025-07-04T09:45:58Z</time>
      </trkpt>
      <trkpt lat="46.23141" lon="-1.49332">
        <ele>5.8</ele>
        <time>2025-07-04T09:46:01Z</time>
      </trkpt>
      <trkpt lat="46.23142" lon="-1.49332">
        <ele>5.8</ele>
        <time>2025-07-04T09:46:02Z</time>
      </trkpt>
      <trkpt lat="46.23152" lon="-1.49332">
        <ele>6.2</ele>
        <time>2025-07-04T09:46:09Z</time>
      </trkpt>
      <trkpt lat="46.23158" lon="-1.49332">
        <ele>6.2</ele>
        <time>2025-07-04T09:46:14Z</time>
      </trkpt>
      <trkpt lat="46.23162" lon="-1.49331">
        <ele>6.2</ele>
        <time>2025-07-04T09:46:17Z</time>
      </trkpt>
      <trkpt lat="46.23164" lon="-1.49331">
        <ele>6.4</ele>
        <time>2025-07-04T09:46:18Z</time>
      </trkpt>
      <trkpt lat="46.2317" lon="-1.49333">
        <ele>6.2</ele>
        <time>2025-07-04T09:46:23Z</time>
      </trkpt>
      <trkpt lat="46.23181" lon="-1.49344">
        <ele>6.2</ele>
        <time>2025-07-04T09:46:32Z</time>
      </trkpt>
      <trkpt lat="46.23192" lon="-1.49353">
        <ele>6.4</ele>
        <time>2025-07-04T09:46:41Z</time>
      </trkpt>
      <trkpt lat="46.23197" lon="-1.49359">
        <ele>6.8</ele>
        <time>2025-07-04T09:46:46Z</time>
      </trkpt>
      <trkpt lat="46.23205" lon="-1.49365">
        <ele>6.6</ele>
        <time>2025-07-04T09:46:52Z</time>
      </trkpt>
      <trkpt lat="46.23213" lon="-1.4938">
        <ele>6.2</ele>
        <time>2025-07-04T09:47:01Z</time>
      </trkpt>
      <trkpt lat="46.23221" lon="-1.49402">
        <ele>5.8</ele>
        <time>2025-07-04T09:47:13Z</time>
      </trkpt>
      <trkpt lat="46.23226" lon="-1.49417">
        <ele>5.8</ele>
        <time>2025-07-04T09:47:21Z</time>
      </trkpt>
      <trkpt lat="46.23227" lon="-1.49421">
        <ele>5.8</ele>
        <time>2025-07-04T09:47:23Z</time>
      </trkpt>
      <trkpt lat="46.2323" lon="-1.49429">
        <ele>5.6</ele>
        <time>2025-07-04T09:47:27Z</time>
      </trkpt>
      <trkpt lat="46.23231" lon="-1.4943">
        <ele>5.6</ele>
        <time>2025-07-04T09:47:28Z</time>
      </trkpt>
      <trkpt lat="46.23235" lon="-1.49444">
        <ele>5.8</ele>
        <time>2025-07-04T09:47:35Z</time>
      </trkpt>
      <trkpt lat="46.23235" lon="-1.49448">
        <ele>5.8</ele>
        <time>2025-07-04T09:47:37Z</time>
      </trkpt>
      <trkpt lat="46.23239" lon="-1.49463">
        <ele>6.2</ele>
        <time>2025-07-04T09:47:45Z</time>
      </trkpt>
      <trkpt lat="46.23247" lon="-1.49477">
        <ele>6</ele>
        <time>2025-07-04T09:47:54Z</time>
      </trkpt>
      <trkpt lat="46.23258" lon="-1.49486">
        <ele>6</ele>
        <time>2025-07-04T09:48:03Z</time>
      </trkpt>
      <trkpt lat="46.2327" lon="-1.49491">
        <ele>6</ele>
        <time>2025-07-04T09:48:11Z</time>
      </trkpt>
      <trkpt lat="46.23284" lon="-1.49496">
        <ele>5.8</ele>
        <time>2025-07-04T09:48:22Z</time>
      </trkpt>
      <trkpt lat="46.23298" lon="-1.49501">
        <ele>6</ele>
        <time>2025-07-04T09:48:32Z</time>
      </trkpt>
      <trkpt lat="46.23315" lon="-1.49501">
        <ele>5.8</ele>
        <time>2025-07-04T09:48:43Z</time>
      </trkpt>
      <trkpt lat="46.23329" lon="-1.49497">
        <ele>6</ele>
        <time>2025-07-04T09:48:53Z</time>
      </trkpt>
      <trkpt lat="46.23341" lon="-1.49491">
        <ele>5.4</ele>
        <time>2025-07-04T09:49:02Z</time>
      </trkpt>
      <trkpt lat="46.23355" lon="-1.49482">
        <ele>6.2</ele>
        <time>2025-07-04T09:49:13Z</time>
      </trkpt>
      <trkpt lat="46.23369" lon="-1.49482">
        <ele>6.6</ele>
        <time>2025-07-04T09:49:23Z</time>
      </trkpt>
      <trkpt lat="46.23373" lon="-1.49482">
        <ele>6.6</ele>
        <time>2025-07-04T09:49:25Z</time>
      </trkpt>
      <trkpt lat="46.23388" lon="-1.49484">
        <ele>6</ele>
        <time>2025-07-04T09:49:36Z</time>
      </trkpt>
      <trkpt lat="46.23405" lon="-1.49483">
        <ele>5.8</ele>
        <time>2025-07-04T09:49:49Z</time>
      </trkpt>
      <trkpt lat="46.2342" lon="-1.49482">
        <ele>6</ele>
        <time>2025-07-04T09:49:58Z</time>
      </trkpt>
      <trkpt lat="46.23437" lon="-1.49482">
        <ele>6.2</ele>
        <time>2025-07-04T09:50:10Z</time>
      </trkpt>
      <trkpt lat="46.23452" lon="-1.49483">
        <ele>5.8</ele>
        <time>2025-07-04T09:50:21Z</time>
      </trkpt>
      <trkpt lat="46.23471" lon="-1.49485">
        <ele>5.8</ele>
        <time>2025-07-04T09:50:34Z</time>
      </trkpt>
      <trkpt lat="46.23472" lon="-1.49486">
        <ele>6</ele>
        <time>2025-07-04T09:50:35Z</time>
      </trkpt>
      <trkpt lat="46.23486" lon="-1.49487">
        <ele>5.8</ele>
        <time>2025-07-04T09:50:45Z</time>
      </trkpt>
      <trkpt lat="46.235" lon="-1.49492">
        <ele>6.2</ele>
        <time>2025-07-04T09:50:55Z</time>
      </trkpt>
      <trkpt lat="46.23501" lon="-1.49495">
        <ele>5.8</ele>
        <time>2025-07-04T09:50:57Z</time>
      </trkpt>
      <trkpt lat="46.23502" lon="-1.49497">
        <ele>5.6</ele>
        <time>2025-07-04T09:50:58Z</time>
      </trkpt>
      <trkpt lat="46.23502" lon="-1.49503">
        <ele>5.4</ele>
        <time>2025-07-04T09:51:01Z</time>
      </trkpt>
      <trkpt lat="46.23501" lon="-1.49525">
        <ele>5.2</ele>
        <time>2025-07-04T09:51:12Z</time>
      </trkpt>
      <trkpt lat="46.23501" lon="-1.49528">
        <ele>5.2</ele>
        <time>2025-07-04T09:51:14Z</time>
      </trkpt>
      <trkpt lat="46.235" lon="-1.49531">
        <ele>4.6</ele>
        <time>2025-07-04T09:51:45Z</time>
      </trkpt>
      <trkpt lat="46.235" lon="-1.49531">
        <ele>4.4</ele>
        <time>2025-07-04T09:51:48Z</time>
      </trkpt>
      <trkpt lat="46.235" lon="-1.49531">
        <ele>5.2</ele>
        <time>2025-07-04T09:51:57Z</time>
      </trkpt>
      <trkpt lat="46.23501" lon="-1.49535">
        <ele>5</ele>
        <time>2025-07-04T09:52:00Z</time>
      </trkpt>
      <trkpt lat="46.23501" lon="-1.49541">
        <ele>4.8</ele>
        <time>2025-07-04T09:52:02Z</time>
      </trkpt>
      <trkpt lat="46.23501" lon="-1.49565">
        <ele>4.6</ele>
        <time>2025-07-04T09:52:11Z</time>
      </trkpt>
      <trkpt lat="46.235" lon="-1.49585">
        <ele>4.6</ele>
        <time>2025-07-04T09:52:20Z</time>
      </trkpt>
      <trkpt lat="46.235" lon="-1.49607">
        <ele>4.2</ele>
        <time>2025-07-04T09:52:30Z</time>
      </trkpt>
      <trkpt lat="46.235" lon="-1.49616">
        <ele>4.2</ele>
        <time>2025-07-04T09:52:35Z</time>
      </trkpt>
      <trkpt lat="46.235" lon="-1.49624">
        <ele>4.2</ele>
        <time>2025-07-04T09:52:39Z</time>
      </trkpt>
      <trkpt lat="46.23501" lon="-1.49635">
        <ele>4</ele>
        <time>2025-07-04T09:52:45Z</time>
      </trkpt>
      <trkpt lat="46.23502" lon="-1.49639">
        <ele>4.6</ele>
        <time>2025-07-04T09:53:01Z</time>
      </trkpt>
      <trkpt lat="46.23502" lon="-1.49639">
        <ele>4.6</ele>
        <time>2025-07-04T09:53:02Z</time>
      </trkpt>
      <trkpt lat="46.23497" lon="-1.49645">
        <ele>4.4</ele>
        <time>2025-07-04T09:53:07Z</time>
      </trkpt>
      <trkpt lat="46.23494" lon="-1.49658">
        <ele>4.4</ele>
        <time>2025-07-04T09:53:14Z</time>
      </trkpt>
      <trkpt lat="46.23494" lon="-1.49667">
        <ele>4.2</ele>
        <time>2025-07-04T09:53:19Z</time>
      </trkpt>
      <trkpt lat="46.23494" lon="-1.49682">
        <ele>4</ele>
        <time>2025-07-04T09:53:26Z</time>
      </trkpt>
      <trkpt lat="46.23494" lon="-1.49689">
        <ele>3.8</ele>
        <time>2025-07-04T09:53:30Z</time>
      </trkpt>
      <trkpt lat="46.23493" lon="-1.497">
        <ele>3.8</ele>
        <time>2025-07-04T09:53:36Z</time>
      </trkpt>
      <trkpt lat="46.23492" lon="-1.49708">
        <ele>3.6</ele>
        <time>2025-07-04T09:53:40Z</time>
      </trkpt>
      <trkpt lat="46.23491" lon="-1.49715">
        <ele>3.4</ele>
        <time>2025-07-04T09:53:45Z</time>
      </trkpt>
      <trkpt lat="46.23491" lon="-1.49716">
        <ele>3.4</ele>
        <time>2025-07-04T09:53:46Z</time>
      </trkpt>
      <trkpt lat="46.23493" lon="-1.49716">
        <ele>3.4</ele>
        <time>2025-07-04T09:53:49Z</time>
      </trkpt>
      <trkpt lat="46.23493" lon="-1.49716">
        <ele>4</ele>
        <time>2025-07-04T09:53:57Z</time>
      </trkpt>
      <trkpt lat="46.23493" lon="-1.49716">
        <ele>3.8</ele>
        <time>2025-07-04T09:54:00Z</time>
      </trkpt>
      <trkpt lat="46.23493" lon="-1.49716">
        <ele>3.6</ele>
        <time>2025-07-04T09:54:04Z</time>
      </trkpt>
      <trkpt lat="46.23491" lon="-1.49722">
        <ele>3.4</ele>
        <time>2025-07-04T09:54:09Z</time>
      </trkpt>
      <trkpt lat="46.23487" lon="-1.49742">
        <ele>3.4</ele>
        <time>2025-07-04T09:54:19Z</time>
      </trkpt>
      <trkpt lat="46.23486" lon="-1.49746">
        <ele>3.4</ele>
        <time>2025-07-04T09:54:21Z</time>
      </trkpt>
      <trkpt lat="46.23487" lon="-1.49756">
        <ele>3.4</ele>
        <time>2025-07-04T09:54:26Z</time>
      </trkpt>
      <trkpt lat="46.23487" lon="-1.49763">
        <ele>3.4</ele>
        <time>2025-07-04T09:54:30Z</time>
      </trkpt>
      <trkpt lat="46.23488" lon="-1.49772">
        <ele>3.4</ele>
        <time>2025-07-04T09:54:35Z</time>
      </trkpt>
      <trkpt lat="46.23489" lon="-1.49775">
        <ele>3.4</ele>
        <time>2025-07-04T09:54:37Z</time>
      </trkpt>
      <trkpt lat="46.23489" lon="-1.49779">
        <ele>3.4</ele>
        <time>2025-07-04T09:54:39Z</time>
      </trkpt>
      <trkpt lat="46.23492" lon="-1.49792">
        <ele>3</ele>
        <time>2025-07-04T09:54:48Z</time>
      </trkpt>
      <trkpt lat="46.23493" lon="-1.4979">
        <ele>3.2</ele>
        <time>2025-07-04T09:54:52Z</time>
      </trkpt>
      <trkpt lat="46.23493" lon="-1.4979">
        <ele>3.6</ele>
        <time>2025-07-04T09:54:55Z</time>
      </trkpt>
      <trkpt lat="46.23492" lon="-1.4979">
        <ele>3.4</ele>
        <time>2025-07-04T09:55:07Z</time>
      </trkpt>
      <trkpt lat="46.23492" lon="-1.4979">
        <ele>3.2</ele>
        <time>2025-07-04T09:55:09Z</time>
      </trkpt>
      <trkpt lat="46.23493" lon="-1.498">
        <ele>3.6</ele>
        <time>2025-07-04T09:55:27Z</time>
      </trkpt>
      <trkpt lat="46.23494" lon="-1.4981">
        <ele>3.4</ele>
        <time>2025-07-04T09:55:32Z</time>
      </trkpt>
      <trkpt lat="46.23495" lon="-1.4981">
        <ele>3.8</ele>
        <time>2025-07-04T09:55:34Z</time>
      </trkpt>
      <trkpt lat="46.23495" lon="-1.49817">
        <ele>3.8</ele>
        <time>2025-07-04T09:55:42Z</time>
      </trkpt>
      <trkpt lat="46.23494" lon="-1.49821">
        <ele>3.8</ele>
        <time>2025-07-04T09:55:45Z</time>
      </trkpt>
      <trkpt lat="46.23495" lon="-1.49821">
        <ele>3.8</ele>
        <time>2025-07-04T09:55:48Z</time>
      </trkpt>
      <trkpt lat="46.23496" lon="-1.49829">
        <ele>3.6</ele>
        <time>2025-07-04T09:55:59Z</time>
      </trkpt>
      <trkpt lat="46.23498" lon="-1.4984">
        <ele>4</ele>
        <time>2025-07-04T09:56:06Z</time>
      </trkpt>
      <trkpt lat="46.23499" lon="-1.49845">
        <ele>4</ele>
        <time>2025-07-04T09:56:09Z</time>
      </trkpt>
      <trkpt lat="46.23499" lon="-1.49855">
        <ele>3.8</ele>
        <time>2025-07-04T09:56:15Z</time>
      </trkpt>
      <trkpt lat="46.23499" lon="-1.49858">
        <ele>4</ele>
        <time>2025-07-04T09:56:17Z</time>
      </trkpt>
      <trkpt lat="46.23504" lon="-1.49871">
        <ele>4.2</ele>
        <time>2025-07-04T09:56:24Z</time>
      </trkpt>
      <trkpt lat="46.23511" lon="-1.49881">
        <ele>4.2</ele>
        <time>2025-07-04T09:56:32Z</time>
      </trkpt>
      <trkpt lat="46.23511" lon="-1.49883">
        <ele>4.2</ele>
        <time>2025-07-04T09:56:33Z</time>
      </trkpt>
      <trkpt lat="46.23516" lon="-1.49891">
        <ele>4.4</ele>
        <time>2025-07-04T09:56:38Z</time>
      </trkpt>
      <trkpt lat="46.23516" lon="-1.49893">
        <ele>4.4</ele>
        <time>2025-07-04T09:56:39Z</time>
      </trkpt>
      <trkpt lat="46.23518" lon="-1.49896">
        <ele>4.2</ele>
        <time>2025-07-04T09:56:41Z</time>
      </trkpt>
      <trkpt lat="46.2352" lon="-1.49898">
        <ele>4.2</ele>
        <time>2025-07-04T09:56:43Z</time>
      </trkpt>
      <trkpt lat="46.23521" lon="-1.49901">
        <ele>4</ele>
        <time>2025-07-04T09:56:45Z</time>
      </trkpt>
      <trkpt lat="46.23528" lon="-1.49908">
        <ele>4.2</ele>
        <time>2025-07-04T09:56:51Z</time>
      </trkpt>
      <trkpt lat="46.23539" lon="-1.49916">
        <ele>4.2</ele>
        <time>2025-07-04T09:57:01Z</time>
      </trkpt>
      <trkpt lat="46.23539" lon="-1.49914">
        <ele>4</ele>
        <time>2025-07-04T09:57:04Z</time>
      </trkpt>
      <trkpt lat="46.23539" lon="-1.49913">
        <ele>4</ele>
        <time>2025-07-04T09:57:05Z</time>
      </trkpt>
      <trkpt lat="46.23539" lon="-1.49912">
        <ele>4.4</ele>
        <time>2025-07-04T09:57:10Z</time>
      </trkpt>
      <trkpt lat="46.23539" lon="-1.49912">
        <ele>4.2</ele>
        <time>2025-07-04T09:57:17Z</time>
      </trkpt>
      <trkpt lat="46.23541" lon="-1.49916">
        <ele>3.8</ele>
        <time>2025-07-04T09:57:20Z</time>
      </trkpt>
      <trkpt lat="46.23547" lon="-1.49925">
        <ele>4.2</ele>
        <time>2025-07-04T09:57:25Z</time>
      </trkpt>
      <trkpt lat="46.23549" lon="-1.49933">
        <ele>4</ele>
        <time>2025-07-04T09:57:29Z</time>
      </trkpt>
      <trkpt lat="46.23546" lon="-1.49945">
        <ele>3.8</ele>
        <time>2025-07-04T09:57:35Z</time>
      </trkpt>
      <trkpt lat="46.23546" lon="-1.49948">
        <ele>3.6</ele>
        <time>2025-07-04T09:57:37Z</time>
      </trkpt>
      <trkpt lat="46.23542" lon="-1.49965">
        <ele>3.6</ele>
        <time>2025-07-04T09:57:46Z</time>
      </trkpt>
      <trkpt lat="46.23537" lon="-1.49979">
        <ele>3.6</ele>
        <time>2025-07-04T09:57:55Z</time>
      </trkpt>
      <trkpt lat="46.2353" lon="-1.50002">
        <ele>3.6</ele>
        <time>2025-07-04T09:58:07Z</time>
      </trkpt>
      <trkpt lat="46.23526" lon="-1.50013">
        <ele>3.6</ele>
        <time>2025-07-04T09:58:13Z</time>
      </trkpt>
      <trkpt lat="46.23525" lon="-1.50013">
        <ele>3.8</ele>
        <time>2025-07-04T09:58:14Z</time>
      </trkpt>
      <trkpt lat="46.23523" lon="-1.50014">
        <ele>4.2</ele>
        <time>2025-07-04T09:58:16Z</time>
      </trkpt>
      <trkpt lat="46.23518" lon="-1.50011">
        <ele>4.6</ele>
        <time>2025-07-04T09:58:20Z</time>
      </trkpt>
      <trkpt lat="46.23515" lon="-1.5001">
        <ele>4.4</ele>
        <time>2025-07-04T09:58:23Z</time>
      </trkpt>
      <trkpt lat="46.23512" lon="-1.50008">
        <ele>3.8</ele>
        <time>2025-07-04T09:58:27Z</time>
      </trkpt>
      <trkpt lat="46.2351" lon="-1.50007">
        <ele>3.8</ele>
        <time>2025-07-04T09:58:29Z</time>
      </trkpt>
      <trkpt lat="46.23496" lon="-1.5">
        <ele>4.2</ele>
        <time>2025-07-04T09:58:40Z</time>
      </trkpt>
      <trkpt lat="46.23487" lon="-1.49994">
        <ele>4.4</ele>
        <time>2025-07-04T09:58:48Z</time>
      </trkpt>
      <trkpt lat="46.23485" lon="-1.49994">
        <ele>4.4</ele>
        <time>2025-07-04T09:58:49Z</time>
      </trkpt>
      <trkpt lat="46.23483" lon="-1.49993">
        <ele>4.4</ele>
        <time>2025-07-04T09:58:50Z</time>
      </trkpt>
      <trkpt lat="46.23473" lon="-1.49994">
        <ele>4.2</ele>
        <time>2025-07-04T09:58:57Z</time>
      </trkpt>
      <trkpt lat="46.23469" lon="-1.49994">
        <ele>4</ele>
        <time>2025-07-04T09:59:01Z</time>
      </trkpt>
      <trkpt lat="46.23467" lon="-1.49993">
        <ele>4</ele>
        <time>2025-07-04T09:59:03Z</time>
      </trkpt>
      <trkpt lat="46.23467" lon="-1.49993">
        <ele>4.2</ele>
        <time>2025-07-04T09:59:04Z</time>
      </trkpt>
      <trkpt lat="46.23467" lon="-1.49993">
        <ele>4.2</ele>
        <time>2025-07-04T09:59:08Z</time>
      </trkpt>
      <trkpt lat="46.23466" lon="-1.49993">
        <ele>3.8</ele>
        <time>2025-07-04T09:59:16Z</time>
      </trkpt>
      <trkpt lat="46.23466" lon="-1.49994">
        <ele>3.8</ele>
        <time>2025-07-04T09:59:23Z</time>
      </trkpt>
      <trkpt lat="46.23466" lon="-1.49994">
        <ele>3.6</ele>
        <time>2025-07-04T09:59:25Z</time>
      </trkpt>
      <trkpt lat="46.23465" lon="-1.49999">
        <ele>3</ele>
        <time>2025-07-04T09:59:34Z</time>
      </trkpt>
      <trkpt lat="46.23465" lon="-1.50016">
        <ele>2.6</ele>
        <time>2025-07-04T09:59:41Z</time>
      </trkpt>
      <trkpt lat="46.23464" lon="-1.50024">
        <ele>2.4</ele>
        <time>2025-07-04T09:59:45Z</time>
      </trkpt>
      <trkpt lat="46.23464" lon="-1.50036">
        <ele>2.4</ele>
        <time>2025-07-04T09:59:51Z</time>
      </trkpt>
      <trkpt lat="46.23464" lon="-1.50038">
        <ele>2.4</ele>
        <time>2025-07-04T09:59:52Z</time>
      </trkpt>
      <trkpt lat="46.23462" lon="-1.50049">
        <ele>2.2</ele>
        <time>2025-07-04T09:59:58Z</time>
      </trkpt>
      <trkpt lat="46.2346" lon="-1.5006">
        <ele>2.2</ele>
        <time>2025-07-04T10:00:03Z</time>
      </trkpt>
      <trkpt lat="46.2346" lon="-1.50082">
        <ele>2</ele>
        <time>2025-07-04T10:00:14Z</time>
      </trkpt>
      <trkpt lat="46.2346" lon="-1.50086">
        <ele>2</ele>
        <time>2025-07-04T10:00:16Z</time>
      </trkpt>
      <trkpt lat="46.23461" lon="-1.5009">
        <ele>2</ele>
        <time>2025-07-04T10:00:18Z</time>
      </trkpt>
      <trkpt lat="46.2346" lon="-1.50097">
        <ele>2.2</ele>
        <time>2025-07-04T10:00:22Z</time>
      </trkpt>
      <trkpt lat="46.23458" lon="-1.50098">
        <ele>2.4</ele>
        <time>2025-07-04T10:00:23Z</time>
      </trkpt>
      <trkpt lat="46.23452" lon="-1.501">
        <ele>2.8</ele>
        <time>2025-07-04T10:00:28Z</time>
      </trkpt>
      <trkpt lat="46.23448" lon="-1.50102">
        <ele>2.4</ele>
        <time>2025-07-04T10:00:31Z</time>
      </trkpt>
      <trkpt lat="46.23433" lon="-1.50108">
        <ele>2</ele>
        <time>2025-07-04T10:00:42Z</time>
      </trkpt>
      <trkpt lat="46.2343" lon="-1.50109">
        <ele>2</ele>
        <time>2025-07-04T10:00:45Z</time>
      </trkpt>
      <trkpt lat="46.23427" lon="-1.50106">
        <ele>1.8</ele>
        <time>2025-07-04T10:00:48Z</time>
      </trkpt>
      <trkpt lat="46.23424" lon="-1.50112">
        <ele>1.8</ele>
        <time>2025-07-04T10:00:52Z</time>
      </trkpt>
      <trkpt lat="46.23424" lon="-1.50124">
        <ele>1.4</ele>
        <time>2025-07-04T10:00:57Z</time>
      </trkpt>
      <trkpt lat="46.23424" lon="-1.50136">
        <ele>1</ele>
        <time>2025-07-04T10:01:03Z</time>
      </trkpt>
      <trkpt lat="46.2342" lon="-1.50151">
        <ele>1</ele>
        <time>2025-07-04T10:01:11Z</time>
      </trkpt>
      <trkpt lat="46.23418" lon="-1.50156">
        <ele>1</ele>
        <time>2025-07-04T10:01:14Z</time>
      </trkpt>
      <trkpt lat="46.23414" lon="-1.5017">
        <ele>1.2</ele>
        <time>2025-07-04T10:01:22Z</time>
      </trkpt>
      <trkpt lat="46.23411" lon="-1.50187">
        <ele>0.60000000000002</ele>
        <time>2025-07-04T10:01:32Z</time>
      </trkpt>
      <trkpt lat="46.23415" lon="-1.50192">
        <ele>0.39999999999998</ele>
        <time>2025-07-04T10:01:35Z</time>
      </trkpt>
      <trkpt lat="46.2342" lon="-1.50199">
        <ele>0.60000000000002</ele>
        <time>2025-07-04T10:01:40Z</time>
      </trkpt>
      <trkpt lat="46.23427" lon="-1.50214">
        <ele>0.60000000000002</ele>
        <time>2025-07-04T10:01:49Z</time>
      </trkpt>
      <trkpt lat="46.23429" lon="-1.50217">
        <ele>0.80000000000001</ele>
        <time>2025-07-04T10:01:51Z</time>
      </trkpt>
      <trkpt lat="46.23434" lon="-1.50227">
        <ele>0.60000000000002</ele>
        <time>2025-07-04T10:01:57Z</time>
      </trkpt>
      <trkpt lat="46.23437" lon="-1.50236">
        <ele>0.39999999999998</ele>
        <time>2025-07-04T10:02:02Z</time>
      </trkpt>
      <trkpt lat="46.23441" lon="-1.50253">
        <ele>0.39999999999998</ele>
        <time>2025-07-04T10:02:11Z</time>
      </trkpt>
      <trkpt lat="46.23447" lon="-1.50268">
        <ele>-0.19999999999999</ele>
        <time>2025-07-04T10:02:20Z</time>
      </trkpt>
      <trkpt lat="46.23454" lon="-1.50283">
        <ele>-0.19999999999999</ele>
        <time>2025-07-04T10:02:29Z</time>
      </trkpt>
      <trkpt lat="46.23461" lon="-1.50299">
        <ele>0.19999999999999</ele>
        <time>2025-07-04T10:02:39Z</time>
      </trkpt>
      <trkpt lat="46.23469" lon="-1.50315">
        <ele>0.19999999999999</ele>
        <time>2025-07-04T10:02:49Z</time>
      </trkpt>
      <trkpt lat="46.23476" lon="-1.50327">
        <ele>0.19999999999999</ele>
        <time>2025-07-04T10:02:57Z</time>
      </trkpt>
      <trkpt lat="46.23482" lon="-1.50342">
        <ele>0.19999999999999</ele>
        <time>2025-07-04T10:03:06Z</time>
      </trkpt>
      <trkpt lat="46.23489" lon="-1.50358">
        <ele>0.60000000000002</ele>
        <time>2025-07-04T10:03:17Z</time>
      </trkpt>
      <trkpt lat="46.23495" lon="-1.50367">
        <ele>0.19999999999999</ele>
        <time>2025-07-04T10:03:25Z</time>
      </trkpt>
      <trkpt lat="46.23503" lon="-1.50385">
        <ele>0.39999999999998</ele>
        <time>2025-07-04T10:03:36Z</time>
      </trkpt>
      <trkpt lat="46.23502" lon="-1.504">
        <ele>0.60000000000002</ele>
        <time>2025-07-04T10:03:45Z</time>
      </trkpt>
      <trkpt lat="46.23496" lon="-1.50418">
        <ele>0.80000000000001</ele>
        <time>2025-07-04T10:03:56Z</time>
      </trkpt>
      <trkpt lat="46.23489" lon="-1.50434">
        <ele>0.60000000000002</ele>
        <time>2025-07-04T10:04:06Z</time>
      </trkpt>
      <trkpt lat="46.23479" lon="-1.50451">
        <ele>0.39999999999998</ele>
        <time>2025-07-04T10:04:17Z</time>
      </trkpt>
      <trkpt lat="46.23471" lon="-1.50473">
        <ele>0.19999999999999</ele>
        <time>2025-07-04T10:04:30Z</time>
      </trkpt>
      <trkpt lat="46.2347" lon="-1.50475">
        <ele>0.19999999999999</ele>
        <time>2025-07-04T10:04:31Z</time>
      </trkpt>
      <trkpt lat="46.23464" lon="-1.50492">
        <ele>0.19999999999999</ele>
        <time>2025-07-04T10:04:41Z</time>
      </trkpt>
      <trkpt lat="46.23459" lon="-1.5051">
        <ele>0.19999999999999</ele>
        <time>2025-07-04T10:04:50Z</time>
      </trkpt>
      <trkpt lat="46.23454" lon="-1.50529">
        <ele>0.39999999999998</ele>
        <time>2025-07-04T10:05:00Z</time>
      </trkpt>
      <trkpt lat="46.23453" lon="-1.50532">
        <ele>0.39999999999998</ele>
        <time>2025-07-04T10:05:02Z</time>
      </trkpt>
      <trkpt lat="46.23446" lon="-1.50553">
        <ele>-0.19999999999999</ele>
        <time>2025-07-04T10:05:14Z</time>
      </trkpt>
      <trkpt lat="46.2344" lon="-1.50575">
        <ele>-0.39999999999998</ele>
        <time>2025-07-04T10:05:26Z</time>
      </trkpt>
      <trkpt lat="46.2344" lon="-1.50589">
        <ele>-0.39999999999998</ele>
        <time>2025-07-04T10:05:34Z</time>
      </trkpt>
      <trkpt lat="46.2345" lon="-1.50596">
        <ele>0.19999999999999</ele>
        <time>2025-07-04T10:05:42Z</time>
      </trkpt>
      <trkpt lat="46.23455" lon="-1.50599">
        <ele>0.19999999999999</ele>
        <time>2025-07-04T10:05:46Z</time>
      </trkpt>
      <trkpt lat="46.23456" lon="-1.506">
        <ele>-0.19999999999999</ele>
        <time>2025-07-04T10:05:47Z</time>
      </trkpt>
      <trkpt lat="46.23461" lon="-1.50603">
        <ele>-0.19999999999999</ele>
        <time>2025-07-04T10:05:50Z</time>
      </trkpt>
      <trkpt lat="46.23469" lon="-1.50615">
        <ele>0.19999999999999</ele>
        <time>2025-07-04T10:05:59Z</time>
      </trkpt>
      <trkpt lat="46.23481" lon="-1.50627">
        <ele>0.39999999999998</ele>
        <time>2025-07-04T10:06:10Z</time>
      </trkpt>
      <trkpt lat="46.23495" lon="-1.50633">
        <ele>0.80000000000001</ele>
        <time>2025-07-04T10:06:20Z</time>
      </trkpt>
      <trkpt lat="46.23499" lon="-1.50633">
        <ele>1</ele>
        <time>2025-07-04T10:06:23Z</time>
      </trkpt>
      <trkpt lat="46.23507" lon="-1.5063">
        <ele>1</ele>
        <time>2025-07-04T10:06:29Z</time>
      </trkpt>
      <trkpt lat="46.23512" lon="-1.50626">
        <ele>1</ele>
        <time>2025-07-04T10:06:33Z</time>
      </trkpt>
      <trkpt lat="46.2352" lon="-1.50621">
        <ele>1.4</ele>
        <time>2025-07-04T10:06:40Z</time>
      </trkpt>
      <trkpt lat="46.23524" lon="-1.50617">
        <ele>1.4</ele>
        <time>2025-07-04T10:06:43Z</time>
      </trkpt>
      <trkpt lat="46.23526" lon="-1.50616">
        <ele>1.2</ele>
        <time>2025-07-04T10:06:45Z</time>
      </trkpt>
      <trkpt lat="46.23527" lon="-1.50615">
        <ele>1.2</ele>
        <time>2025-07-04T10:06:46Z</time>
      </trkpt>
      <trkpt lat="46.23533" lon="-1.50609">
        <ele>1.2</ele>
        <time>2025-07-04T10:06:51Z</time>
      </trkpt>
      <trkpt lat="46.23537" lon="-1.50606">
        <ele>1.2</ele>
        <time>2025-07-04T10:06:54Z</time>
      </trkpt>
      <trkpt lat="46.23545" lon="-1.506">
        <ele>1.2</ele>
        <time>2025-07-04T10:07:01Z</time>
      </trkpt>
      <trkpt lat="46.23554" lon="-1.50604">
        <ele>1.4</ele>
        <time>2025-07-04T10:07:09Z</time>
      </trkpt>
      <trkpt lat="46.23557" lon="-1.50607">
        <ele>1.4</ele>
        <time>2025-07-04T10:07:11Z</time>
      </trkpt>
      <trkpt lat="46.23563" lon="-1.50619">
        <ele>1.8</ele>
        <time>2025-07-04T10:07:18Z</time>
      </trkpt>
      <trkpt lat="46.23569" lon="-1.50626">
        <ele>2</ele>
        <time>2025-07-04T10:07:24Z</time>
      </trkpt>
      <trkpt lat="46.23577" lon="-1.50639">
        <ele>2</ele>
        <time>2025-07-04T10:07:33Z</time>
      </trkpt>
      <trkpt lat="46.23584" lon="-1.50649">
        <ele>2</ele>
        <time>2025-07-04T10:07:40Z</time>
      </trkpt>
      <trkpt lat="46.23585" lon="-1.50651">
        <ele>2</ele>
        <time>2025-07-04T10:07:41Z</time>
      </trkpt>
      <trkpt lat="46.2359" lon="-1.50659">
        <ele>2.2</ele>
        <time>2025-07-04T10:07:46Z</time>
      </trkpt>
      <trkpt lat="46.23594" lon="-1.50666">
        <ele>2</ele>
        <time>2025-07-04T10:07:51Z</time>
      </trkpt>
      <trkpt lat="46.23606" lon="-1.50686">
        <ele>2.4</ele>
        <time>2025-07-04T10:08:04Z</time>
      </trkpt>
      <trkpt lat="46.23614" lon="-1.50698">
        <ele>3</ele>
        <time>2025-07-04T10:08:13Z</time>
      </trkpt>
      <trkpt lat="46.23618" lon="-1.50703">
        <ele>2.8</ele>
        <time>2025-07-04T10:08:17Z</time>
      </trkpt>
      <trkpt lat="46.23619" lon="-1.50706">
        <ele>2.6</ele>
        <time>2025-07-04T10:08:19Z</time>
      </trkpt>
      <trkpt lat="46.23626" lon="-1.50719">
        <ele>2.8</ele>
        <time>2025-07-04T10:08:28Z</time>
      </trkpt>
      <trkpt lat="46.2363" lon="-1.50726">
        <ele>2.8</ele>
        <time>2025-07-04T10:08:32Z</time>
      </trkpt>
      <trkpt lat="46.23634" lon="-1.50733">
        <ele>2.8</ele>
        <time>2025-07-04T10:08:37Z</time>
      </trkpt>
      <trkpt lat="46.23641" lon="-1.50742">
        <ele>2.4</ele>
        <time>2025-07-04T10:08:44Z</time>
      </trkpt>
      <trkpt lat="46.23645" lon="-1.5075">
        <ele>2.4</ele>
        <time>2025-07-04T10:08:49Z</time>
      </trkpt>
      <trkpt lat="46.23647" lon="-1.50756">
        <ele>2.4</ele>
        <time>2025-07-04T10:08:54Z</time>
      </trkpt>
      <trkpt lat="46.23647" lon="-1.50761">
        <ele>2.4</ele>
        <time>2025-07-04T10:08:57Z</time>
      </trkpt>
      <trkpt lat="46.23644" lon="-1.50778">
        <ele>1.8</ele>
        <time>2025-07-04T10:09:06Z</time>
      </trkpt>
      <trkpt lat="46.2364" lon="-1.50798">
        <ele>2.2</ele>
        <time>2025-07-04T10:09:16Z</time>
      </trkpt>
      <trkpt lat="46.23638" lon="-1.50806">
        <ele>1.8</ele>
        <time>2025-07-04T10:09:21Z</time>
      </trkpt>
      <trkpt lat="46.23638" lon="-1.5081">
        <ele>2</ele>
        <time>2025-07-04T10:09:25Z</time>
      </trkpt>
      <trkpt lat="46.23638" lon="-1.50808">
        <ele>2.4</ele>
        <time>2025-07-04T10:09:33Z</time>
      </trkpt>
      <trkpt lat="46.23636" lon="-1.50815">
        <ele>1.4</ele>
        <time>2025-07-04T10:09:39Z</time>
      </trkpt>
      <trkpt lat="46.23634" lon="-1.50823">
        <ele>1.2</ele>
        <time>2025-07-04T10:09:43Z</time>
      </trkpt>
      <trkpt lat="46.23633" lon="-1.5083">
        <ele>1.2</ele>
        <time>2025-07-04T10:09:47Z</time>
      </trkpt>
      <trkpt lat="46.23631" lon="-1.50857">
        <ele>1</ele>
        <time>2025-07-04T10:10:01Z</time>
      </trkpt>
      <trkpt lat="46.2363" lon="-1.50862">
        <ele>1.2</ele>
        <time>2025-07-04T10:10:04Z</time>
      </trkpt>
      <trkpt lat="46.23625" lon="-1.5088">
        <ele>1.4</ele>
        <time>2025-07-04T10:10:15Z</time>
      </trkpt>
      <trkpt lat="46.23621" lon="-1.50882">
        <ele>1.4</ele>
        <time>2025-07-04T10:10:19Z</time>
      </trkpt>
      <trkpt lat="46.23613" lon="-1.50881">
        <ele>-0.80000000000001</ele>
        <time>2025-07-04T10:12:38Z</time>
      </trkpt>
      <trkpt lat="46.23614" lon="-1.5088">
        <ele>-0.80000000000001</ele>
        <time>2025-07-04T10:12:39Z</time>
      </trkpt>
      <trkpt lat="46.23611" lon="-1.50889">
        <ele>-0.80000000000001</ele>
        <time>2025-07-04T10:12:49Z</time>
      </trkpt>
      <trkpt lat="46.23605" lon="-1.50897">
        <ele>-0.19999999999999</ele>
        <time>2025-07-04T10:12:54Z</time>
      </trkpt>
      <trkpt lat="46.23604" lon="-1.509">
        <ele>-0.19999999999999</ele>
        <time>2025-07-04T10:12:56Z</time>
      </trkpt>
      <trkpt lat="46.23603" lon="-1.50901">
        <ele>-0.39999999999998</ele>
        <time>2025-07-04T10:12:57Z</time>
      </trkpt>
      <trkpt lat="46.23598" lon="-1.50906">
        <ele>-0.39999999999998</ele>
        <time>2025-07-04T10:13:01Z</time>
      </trkpt>
      <trkpt lat="46.2359" lon="-1.50915">
        <ele>-0.39999999999998</ele>
        <time>2025-07-04T10:13:09Z</time>
      </trkpt>
      <trkpt lat="46.23577" lon="-1.50927">
        <ele>-0.19999999999999</ele>
        <time>2025-07-04T10:13:20Z</time>
      </trkpt>
      <trkpt lat="46.23566" lon="-1.50937">
        <ele>-0.19999999999999</ele>
        <time>2025-07-04T10:13:30Z</time>
      </trkpt>
      <trkpt lat="46.23551" lon="-1.50952">
        <ele>-0.19999999999999</ele>
        <time>2025-07-04T10:13:44Z</time>
      </trkpt>
      <trkpt lat="46.23541" lon="-1.50959">
        <ele>-0.19999999999999</ele>
        <time>2025-07-04T10:13:52Z</time>
      </trkpt>
      <trkpt lat="46.23529" lon="-1.50968">
        <ele>-0.19999999999999</ele>
        <time>2025-07-04T10:14:01Z</time>
      </trkpt>
      <trkpt lat="46.2352" lon="-1.50978">
        <ele>-0.19999999999999</ele>
        <time>2025-07-04T10:14:10Z</time>
      </trkpt>
      <trkpt lat="46.23514" lon="-1.50984">
        <ele>0.19999999999999</ele>
        <time>2025-07-04T10:14:15Z</time>
      </trkpt>
      <trkpt lat="46.23509" lon="-1.5099">
        <ele>0.39999999999998</ele>
        <time>2025-07-04T10:14:20Z</time>
      </trkpt>
      <trkpt lat="46.23497" lon="-1.50999">
        <ele>0.19999999999999</ele>
        <time>2025-07-04T10:14:30Z</time>
      </trkpt>
      <trkpt lat="46.23485" lon="-1.51006">
        <ele>-0.19999999999999</ele>
        <time>2025-07-04T10:14:40Z</time>
      </trkpt>
      <trkpt lat="46.23471" lon="-1.51016">
        <ele>-0.60000000000002</ele>
        <time>2025-07-04T10:14:51Z</time>
      </trkpt>
      <trkpt lat="46.23461" lon="-1.51025">
        <ele>-0.60000000000002</ele>
        <time>2025-07-04T10:15:00Z</time>
      </trkpt>
      <trkpt lat="46.2346" lon="-1.51026">
        <ele>-0.60000000000002</ele>
        <time>2025-07-04T10:15:01Z</time>
      </trkpt>
      <trkpt lat="46.23458" lon="-1.51027">
        <ele>-0.60000000000002</ele>
        <time>2025-07-04T10:15:02Z</time>
      </trkpt>
      <trkpt lat="46.23448" lon="-1.51036">
        <ele>-0.19999999999999</ele>
        <time>2025-07-04T10:15:11Z</time>
      </trkpt>
      <trkpt lat="46.23432" lon="-1.51048">
        <ele>-0.39999999999998</ele>
        <time>2025-07-04T10:15:23Z</time>
      </trkpt>
      <trkpt lat="46.23421" lon="-1.51058">
        <ele>-0.60000000000002</ele>
        <time>2025-07-04T10:15:33Z</time>
      </trkpt>
      <trkpt lat="46.2341" lon="-1.51067">
        <ele>-0.39999999999998</ele>
        <time>2025-07-04T10:15:42Z</time>
      </trkpt>
      <trkpt lat="46.23405" lon="-1.51073">
        <ele>-0.80000000000001</ele>
        <time>2025-07-04T10:15:46Z</time>
      </trkpt>
      <trkpt lat="46.23404" lon="-1.51074">
        <ele>-1</ele>
        <time>2025-07-04T10:15:47Z</time>
      </trkpt>
      <trkpt lat="46.23391" lon="-1.51087">
        <ele>-1</ele>
        <time>2025-07-04T10:15:58Z</time>
      </trkpt>
      <trkpt lat="46.23382" lon="-1.51103">
        <ele>-1</ele>
        <time>2025-07-04T10:16:08Z</time>
      </trkpt>
      <trkpt lat="46.23383" lon="-1.51117">
        <ele>-1.2</ele>
        <time>2025-07-04T10:16:15Z</time>
      </trkpt>
      <trkpt lat="46.23385" lon="-1.51124">
        <ele>-1.2</ele>
        <time>2025-07-04T10:16:19Z</time>
      </trkpt>
      <trkpt lat="46.23387" lon="-1.51137">
        <ele>-1.2</ele>
        <time>2025-07-04T10:16:25Z</time>
      </trkpt>
      <trkpt lat="46.23384" lon="-1.51145">
        <ele>-1.4</ele>
        <time>2025-07-04T10:16:30Z</time>
      </trkpt>
      <trkpt lat="46.23381" lon="-1.51148">
        <ele>-1.2</ele>
        <time>2025-07-04T10:16:32Z</time>
      </trkpt>
      <trkpt lat="46.23371" lon="-1.51162">
        <ele>-1</ele>
        <time>2025-07-04T10:16:42Z</time>
      </trkpt>
      <trkpt lat="46.23372" lon="-1.51176">
        <ele>-0.80000000000001</ele>
        <time>2025-07-04T10:16:49Z</time>
      </trkpt>
      <trkpt lat="46.23376" lon="-1.51192">
        <ele>-0.60000000000002</ele>
        <time>2025-07-04T10:16:57Z</time>
      </trkpt>
      <trkpt lat="46.23377" lon="-1.51196">
        <ele>-0.60000000000002</ele>
        <time>2025-07-04T10:16:59Z</time>
      </trkpt>
      <trkpt lat="46.23382" lon="-1.51205">
        <ele>-0.60000000000002</ele>
        <time>2025-07-04T10:17:05Z</time>
      </trkpt>
      <trkpt lat="46.2339" lon="-1.51222">
        <ele>-0.60000000000002</ele>
        <time>2025-07-04T10:17:15Z</time>
      </trkpt>
      <trkpt lat="46.23396" lon="-1.51239">
        <ele>-0.60000000000002</ele>
        <time>2025-07-04T10:17:25Z</time>
      </trkpt>
      <trkpt lat="46.23393" lon="-1.5125">
        <ele>-0.39999999999998</ele>
        <time>2025-07-04T10:17:32Z</time>
      </trkpt>
      <trkpt lat="46.23387" lon="-1.51253">
        <ele>-0.19999999999999</ele>
        <time>2025-07-04T10:17:36Z</time>
      </trkpt>
      <trkpt lat="46.23381" lon="-1.51258">
        <ele>-0.19999999999999</ele>
        <time>2025-07-04T10:17:41Z</time>
      </trkpt>
      <trkpt lat="46.2338" lon="-1.51258">
        <ele>-0.19999999999999</ele>
        <time>2025-07-04T10:17:42Z</time>
      </trkpt>
      <trkpt lat="46.23367" lon="-1.51264">
        <ele>-0.19999999999999</ele>
        <time>2025-07-04T10:17:52Z</time>
      </trkpt>
      <trkpt lat="46.23354" lon="-1.51272">
        <ele>-0.19999999999999</ele>
        <time>2025-07-04T10:18:02Z</time>
      </trkpt>
      <trkpt lat="46.23342" lon="-1.51283">
        <ele>0.19999999999999</ele>
        <time>2025-07-04T10:18:12Z</time>
      </trkpt>
      <trkpt lat="46.23342" lon="-1.51298">
        <ele>0.19999999999999</ele>
        <time>2025-07-04T10:18:20Z</time>
      </trkpt>
      <trkpt lat="46.23346" lon="-1.51312">
        <ele>-0.19999999999999</ele>
        <time>2025-07-04T10:18:28Z</time>
      </trkpt>
      <trkpt lat="46.23353" lon="-1.51325">
        <ele>-0.39999999999998</ele>
        <time>2025-07-04T10:18:36Z</time>
      </trkpt>
      <trkpt lat="46.23354" lon="-1.51326">
        <ele>-0.39999999999998</ele>
        <time>2025-07-04T10:18:37Z</time>
      </trkpt>
      <trkpt lat="46.23362" lon="-1.51338">
        <ele>-0.19999999999999</ele>
        <time>2025-07-04T10:18:45Z</time>
      </trkpt>
      <trkpt lat="46.23369" lon="-1.51345">
        <ele>-0.19999999999999</ele>
        <time>2025-07-04T10:18:51Z</time>
      </trkpt>
      <trkpt lat="46.23375" lon="-1.51351">
        <ele>0.19999999999999</ele>
        <time>2025-07-04T10:18:57Z</time>
      </trkpt>
      <trkpt lat="46.23382" lon="-1.51354">
        <ele>-0.19999999999999</ele>
        <time>2025-07-04T10:19:02Z</time>
      </trkpt>
      <trkpt lat="46.23386" lon="-1.51355">
        <ele>-0.19999999999999</ele>
        <time>2025-07-04T10:19:05Z</time>
      </trkpt>
      <trkpt lat="46.23401" lon="-1.51352">
        <ele>-0.19999999999999</ele>
        <time>2025-07-04T10:19:16Z</time>
      </trkpt>
      <trkpt lat="46.23406" lon="-1.5135">
        <ele>-0.19999999999999</ele>
        <time>2025-07-04T10:19:20Z</time>
      </trkpt>
      <trkpt lat="46.23413" lon="-1.51351">
        <ele>-0.19999999999999</ele>
        <time>2025-07-04T10:19:25Z</time>
      </trkpt>
      <trkpt lat="46.23425" lon="-1.51361">
        <ele>-0.19999999999999</ele>
        <time>2025-07-04T10:19:35Z</time>
      </trkpt>
      <trkpt lat="46.23437" lon="-1.51373">
        <ele>0.19999999999999</ele>
        <time>2025-07-04T10:19:46Z</time>
      </trkpt>
      <trkpt lat="46.23451" lon="-1.51386">
        <ele>1.2</ele>
        <time>2025-07-04T10:19:58Z</time>
      </trkpt>
      <trkpt lat="46.23454" lon="-1.5139">
        <ele>1.2</ele>
        <time>2025-07-04T10:20:01Z</time>
      </trkpt>
      <trkpt lat="46.23462" lon="-1.51396">
        <ele>1.2</ele>
        <time>2025-07-04T10:20:07Z</time>
      </trkpt>
      <trkpt lat="46.23474" lon="-1.51407">
        <ele>1.2</ele>
        <time>2025-07-04T10:20:18Z</time>
      </trkpt>
      <trkpt lat="46.23484" lon="-1.51417">
        <ele>1.2</ele>
        <time>2025-07-04T10:20:27Z</time>
      </trkpt>
      <trkpt lat="46.23497" lon="-1.51426">
        <ele>2</ele>
        <time>2025-07-04T10:20:38Z</time>
      </trkpt>
      <trkpt lat="46.23506" lon="-1.51431">
        <ele>2.2</ele>
        <time>2025-07-04T10:20:45Z</time>
      </trkpt>
      <trkpt lat="46.23507" lon="-1.51432">
        <ele>2.2</ele>
        <time>2025-07-04T10:20:46Z</time>
      </trkpt>
      <trkpt lat="46.23509" lon="-1.51433">
        <ele>2.4</ele>
        <time>2025-07-04T10:20:48Z</time>
      </trkpt>
      <trkpt lat="46.23512" lon="-1.51443">
        <ele>2.6</ele>
        <time>2025-07-04T10:20:55Z</time>
      </trkpt>
      <trkpt lat="46.2351" lon="-1.51454">
        <ele>2.8</ele>
        <time>2025-07-04T10:21:01Z</time>
      </trkpt>
      <trkpt lat="46.23508" lon="-1.51465">
        <ele>3</ele>
        <time>2025-07-04T10:21:08Z</time>
      </trkpt>
      <trkpt lat="46.23508" lon="-1.51467">
        <ele>3.2</ele>
        <time>2025-07-04T10:21:11Z</time>
      </trkpt>
      <trkpt lat="46.23507" lon="-1.5147">
        <ele>3.2</ele>
        <time>2025-07-04T10:21:13Z</time>
      </trkpt>
      <trkpt lat="46.23506" lon="-1.51484">
        <ele>3.8</ele>
        <time>2025-07-04T10:21:21Z</time>
      </trkpt>
      <trkpt lat="46.23507" lon="-1.51484">
        <ele>4</ele>
        <time>2025-07-04T10:21:23Z</time>
      </trkpt>
      <trkpt lat="46.23507" lon="-1.51483">
        <ele>4</ele>
        <time>2025-07-04T10:21:25Z</time>
      </trkpt>
      <trkpt lat="46.23507" lon="-1.51481">
        <ele>3.8</ele>
        <time>2025-07-04T10:21:30Z</time>
      </trkpt>
      <trkpt lat="46.23507" lon="-1.51482">
        <ele>4</ele>
        <time>2025-07-04T10:21:37Z</time>
      </trkpt>
      <trkpt lat="46.23505" lon="-1.51493">
        <ele>3.4</ele>
        <time>2025-07-04T10:22:00Z</time>
      </trkpt>
      <trkpt lat="46.23507" lon="-1.51504">
        <ele>3.4</ele>
        <time>2025-07-04T10:22:05Z</time>
      </trkpt>
      <trkpt lat="46.2351" lon="-1.51504">
        <ele>3.4</ele>
        <time>2025-07-04T10:22:07Z</time>
      </trkpt>
      <trkpt lat="46.2352" lon="-1.515">
        <ele>4.2</ele>
        <time>2025-07-04T10:22:16Z</time>
      </trkpt>
      <trkpt lat="46.23521" lon="-1.515">
        <ele>4.4</ele>
        <time>2025-07-04T10:22:17Z</time>
      </trkpt>
      <trkpt lat="46.2352" lon="-1.515">
        <ele>4</ele>
        <time>2025-07-04T10:22:22Z</time>
      </trkpt>
      <trkpt lat="46.2352" lon="-1.51501">
        <ele>4</ele>
        <time>2025-07-04T10:22:25Z</time>
      </trkpt>
      <trkpt lat="46.23522" lon="-1.51501">
        <ele>4.6</ele>
        <time>2025-07-04T10:22:29Z</time>
      </trkpt>
      <trkpt lat="46.23533" lon="-1.51498">
        <ele>4.6</ele>
        <time>2025-07-04T10:22:38Z</time>
      </trkpt>
      <trkpt lat="46.2354" lon="-1.51499">
        <ele>4.2</ele>
        <time>2025-07-04T10:22:45Z</time>
      </trkpt>
      <trkpt lat="46.23541" lon="-1.51498">
        <ele>4.2</ele>
        <time>2025-07-04T10:22:47Z</time>
      </trkpt>
      <trkpt lat="46.23539" lon="-1.51499">
        <ele>4.2</ele>
        <time>2025-07-04T10:22:58Z</time>
      </trkpt>
      <trkpt lat="46.23539" lon="-1.51499">
        <ele>4.4</ele>
        <time>2025-07-04T10:23:01Z</time>
      </trkpt>
      <trkpt lat="46.23539" lon="-1.51499">
        <ele>4.4</ele>
        <time>2025-07-04T10:23:06Z</time>
      </trkpt>
      <trkpt lat="46.23537" lon="-1.51499">
        <ele>4</ele>
        <time>2025-07-04T10:23:12Z</time>
      </trkpt>
      <trkpt lat="46.23524" lon="-1.51499">
        <ele>3.8</ele>
        <time>2025-07-04T10:23:22Z</time>
      </trkpt>
      <trkpt lat="46.2352" lon="-1.515">
        <ele>3.8</ele>
        <time>2025-07-04T10:23:25Z</time>
      </trkpt>
      <trkpt lat="46.23517" lon="-1.515">
        <ele>3.8</ele>
        <time>2025-07-04T10:23:31Z</time>
      </trkpt>
      <trkpt lat="46.23512" lon="-1.51503">
        <ele>3.8</ele>
        <time>2025-07-04T10:23:39Z</time>
      </trkpt>
      <trkpt lat="46.23507" lon="-1.51504">
        <ele>3.6</ele>
        <time>2025-07-04T10:23:44Z</time>
      </trkpt>
      <trkpt lat="46.23506" lon="-1.51499">
        <ele>3.6</ele>
        <time>2025-07-04T10:23:47Z</time>
      </trkpt>
      <trkpt lat="46.23505" lon="-1.51497">
        <ele>4</ele>
        <time>2025-07-04T10:23:52Z</time>
      </trkpt>
      <trkpt lat="46.23505" lon="-1.51497">
        <ele>4</ele>
        <time>2025-07-04T10:23:53Z</time>
      </trkpt>
      <trkpt lat="46.23506" lon="-1.51496">
        <ele>3</ele>
        <time>2025-07-04T10:23:56Z</time>
      </trkpt>
      <trkpt lat="46.23508" lon="-1.5149">
        <ele>2.4</ele>
        <time>2025-07-04T10:24:02Z</time>
      </trkpt>
      <trkpt lat="46.23509" lon="-1.51487">
        <ele>3</ele>
        <time>2025-07-04T10:24:11Z</time>
      </trkpt>
      <trkpt lat="46.23508" lon="-1.51485">
        <ele>3</ele>
        <time>2025-07-04T10:24:18Z</time>
      </trkpt>
      <trkpt lat="46.23508" lon="-1.51484">
        <ele>3</ele>
        <time>2025-07-04T10:24:19Z</time>
      </trkpt>
      <trkpt lat="46.23507" lon="-1.51477">
        <ele>2.6</ele>
        <time>2025-07-04T10:24:26Z</time>
      </trkpt>
      <trkpt lat="46.23508" lon="-1.51475">
        <ele>2.8</ele>
        <time>2025-07-04T10:24:33Z</time>
      </trkpt>
      <trkpt lat="46.23508" lon="-1.5147">
        <ele>3</ele>
        <time>2025-07-04T10:24:40Z</time>
      </trkpt>
      <trkpt lat="46.23508" lon="-1.51461">
        <ele>2.2</ele>
        <time>2025-07-04T10:24:46Z</time>
      </trkpt>
      <trkpt lat="46.23508" lon="-1.51458">
        <ele>2</ele>
        <time>2025-07-04T10:24:48Z</time>
      </trkpt>
      <trkpt lat="46.23509" lon="-1.51455">
        <ele>2.6</ele>
        <time>2025-07-04T10:24:52Z</time>
      </trkpt>
      <trkpt lat="46.23507" lon="-1.51452">
        <ele>2.4</ele>
        <time>2025-07-04T10:24:58Z</time>
      </trkpt>
      <trkpt lat="46.23507" lon="-1.51453">
        <ele>2.4</ele>
        <time>2025-07-04T10:24:59Z</time>
      </trkpt>
      <trkpt lat="46.23503" lon="-1.51456">
        <ele>2.8</ele>
        <time>2025-07-04T10:25:07Z</time>
      </trkpt>
      <trkpt lat="46.23497" lon="-1.51455">
        <ele>3</ele>
        <time>2025-07-04T10:25:13Z</time>
      </trkpt>
      <trkpt lat="46.23496" lon="-1.51455">
        <ele>3.4</ele>
        <time>2025-07-04T10:25:14Z</time>
      </trkpt>
      <trkpt lat="46.23497" lon="-1.51455">
        <ele>3.8</ele>
        <time>2025-07-04T10:25:18Z</time>
      </trkpt>
      <trkpt lat="46.23497" lon="-1.51455">
        <ele>4</ele>
        <time>2025-07-04T10:25:19Z</time>
      </trkpt>
      <trkpt lat="46.23497" lon="-1.51455">
        <ele>4.2</ele>
        <time>2025-07-04T10:25:22Z</time>
      </trkpt>
      <trkpt lat="46.23497" lon="-1.51455">
        <ele>3.8</ele>
        <time>2025-07-04T10:25:25Z</time>
      </trkpt>
      <trkpt lat="46.23497" lon="-1.51455">
        <ele>3.2</ele>
        <time>2025-07-04T10:25:32Z</time>
      </trkpt>
      <trkpt lat="46.23497" lon="-1.51455">
        <ele>3.8</ele>
        <time>2025-07-04T10:25:39Z</time>
      </trkpt>
      <trkpt lat="46.23497" lon="-1.51455">
        <ele>3.8</ele>
        <time>2025-07-04T10:25:41Z</time>
      </trkpt>
      <trkpt lat="46.23504" lon="-1.51452">
        <ele>2.6</ele>
        <time>2025-07-04T10:26:00Z</time>
      </trkpt>
      <trkpt lat="46.23513" lon="-1.51443">
        <ele>2.8</ele>
        <time>2025-07-04T10:26:06Z</time>
      </trkpt>
      <trkpt lat="46.23513" lon="-1.51439">
        <ele>2.4</ele>
        <time>2025-07-04T10:26:08Z</time>
      </trkpt>
      <trkpt lat="46.23507" lon="-1.51429">
        <ele>3.8</ele>
        <time>2025-07-04T10:26:14Z</time>
      </trkpt>
      <trkpt lat="46.23494" lon="-1.51421">
        <ele>3.8</ele>
        <time>2025-07-04T10:26:24Z</time>
      </trkpt>
      <trkpt lat="46.23485" lon="-1.51412">
        <ele>3.2</ele>
        <time>2025-07-04T10:26:33Z</time>
      </trkpt>
      <trkpt lat="46.23482" lon="-1.51409">
        <ele>3.4</ele>
        <time>2025-07-04T10:26:36Z</time>
      </trkpt>
      <trkpt lat="46.23476" lon="-1.51404">
        <ele>3</ele>
        <time>2025-07-04T10:26:41Z</time>
      </trkpt>
      <trkpt lat="46.23463" lon="-1.51391">
        <ele>2.6</ele>
        <time>2025-07-04T10:26:52Z</time>
      </trkpt>
      <trkpt lat="46.23454" lon="-1.51385">
        <ele>2.4</ele>
        <time>2025-07-04T10:27:00Z</time>
      </trkpt>
      <trkpt lat="46.23452" lon="-1.51384">
        <ele>2.2</ele>
        <time>2025-07-04T10:27:01Z</time>
      </trkpt>
      <trkpt lat="46.23445" lon="-1.51381">
        <ele>3</ele>
        <time>2025-07-04T10:27:08Z</time>
      </trkpt>
      <trkpt lat="46.23444" lon="-1.51382">
        <ele>3.2</ele>
        <time>2025-07-04T10:27:09Z</time>
      </trkpt>
      <trkpt lat="46.23444" lon="-1.51382">
        <ele>3.2</ele>
        <time>2025-07-04T10:27:10Z</time>
      </trkpt>
      <trkpt lat="46.23443" lon="-1.51381">
        <ele>3.4</ele>
        <time>2025-07-04T10:27:11Z</time>
      </trkpt>
      <trkpt lat="46.23442" lon="-1.51379">
        <ele>3.4</ele>
        <time>2025-07-04T10:27:13Z</time>
      </trkpt>
      <trkpt lat="46.23434" lon="-1.51371">
        <ele>2.2</ele>
        <time>2025-07-04T10:27:20Z</time>
      </trkpt>
      <trkpt lat="46.2343" lon="-1.51364">
        <ele>2.2</ele>
        <time>2025-07-04T10:27:24Z</time>
      </trkpt>
      <trkpt lat="46.23422" lon="-1.51357">
        <ele>2.4</ele>
        <time>2025-07-04T10:27:31Z</time>
      </trkpt>
      <trkpt lat="46.2341" lon="-1.51345">
        <ele>2</ele>
        <time>2025-07-04T10:27:42Z</time>
      </trkpt>
      <trkpt lat="46.23402" lon="-1.51347">
        <ele>2.4</ele>
        <time>2025-07-04T10:27:48Z</time>
      </trkpt>
      <trkpt lat="46.23395" lon="-1.5135">
        <ele>2.4</ele>
        <time>2025-07-04T10:27:53Z</time>
      </trkpt>
      <trkpt lat="46.23394" lon="-1.5135">
        <ele>2.4</ele>
        <time>2025-07-04T10:27:54Z</time>
      </trkpt>
      <trkpt lat="46.23386" lon="-1.51353">
        <ele>2.4</ele>
        <time>2025-07-04T10:28:01Z</time>
      </trkpt>
      <trkpt lat="46.23374" lon="-1.51347">
        <ele>2</ele>
        <time>2025-07-04T10:28:11Z</time>
      </trkpt>
      <trkpt lat="46.23364" lon="-1.51339">
        <ele>2</ele>
        <time>2025-07-04T10:28:20Z</time>
      </trkpt>
      <trkpt lat="46.23355" lon="-1.51328">
        <ele>1.6</ele>
        <time>2025-07-04T10:28:28Z</time>
      </trkpt>
      <trkpt lat="46.23353" lon="-1.51326">
        <ele>1.2</ele>
        <time>2025-07-04T10:28:30Z</time>
      </trkpt>
      <trkpt lat="46.2335" lon="-1.51318">
        <ele>0.80000000000001</ele>
        <time>2025-07-04T10:28:35Z</time>
      </trkpt>
      <trkpt lat="46.23347" lon="-1.51307">
        <ele>1.2</ele>
        <time>2025-07-04T10:28:41Z</time>
      </trkpt>
      <trkpt lat="46.23346" lon="-1.51301">
        <ele>1.4</ele>
        <time>2025-07-04T10:28:44Z</time>
      </trkpt>
      <trkpt lat="46.23346" lon="-1.51299">
        <ele>1.4</ele>
        <time>2025-07-04T10:28:45Z</time>
      </trkpt>
      <trkpt lat="46.23343" lon="-1.51287">
        <ele>1.6</ele>
        <time>2025-07-04T10:28:51Z</time>
      </trkpt>
      <trkpt lat="46.23341" lon="-1.51282">
        <ele>2</ele>
        <time>2025-07-04T10:28:56Z</time>
      </trkpt>
      <trkpt lat="46.23344" lon="-1.51279">
        <ele>2.4</ele>
        <time>2025-07-04T10:29:01Z</time>
      </trkpt>
      <trkpt lat="46.23345" lon="-1.51278">
        <ele>2.4</ele>
        <time>2025-07-04T10:29:02Z</time>
      </trkpt>
      <trkpt lat="46.23355" lon="-1.51272">
        <ele>2.6</ele>
        <time>2025-07-04T10:29:10Z</time>
      </trkpt>
      <trkpt lat="46.23367" lon="-1.51265">
        <ele>2.6</ele>
        <time>2025-07-04T10:29:19Z</time>
      </trkpt>
      <trkpt lat="46.23377" lon="-1.51261">
        <ele>2.4</ele>
        <time>2025-07-04T10:29:26Z</time>
      </trkpt>
      <trkpt lat="46.23378" lon="-1.5126">
        <ele>2.4</ele>
        <time>2025-07-04T10:29:27Z</time>
      </trkpt>
      <trkpt lat="46.23379" lon="-1.51259">
        <ele>2.4</ele>
        <time>2025-07-04T10:29:28Z</time>
      </trkpt>
      <trkpt lat="46.2338" lon="-1.51259">
        <ele>2.4</ele>
        <time>2025-07-04T10:29:29Z</time>
      </trkpt>
      <trkpt lat="46.23384" lon="-1.51258">
        <ele>2.6</ele>
        <time>2025-07-04T10:29:32Z</time>
      </trkpt>
      <trkpt lat="46.23389" lon="-1.51254">
        <ele>2.6</ele>
        <time>2025-07-04T10:29:36Z</time>
      </trkpt>
      <trkpt lat="46.23397" lon="-1.51247">
        <ele>2.6</ele>
        <time>2025-07-04T10:29:43Z</time>
      </trkpt>
      <trkpt lat="46.23398" lon="-1.51245">
        <ele>2.4</ele>
        <time>2025-07-04T10:29:44Z</time>
      </trkpt>
      <trkpt lat="46.23397" lon="-1.51236">
        <ele>2.2</ele>
        <time>2025-07-04T10:29:48Z</time>
      </trkpt>
      <trkpt lat="46.23396" lon="-1.51231">
        <ele>2.2</ele>
        <time>2025-07-04T10:29:51Z</time>
      </trkpt>
      <trkpt lat="46.2339" lon="-1.51215">
        <ele>2.4</ele>
        <time>2025-07-04T10:30:00Z</time>
      </trkpt>
      <trkpt lat="46.23383" lon="-1.51195">
        <ele>2.4</ele>
        <time>2025-07-04T10:30:11Z</time>
      </trkpt>
      <trkpt lat="46.23377" lon="-1.51175">
        <ele>2.8</ele>
        <time>2025-07-04T10:30:22Z</time>
      </trkpt>
      <trkpt lat="46.23378" lon="-1.51156">
        <ele>2.2</ele>
        <time>2025-07-04T10:30:32Z</time>
      </trkpt>
      <trkpt lat="46.23386" lon="-1.51147">
        <ele>2.4</ele>
        <time>2025-07-04T10:30:39Z</time>
      </trkpt>
      <trkpt lat="46.23391" lon="-1.51135">
        <ele>2.4</ele>
        <time>2025-07-04T10:30:46Z</time>
      </trkpt>
      <trkpt lat="46.23389" lon="-1.5112">
        <ele>2.6</ele>
        <time>2025-07-04T10:30:53Z</time>
      </trkpt>
      <trkpt lat="46.23388" lon="-1.51118">
        <ele>2.6</ele>
        <time>2025-07-04T10:30:54Z</time>
      </trkpt>
      <trkpt lat="46.23385" lon="-1.51098">
        <ele>2</ele>
        <time>2025-07-04T10:31:04Z</time>
      </trkpt>
      <trkpt lat="46.23391" lon="-1.51088">
        <ele>2.4</ele>
        <time>2025-07-04T10:31:11Z</time>
      </trkpt>
      <trkpt lat="46.23405" lon="-1.51072">
        <ele>2.6</ele>
        <time>2025-07-04T10:31:24Z</time>
      </trkpt>
      <trkpt lat="46.23417" lon="-1.51061">
        <ele>2.8</ele>
        <time>2025-07-04T10:31:35Z</time>
      </trkpt>
      <trkpt lat="46.2343" lon="-1.51049">
        <ele>3.2</ele>
        <time>2025-07-04T10:31:47Z</time>
      </trkpt>
      <trkpt lat="46.23446" lon="-1.51037">
        <ele>3.2</ele>
        <time>2025-07-04T10:31:59Z</time>
      </trkpt>
      <trkpt lat="46.23452" lon="-1.51032">
        <ele>3.4</ele>
        <time>2025-07-04T10:32:04Z</time>
      </trkpt>
      <trkpt lat="46.23454" lon="-1.51032">
        <ele>3.4</ele>
        <time>2025-07-04T10:32:05Z</time>
      </trkpt>
      <trkpt lat="46.23458" lon="-1.51028">
        <ele>3.4</ele>
        <time>2025-07-04T10:32:09Z</time>
      </trkpt>
      <trkpt lat="46.2347" lon="-1.51018">
        <ele>3.8</ele>
        <time>2025-07-04T10:32:19Z</time>
      </trkpt>
      <trkpt lat="46.23475" lon="-1.51015">
        <ele>3.8</ele>
        <time>2025-07-04T10:32:23Z</time>
      </trkpt>
      <trkpt lat="46.23482" lon="-1.5101">
        <ele>3.2</ele>
        <time>2025-07-04T10:32:28Z</time>
      </trkpt>
      <trkpt lat="46.23487" lon="-1.51007">
        <ele>3</ele>
        <time>2025-07-04T10:32:32Z</time>
      </trkpt>
      <trkpt lat="46.23488" lon="-1.51005">
        <ele>3.2</ele>
        <time>2025-07-04T10:32:33Z</time>
      </trkpt>
      <trkpt lat="46.23491" lon="-1.51003">
        <ele>3.4</ele>
        <time>2025-07-04T10:32:35Z</time>
      </trkpt>
      <trkpt lat="46.235" lon="-1.50998">
        <ele>4.6</ele>
        <time>2025-07-04T10:32:42Z</time>
      </trkpt>
      <trkpt lat="46.23501" lon="-1.50998">
        <ele>5.2</ele>
        <time>2025-07-04T10:32:43Z</time>
      </trkpt>
      <trkpt lat="46.23503" lon="-1.50997">
        <ele>5.6</ele>
        <time>2025-07-04T10:32:44Z</time>
      </trkpt>
      <trkpt lat="46.23511" lon="-1.50991">
        <ele>4.4</ele>
        <time>2025-07-04T10:32:50Z</time>
      </trkpt>
      <trkpt lat="46.23514" lon="-1.50989">
        <ele>4.2</ele>
        <time>2025-07-04T10:32:53Z</time>
      </trkpt>
      <trkpt lat="46.23518" lon="-1.50985">
        <ele>4.6</ele>
        <time>2025-07-04T10:32:57Z</time>
      </trkpt>
      <trkpt lat="46.23525" lon="-1.50978">
        <ele>4.6</ele>
        <time>2025-07-04T10:33:03Z</time>
      </trkpt>
      <trkpt lat="46.23535" lon="-1.50968">
        <ele>5</ele>
        <time>2025-07-04T10:33:12Z</time>
      </trkpt>
      <trkpt lat="46.23544" lon="-1.5096">
        <ele>5</ele>
        <time>2025-07-04T10:33:20Z</time>
      </trkpt>
      <trkpt lat="46.23556" lon="-1.50951">
        <ele>4.8</ele>
        <time>2025-07-04T10:33:30Z</time>
      </trkpt>
      <trkpt lat="46.23567" lon="-1.50938">
        <ele>5</ele>
        <time>2025-07-04T10:33:41Z</time>
      </trkpt>
      <trkpt lat="46.2358" lon="-1.50926">
        <ele>5</ele>
        <time>2025-07-04T10:33:52Z</time>
      </trkpt>
      <trkpt lat="46.23581" lon="-1.50926">
        <ele>5</ele>
        <time>2025-07-04T10:33:53Z</time>
      </trkpt>
      <trkpt lat="46.23587" lon="-1.50918">
        <ele>4.4</ele>
        <time>2025-07-04T10:33:59Z</time>
      </trkpt>
      <trkpt lat="46.23598" lon="-1.50906">
        <ele>4.6</ele>
        <time>2025-07-04T10:34:09Z</time>
      </trkpt>
      <trkpt lat="46.23609" lon="-1.50897">
        <ele>4.4</ele>
        <time>2025-07-04T10:34:19Z</time>
      </trkpt>
      <trkpt lat="46.2362" lon="-1.50886">
        <ele>4.4</ele>
        <time>2025-07-04T10:34:29Z</time>
      </trkpt>
      <trkpt lat="46.23629" lon="-1.50875">
        <ele>4.8</ele>
        <time>2025-07-04T10:34:37Z</time>
      </trkpt>
      <trkpt lat="46.23632" lon="-1.50862">
        <ele>4.8</ele>
        <time>2025-07-04T10:34:44Z</time>
      </trkpt>
      <trkpt lat="46.23631" lon="-1.50846">
        <ele>4.4</ele>
        <time>2025-07-04T10:34:54Z</time>
      </trkpt>
      <trkpt lat="46.23628" lon="-1.50843">
        <ele>4.4</ele>
        <time>2025-07-04T10:35:02Z</time>
      </trkpt>
      <trkpt lat="46.2363" lon="-1.50839">
        <ele>4.2</ele>
        <time>2025-07-04T10:35:14Z</time>
      </trkpt>
      <trkpt lat="46.23636" lon="-1.50822">
        <ele>4.6</ele>
        <time>2025-07-04T10:35:22Z</time>
      </trkpt>
      <trkpt lat="46.23639" lon="-1.50809">
        <ele>4.2</ele>
        <time>2025-07-04T10:35:29Z</time>
      </trkpt>
      <trkpt lat="46.2364" lon="-1.50803">
        <ele>4.6</ele>
        <time>2025-07-04T10:35:32Z</time>
      </trkpt>
      <trkpt lat="46.23643" lon="-1.50793">
        <ele>4.6</ele>
        <time>2025-07-04T10:35:37Z</time>
      </trkpt>
      <trkpt lat="46.23645" lon="-1.50786">
        <ele>4.8</ele>
        <time>2025-07-04T10:35:41Z</time>
      </trkpt>
      <trkpt lat="46.23647" lon="-1.5078">
        <ele>5</ele>
        <time>2025-07-04T10:35:44Z</time>
      </trkpt>
      <trkpt lat="46.23647" lon="-1.50778">
        <ele>5</ele>
        <time>2025-07-04T10:35:45Z</time>
      </trkpt>
      <trkpt lat="46.23651" lon="-1.50756">
        <ele>5</ele>
        <time>2025-07-04T10:35:56Z</time>
      </trkpt>
      <trkpt lat="46.23653" lon="-1.50749">
        <ele>5.4</ele>
        <time>2025-07-04T10:36:01Z</time>
      </trkpt>
      <trkpt lat="46.23653" lon="-1.50747">
        <ele>5.4</ele>
        <time>2025-07-04T10:36:02Z</time>
      </trkpt>
      <trkpt lat="46.23652" lon="-1.50747">
        <ele>5.4</ele>
        <time>2025-07-04T10:36:03Z</time>
      </trkpt>
      <trkpt lat="46.23654" lon="-1.50746">
        <ele>5.6</ele>
        <time>2025-07-04T10:36:05Z</time>
      </trkpt>
      <trkpt lat="46.23655" lon="-1.50745">
        <ele>5.4</ele>
        <time>2025-07-04T10:36:06Z</time>
      </trkpt>
      <trkpt lat="46.23666" lon="-1.50733">
        <ele>5.6</ele>
        <time>2025-07-04T10:36:15Z</time>
      </trkpt>
      <trkpt lat="46.23672" lon="-1.50722">
        <ele>5</ele>
        <time>2025-07-04T10:36:22Z</time>
      </trkpt>
      <trkpt lat="46.23679" lon="-1.50713">
        <ele>4.8</ele>
        <time>2025-07-04T10:36:29Z</time>
      </trkpt>
      <trkpt lat="46.23689" lon="-1.507">
        <ele>4.8</ele>
        <time>2025-07-04T10:36:38Z</time>
      </trkpt>
      <trkpt lat="46.2369" lon="-1.50699">
        <ele>4.8</ele>
        <time>2025-07-04T10:36:39Z</time>
      </trkpt>
      <trkpt lat="46.23691" lon="-1.50696">
        <ele>4.8</ele>
        <time>2025-07-04T10:36:41Z</time>
      </trkpt>
      <trkpt lat="46.23691" lon="-1.50694">
        <ele>5</ele>
        <time>2025-07-04T10:36:42Z</time>
      </trkpt>
      <trkpt lat="46.23696" lon="-1.50685">
        <ele>5.4</ele>
        <time>2025-07-04T10:36:48Z</time>
      </trkpt>
      <trkpt lat="46.23699" lon="-1.50681">
        <ele>5.2</ele>
        <time>2025-07-04T10:36:55Z</time>
      </trkpt>
      <trkpt lat="46.23701" lon="-1.50678">
        <ele>5.2</ele>
        <time>2025-07-04T10:37:04Z</time>
      </trkpt>
      <trkpt lat="46.23703" lon="-1.50673">
        <ele>5</ele>
        <time>2025-07-04T10:37:07Z</time>
      </trkpt>
      <trkpt lat="46.23706" lon="-1.50667">
        <ele>5</ele>
        <time>2025-07-04T10:37:11Z</time>
      </trkpt>
      <trkpt lat="46.23713" lon="-1.50657">
        <ele>5.2</ele>
        <time>2025-07-04T10:37:18Z</time>
      </trkpt>
      <trkpt lat="46.2372" lon="-1.50642">
        <ele>5.2</ele>
        <time>2025-07-04T10:37:29Z</time>
      </trkpt>
      <trkpt lat="46.23723" lon="-1.50634">
        <ele>5</ele>
        <time>2025-07-04T10:37:34Z</time>
      </trkpt>
      <trkpt lat="46.23726" lon="-1.50629">
        <ele>4.8</ele>
        <time>2025-07-04T10:37:38Z</time>
      </trkpt>
      <trkpt lat="46.23732" lon="-1.50618">
        <ele>5</ele>
        <time>2025-07-04T10:37:46Z</time>
      </trkpt>
      <trkpt lat="46.23739" lon="-1.50608">
        <ele>5</ele>
        <time>2025-07-04T10:37:53Z</time>
      </trkpt>
      <trkpt lat="46.23749" lon="-1.50596">
        <ele>5</ele>
        <time>2025-07-04T10:38:03Z</time>
      </trkpt>
      <trkpt lat="46.2375" lon="-1.50591">
        <ele>5</ele>
        <time>2025-07-04T10:38:06Z</time>
      </trkpt>
      <trkpt lat="46.23754" lon="-1.50587">
        <ele>4.8</ele>
        <time>2025-07-04T10:38:09Z</time>
      </trkpt>
      <trkpt lat="46.23758" lon="-1.50579">
        <ele>4.8</ele>
        <time>2025-07-04T10:38:14Z</time>
      </trkpt>
      <trkpt lat="46.23762" lon="-1.50575">
        <ele>4.6</ele>
        <time>2025-07-04T10:38:17Z</time>
      </trkpt>
      <trkpt lat="46.23767" lon="-1.50567">
        <ele>4.4</ele>
        <time>2025-07-04T10:38:23Z</time>
      </trkpt>
      <trkpt lat="46.2377" lon="-1.50564">
        <ele>4.4</ele>
        <time>2025-07-04T10:38:26Z</time>
      </trkpt>
      <trkpt lat="46.23777" lon="-1.50553">
        <ele>4.6</ele>
        <time>2025-07-04T10:38:34Z</time>
      </trkpt>
      <trkpt lat="46.23789" lon="-1.50539">
        <ele>5</ele>
        <time>2025-07-04T10:38:46Z</time>
      </trkpt>
      <trkpt lat="46.23795" lon="-1.50533">
        <ele>5</ele>
        <time>2025-07-04T10:38:52Z</time>
      </trkpt>
      <trkpt lat="46.23801" lon="-1.50528">
        <ele>4.8</ele>
        <time>2025-07-04T10:38:57Z</time>
      </trkpt>
      <trkpt lat="46.23806" lon="-1.50524">
        <ele>4.8</ele>
        <time>2025-07-04T10:39:01Z</time>
      </trkpt>
      <trkpt lat="46.23807" lon="-1.50523">
        <ele>5</ele>
        <time>2025-07-04T10:39:02Z</time>
      </trkpt>
      <trkpt lat="46.23819" lon="-1.50515">
        <ele>5</ele>
        <time>2025-07-04T10:39:13Z</time>
      </trkpt>
      <trkpt lat="46.23821" lon="-1.50514">
        <ele>5</ele>
        <time>2025-07-04T10:39:14Z</time>
      </trkpt>
      <trkpt lat="46.23825" lon="-1.5051">
        <ele>5</ele>
        <time>2025-07-04T10:39:18Z</time>
      </trkpt>
      <trkpt lat="46.23829" lon="-1.50508">
        <ele>5.2</ele>
        <time>2025-07-04T10:39:21Z</time>
      </trkpt>
      <trkpt lat="46.23833" lon="-1.50506">
        <ele>5.4</ele>
        <time>2025-07-04T10:39:24Z</time>
      </trkpt>
      <trkpt lat="46.23841" lon="-1.50501">
        <ele>5.4</ele>
        <time>2025-07-04T10:39:31Z</time>
      </trkpt>
      <trkpt lat="46.2385" lon="-1.50493">
        <ele>5</ele>
        <time>2025-07-04T10:39:39Z</time>
      </trkpt>
      <trkpt lat="46.23862" lon="-1.50485">
        <ele>4.6</ele>
        <time>2025-07-04T10:39:48Z</time>
      </trkpt>
      <trkpt lat="46.23872" lon="-1.50483">
        <ele>4.4</ele>
        <time>2025-07-04T10:39:55Z</time>
      </trkpt>
      <trkpt lat="46.23885" lon="-1.50485">
        <ele>4.4</ele>
        <time>2025-07-04T10:40:06Z</time>
      </trkpt>
      <trkpt lat="46.23899" lon="-1.50488">
        <ele>4</ele>
        <time>2025-07-04T10:40:16Z</time>
      </trkpt>
      <trkpt lat="46.23907" lon="-1.50488">
        <ele>3.8</ele>
        <time>2025-07-04T10:40:22Z</time>
      </trkpt>
      <trkpt lat="46.23912" lon="-1.50487">
        <ele>3.8</ele>
        <time>2025-07-04T10:40:25Z</time>
      </trkpt>
      <trkpt lat="46.23926" lon="-1.50486">
        <ele>4</ele>
        <time>2025-07-04T10:40:34Z</time>
      </trkpt>
      <trkpt lat="46.23927" lon="-1.50485">
        <ele>4</ele>
        <time>2025-07-04T10:40:35Z</time>
      </trkpt>
      <trkpt lat="46.23936" lon="-1.50485">
        <ele>3.4</ele>
        <time>2025-07-04T10:40:42Z</time>
      </trkpt>
      <trkpt lat="46.23941" lon="-1.50484">
        <ele>3.4</ele>
        <time>2025-07-04T10:40:46Z</time>
      </trkpt>
      <trkpt lat="46.23959" lon="-1.50482">
        <ele>4.2</ele>
        <time>2025-07-04T10:40:59Z</time>
      </trkpt>
      <trkpt lat="46.23973" lon="-1.50475">
        <ele>4.4</ele>
        <time>2025-07-04T10:41:10Z</time>
      </trkpt>
      <trkpt lat="46.23975" lon="-1.50474">
        <ele>4.4</ele>
        <time>2025-07-04T10:41:12Z</time>
      </trkpt>
      <trkpt lat="46.23989" lon="-1.50461">
        <ele>4.8</ele>
        <time>2025-07-04T10:41:24Z</time>
      </trkpt>
      <trkpt lat="46.24" lon="-1.50446">
        <ele>5.4</ele>
        <time>2025-07-04T10:41:35Z</time>
      </trkpt>
      <trkpt lat="46.24001" lon="-1.50444">
        <ele>5.4</ele>
        <time>2025-07-04T10:41:36Z</time>
      </trkpt>
      <trkpt lat="46.24004" lon="-1.50428">
        <ele>5.8</ele>
        <time>2025-07-04T10:41:45Z</time>
      </trkpt>
      <trkpt lat="46.2401" lon="-1.50411">
        <ele>5.8</ele>
        <time>2025-07-04T10:41:55Z</time>
      </trkpt>
      <trkpt lat="46.24024" lon="-1.50407">
        <ele>6.2</ele>
        <time>2025-07-04T10:42:05Z</time>
      </trkpt>
      <trkpt lat="46.24036" lon="-1.50401">
        <ele>5.4</ele>
        <time>2025-07-04T10:42:15Z</time>
      </trkpt>
      <trkpt lat="46.24048" lon="-1.50398">
        <ele>4.6</ele>
        <time>2025-07-04T10:42:24Z</time>
      </trkpt>
      <trkpt lat="46.2405" lon="-1.50398">
        <ele>4.4</ele>
        <time>2025-07-04T10:42:25Z</time>
      </trkpt>
      <trkpt lat="46.24054" lon="-1.50397">
        <ele>4.4</ele>
        <time>2025-07-04T10:42:28Z</time>
      </trkpt>
      <trkpt lat="46.24061" lon="-1.50394">
        <ele>4.6</ele>
        <time>2025-07-04T10:42:34Z</time>
      </trkpt>
      <trkpt lat="46.24062" lon="-1.50393">
        <ele>4.6</ele>
        <time>2025-07-04T10:42:37Z</time>
      </trkpt>
      <trkpt lat="46.2406" lon="-1.50395">
        <ele>4.6</ele>
        <time>2025-07-04T10:42:41Z</time>
      </trkpt>
      <trkpt lat="46.2406" lon="-1.50396">
        <ele>4.6</ele>
        <time>2025-07-04T10:42:42Z</time>
      </trkpt>
      <trkpt lat="46.24059" lon="-1.50397">
        <ele>5</ele>
        <time>2025-07-04T10:42:46Z</time>
      </trkpt>
      <trkpt lat="46.24059" lon="-1.50397">
        <ele>5</ele>
        <time>2025-07-04T10:42:47Z</time>
      </trkpt>
      <trkpt lat="46.24059" lon="-1.50397">
        <ele>4.8</ele>
        <time>2025-07-04T10:42:51Z</time>
      </trkpt>
      <trkpt lat="46.24066" lon="-1.50394">
        <ele>4.4</ele>
        <time>2025-07-04T10:43:05Z</time>
      </trkpt>
      <trkpt lat="46.24067" lon="-1.50393">
        <ele>4.4</ele>
        <time>2025-07-04T10:43:06Z</time>
      </trkpt>
      <trkpt lat="46.24082" lon="-1.50391">
        <ele>4.4</ele>
        <time>2025-07-04T10:43:15Z</time>
      </trkpt>
      <trkpt lat="46.24095" lon="-1.50392">
        <ele>4.6</ele>
        <time>2025-07-04T10:43:25Z</time>
      </trkpt>
      <trkpt lat="46.24109" lon="-1.50393">
        <ele>4.2</ele>
        <time>2025-07-04T10:43:36Z</time>
      </trkpt>
      <trkpt lat="46.24126" lon="-1.5039">
        <ele>4.2</ele>
        <time>2025-07-04T10:43:48Z</time>
      </trkpt>
      <trkpt lat="46.24129" lon="-1.50387">
        <ele>4.4</ele>
        <time>2025-07-04T10:43:51Z</time>
      </trkpt>
      <trkpt lat="46.24133" lon="-1.50385">
        <ele>4.6</ele>
        <time>2025-07-04T10:43:54Z</time>
      </trkpt>
      <trkpt lat="46.24145" lon="-1.50379">
        <ele>4.4</ele>
        <time>2025-07-04T10:44:03Z</time>
      </trkpt>
      <trkpt lat="46.2415" lon="-1.50373">
        <ele>4.4</ele>
        <time>2025-07-04T10:44:08Z</time>
      </trkpt>
      <trkpt lat="46.24154" lon="-1.5037">
        <ele>4.6</ele>
        <time>2025-07-04T10:44:11Z</time>
      </trkpt>
      <trkpt lat="46.24155" lon="-1.50369">
        <ele>4.8</ele>
        <time>2025-07-04T10:44:12Z</time>
      </trkpt>
      <trkpt lat="46.24169" lon="-1.50357">
        <ele>4</ele>
        <time>2025-07-04T10:44:23Z</time>
      </trkpt>
      <trkpt lat="46.24178" lon="-1.50348">
        <ele>4.4</ele>
        <time>2025-07-04T10:44:31Z</time>
      </trkpt>
      <trkpt lat="46.24185" lon="-1.50343">
        <ele>4.4</ele>
        <time>2025-07-04T10:44:36Z</time>
      </trkpt>
      <trkpt lat="46.24185" lon="-1.50342">
        <ele>4.4</ele>
        <time>2025-07-04T10:44:37Z</time>
      </trkpt>
      <trkpt lat="46.24195" lon="-1.50332">
        <ele>3.8</ele>
        <time>2025-07-04T10:44:45Z</time>
      </trkpt>
      <trkpt lat="46.24198" lon="-1.50329">
        <ele>3.8</ele>
        <time>2025-07-04T10:44:48Z</time>
      </trkpt>
      <trkpt lat="46.24205" lon="-1.50321">
        <ele>3.8</ele>
        <time>2025-07-04T10:44:54Z</time>
      </trkpt>
      <trkpt lat="46.24215" lon="-1.50312">
        <ele>4.2</ele>
        <time>2025-07-04T10:45:02Z</time>
      </trkpt>
      <trkpt lat="46.24219" lon="-1.50307">
        <ele>4.2</ele>
        <time>2025-07-04T10:45:06Z</time>
      </trkpt>
      <trkpt lat="46.24229" lon="-1.50298">
        <ele>4</ele>
        <time>2025-07-04T10:45:14Z</time>
      </trkpt>
      <trkpt lat="46.24233" lon="-1.50294">
        <ele>3.6</ele>
        <time>2025-07-04T10:45:18Z</time>
      </trkpt>
      <trkpt lat="46.24235" lon="-1.50291">
        <ele>3.8</ele>
        <time>2025-07-04T10:45:20Z</time>
      </trkpt>
      <trkpt lat="46.24237" lon="-1.50289">
        <ele>3.8</ele>
        <time>2025-07-04T10:45:22Z</time>
      </trkpt>
      <trkpt lat="46.24244" lon="-1.50282">
        <ele>3.6</ele>
        <time>2025-07-04T10:45:29Z</time>
      </trkpt>
      <trkpt lat="46.24258" lon="-1.50271">
        <ele>3.4</ele>
        <time>2025-07-04T10:45:40Z</time>
      </trkpt>
      <trkpt lat="46.24262" lon="-1.50269">
        <ele>3.2</ele>
        <time>2025-07-04T10:45:43Z</time>
      </trkpt>
      <trkpt lat="46.24274" lon="-1.5026">
        <ele>3.8</ele>
        <time>2025-07-04T10:45:53Z</time>
      </trkpt>
      <trkpt lat="46.24287" lon="-1.50249">
        <ele>3.8</ele>
        <time>2025-07-04T10:46:04Z</time>
      </trkpt>
      <trkpt lat="46.24289" lon="-1.50248">
        <ele>3.6</ele>
        <time>2025-07-04T10:46:06Z</time>
      </trkpt>
      <trkpt lat="46.24293" lon="-1.50245">
        <ele>4.4</ele>
        <time>2025-07-04T10:46:09Z</time>
      </trkpt>
      <trkpt lat="46.24301" lon="-1.5024">
        <ele>4.2</ele>
        <time>2025-07-04T10:46:15Z</time>
      </trkpt>
      <trkpt lat="46.24311" lon="-1.50233">
        <ele>4</ele>
        <time>2025-07-04T10:46:23Z</time>
      </trkpt>
      <trkpt lat="46.24314" lon="-1.5023">
        <ele>4</ele>
        <time>2025-07-04T10:46:26Z</time>
      </trkpt>
      <trkpt lat="46.24328" lon="-1.50221">
        <ele>4.2</ele>
        <time>2025-07-04T10:46:37Z</time>
      </trkpt>
      <trkpt lat="46.24341" lon="-1.50214">
        <ele>4.4</ele>
        <time>2025-07-04T10:46:47Z</time>
      </trkpt>
      <trkpt lat="46.24352" lon="-1.50211">
        <ele>3.6</ele>
        <time>2025-07-04T10:46:56Z</time>
      </trkpt>
      <trkpt lat="46.24356" lon="-1.50221">
        <ele>4.4</ele>
        <time>2025-07-04T10:47:03Z</time>
      </trkpt>
      <trkpt lat="46.24359" lon="-1.50236">
        <ele>4.2</ele>
        <time>2025-07-04T10:47:11Z</time>
      </trkpt>
      <trkpt lat="46.2436" lon="-1.50239">
        <ele>4.2</ele>
        <time>2025-07-04T10:47:13Z</time>
      </trkpt>
      <trkpt lat="46.24362" lon="-1.50247">
        <ele>4.4</ele>
        <time>2025-07-04T10:47:17Z</time>
      </trkpt>
      <trkpt lat="46.24365" lon="-1.50265">
        <ele>4.2</ele>
        <time>2025-07-04T10:47:26Z</time>
      </trkpt>
      <trkpt lat="46.24368" lon="-1.50275">
        <ele>4</ele>
        <time>2025-07-04T10:47:32Z</time>
      </trkpt>
      <trkpt lat="46.24369" lon="-1.50278">
        <ele>4</ele>
        <time>2025-07-04T10:47:34Z</time>
      </trkpt>
      <trkpt lat="46.24371" lon="-1.50292">
        <ele>3.8</ele>
        <time>2025-07-04T10:47:41Z</time>
      </trkpt>
      <trkpt lat="46.24375" lon="-1.50308">
        <ele>3.8</ele>
        <time>2025-07-04T10:47:49Z</time>
      </trkpt>
      <trkpt lat="46.24379" lon="-1.50325">
        <ele>3.8</ele>
        <time>2025-07-04T10:47:58Z</time>
      </trkpt>
      <trkpt lat="46.24384" lon="-1.50345">
        <ele>4</ele>
        <time>2025-07-04T10:48:08Z</time>
      </trkpt>
      <trkpt lat="46.24389" lon="-1.50363">
        <ele>3.4</ele>
        <time>2025-07-04T10:48:18Z</time>
      </trkpt>
      <trkpt lat="46.24394" lon="-1.5038">
        <ele>3.4</ele>
        <time>2025-07-04T10:48:27Z</time>
      </trkpt>
      <trkpt lat="46.24397" lon="-1.50392">
        <ele>3.2</ele>
        <time>2025-07-04T10:48:33Z</time>
      </trkpt>
      <trkpt lat="46.24399" lon="-1.50404">
        <ele>3.4</ele>
        <time>2025-07-04T10:48:39Z</time>
      </trkpt>
      <trkpt lat="46.24403" lon="-1.50421">
        <ele>3</ele>
        <time>2025-07-04T10:48:47Z</time>
      </trkpt>
      <trkpt lat="46.24403" lon="-1.50426">
        <ele>3</ele>
        <time>2025-07-04T10:48:49Z</time>
      </trkpt>
      <trkpt lat="46.24406" lon="-1.50436">
        <ele>3.2</ele>
        <time>2025-07-04T10:48:54Z</time>
      </trkpt>
      <trkpt lat="46.24411" lon="-1.50458">
        <ele>3</ele>
        <time>2025-07-04T10:49:05Z</time>
      </trkpt>
      <trkpt lat="46.24417" lon="-1.50483">
        <ele>3</ele>
        <time>2025-07-04T10:49:18Z</time>
      </trkpt>
      <trkpt lat="46.24417" lon="-1.50485">
        <ele>3</ele>
        <time>2025-07-04T10:49:19Z</time>
      </trkpt>
      <trkpt lat="46.24421" lon="-1.50497">
        <ele>3</ele>
        <time>2025-07-04T10:49:26Z</time>
      </trkpt>
      <trkpt lat="46.24427" lon="-1.50515">
        <ele>3</ele>
        <time>2025-07-04T10:49:36Z</time>
      </trkpt>
      <trkpt lat="46.24432" lon="-1.50529">
        <ele>3</ele>
        <time>2025-07-04T10:49:43Z</time>
      </trkpt>
      <trkpt lat="46.24438" lon="-1.50542">
        <ele>3</ele>
        <time>2025-07-04T10:49:51Z</time>
      </trkpt>
      <trkpt lat="46.24444" lon="-1.50556">
        <ele>3</ele>
        <time>2025-07-04T10:50:00Z</time>
      </trkpt>
      <trkpt lat="46.24446" lon="-1.50561">
        <ele>3</ele>
        <time>2025-07-04T10:50:04Z</time>
      </trkpt>
      <trkpt lat="46.24451" lon="-1.50573">
        <ele>3.2</ele>
        <time>2025-07-04T10:50:11Z</time>
      </trkpt>
      <trkpt lat="46.24452" lon="-1.50575">
        <ele>3.2</ele>
        <time>2025-07-04T10:50:12Z</time>
      </trkpt>
      <trkpt lat="46.24452" lon="-1.50576">
        <ele>3.2</ele>
        <time>2025-07-04T10:50:13Z</time>
      </trkpt>
      <trkpt lat="46.24456" lon="-1.50587">
        <ele>3.2</ele>
        <time>2025-07-04T10:50:19Z</time>
      </trkpt>
      <trkpt lat="46.24465" lon="-1.50605">
        <ele>3</ele>
        <time>2025-07-04T10:50:30Z</time>
      </trkpt>
      <trkpt lat="46.2447" lon="-1.50618">
        <ele>2.8</ele>
        <time>2025-07-04T10:50:38Z</time>
      </trkpt>
      <trkpt lat="46.24476" lon="-1.50632">
        <ele>3</ele>
        <time>2025-07-04T10:50:46Z</time>
      </trkpt>
      <trkpt lat="46.24484" lon="-1.50648">
        <ele>2.6</ele>
        <time>2025-07-04T10:50:56Z</time>
      </trkpt>
      <trkpt lat="46.24489" lon="-1.50658">
        <ele>2.4</ele>
        <time>2025-07-04T10:51:01Z</time>
      </trkpt>
      <trkpt lat="46.24494" lon="-1.50669">
        <ele>2.4</ele>
        <time>2025-07-04T10:51:08Z</time>
      </trkpt>
      <trkpt lat="46.245" lon="-1.50685">
        <ele>2.6</ele>
        <time>2025-07-04T10:51:17Z</time>
      </trkpt>
      <trkpt lat="46.24508" lon="-1.50704">
        <ele>2.6</ele>
        <time>2025-07-04T10:51:28Z</time>
      </trkpt>
      <trkpt lat="46.24511" lon="-1.50711">
        <ele>2.6</ele>
        <time>2025-07-04T10:51:31Z</time>
      </trkpt>
      <trkpt lat="46.24514" lon="-1.5072">
        <ele>2.6</ele>
        <time>2025-07-04T10:51:36Z</time>
      </trkpt>
      <trkpt lat="46.24515" lon="-1.50721">
        <ele>2.8</ele>
        <time>2025-07-04T10:51:37Z</time>
      </trkpt>
      <trkpt lat="46.24518" lon="-1.50727">
        <ele>2.8</ele>
        <time>2025-07-04T10:51:40Z</time>
      </trkpt>
      <trkpt lat="46.24521" lon="-1.50735">
        <ele>2.6</ele>
        <time>2025-07-04T10:51:44Z</time>
      </trkpt>
      <trkpt lat="46.24524" lon="-1.50741">
        <ele>2.4</ele>
        <time>2025-07-04T10:51:48Z</time>
      </trkpt>
      <trkpt lat="46.24529" lon="-1.50754">
        <ele>2.4</ele>
        <time>2025-07-04T10:51:55Z</time>
      </trkpt>
      <trkpt lat="46.24535" lon="-1.50766">
        <ele>2.2</ele>
        <time>2025-07-04T10:52:03Z</time>
      </trkpt>
      <trkpt lat="46.24541" lon="-1.5078">
        <ele>2</ele>
        <time>2025-07-04T10:52:11Z</time>
      </trkpt>
      <trkpt lat="46.24542" lon="-1.50781">
        <ele>2</ele>
        <time>2025-07-04T10:52:12Z</time>
      </trkpt>
      <trkpt lat="46.24542" lon="-1.50784">
        <ele>2</ele>
        <time>2025-07-04T10:52:13Z</time>
      </trkpt>
      <trkpt lat="46.24548" lon="-1.50796">
        <ele>2</ele>
        <time>2025-07-04T10:52:20Z</time>
      </trkpt>
      <trkpt lat="46.24556" lon="-1.5081">
        <ele>2</ele>
        <time>2025-07-04T10:52:29Z</time>
      </trkpt>
      <trkpt lat="46.24562" lon="-1.50824">
        <ele>1.8</ele>
        <time>2025-07-04T10:52:37Z</time>
      </trkpt>
      <trkpt lat="46.24564" lon="-1.50831">
        <ele>1.6</ele>
        <time>2025-07-04T10:52:41Z</time>
      </trkpt>
      <trkpt lat="46.24565" lon="-1.50832">
        <ele>1.6</ele>
        <time>2025-07-04T10:52:42Z</time>
      </trkpt>
      <trkpt lat="46.24567" lon="-1.50835">
        <ele>1.6</ele>
        <time>2025-07-04T10:52:44Z</time>
      </trkpt>
      <trkpt lat="46.24568" lon="-1.50836">
        <ele>1.6</ele>
        <time>2025-07-04T10:52:45Z</time>
      </trkpt>
      <trkpt lat="46.24571" lon="-1.50842">
        <ele>1.6</ele>
        <time>2025-07-04T10:52:49Z</time>
      </trkpt>
      <trkpt lat="46.24571" lon="-1.50844">
        <ele>1.6</ele>
        <time>2025-07-04T10:52:50Z</time>
      </trkpt>
      <trkpt lat="46.24572" lon="-1.50847">
        <ele>1.6</ele>
        <time>2025-07-04T10:52:52Z</time>
      </trkpt>
      <trkpt lat="46.24573" lon="-1.50854">
        <ele>1.6</ele>
        <time>2025-07-04T10:52:55Z</time>
      </trkpt>
      <trkpt lat="46.24576" lon="-1.50859">
        <ele>1.4</ele>
        <time>2025-07-04T10:52:58Z</time>
      </trkpt>
      <trkpt lat="46.24578" lon="-1.50865">
        <ele>1.4</ele>
        <time>2025-07-04T10:53:02Z</time>
      </trkpt>
      <trkpt lat="46.2458" lon="-1.50872">
        <ele>1.6</ele>
        <time>2025-07-04T10:53:06Z</time>
      </trkpt>
      <trkpt lat="46.2458" lon="-1.50878">
        <ele>1.8</ele>
        <time>2025-07-04T10:53:09Z</time>
      </trkpt>
      <trkpt lat="46.2458" lon="-1.50885">
        <ele>1.8</ele>
        <time>2025-07-04T10:53:13Z</time>
      </trkpt>
      <trkpt lat="46.24577" lon="-1.50892">
        <ele>1.8</ele>
        <time>2025-07-04T10:53:17Z</time>
      </trkpt>
      <trkpt lat="46.24571" lon="-1.50901">
        <ele>1.6</ele>
        <time>2025-07-04T10:53:24Z</time>
      </trkpt>
      <trkpt lat="46.24563" lon="-1.50908">
        <ele>1.4</ele>
        <time>2025-07-04T10:53:31Z</time>
      </trkpt>
      <trkpt lat="46.2455" lon="-1.50922">
        <ele>1.8</ele>
        <time>2025-07-04T10:53:43Z</time>
      </trkpt>
      <trkpt lat="46.24543" lon="-1.50929">
        <ele>1.4</ele>
        <time>2025-07-04T10:53:49Z</time>
      </trkpt>
      <trkpt lat="46.2454" lon="-1.50932">
        <ele>1</ele>
        <time>2025-07-04T10:53:52Z</time>
      </trkpt>
      <trkpt lat="46.24535" lon="-1.50938">
        <ele>1</ele>
        <time>2025-07-04T10:53:56Z</time>
      </trkpt>
      <trkpt lat="46.2453" lon="-1.50948">
        <ele>1.2</ele>
        <time>2025-07-04T10:54:03Z</time>
      </trkpt>
      <trkpt lat="46.2452" lon="-1.50957">
        <ele>1.2</ele>
        <time>2025-07-04T10:54:11Z</time>
      </trkpt>
      <trkpt lat="46.24519" lon="-1.50958">
        <ele>1.2</ele>
        <time>2025-07-04T10:54:12Z</time>
      </trkpt>
      <trkpt lat="46.2451" lon="-1.50969">
        <ele>1.2</ele>
        <time>2025-07-04T10:54:21Z</time>
      </trkpt>
      <trkpt lat="46.24508" lon="-1.50976">
        <ele>1</ele>
        <time>2025-07-04T10:54:25Z</time>
      </trkpt>
      <trkpt lat="46.24509" lon="-1.50984">
        <ele>1</ele>
        <time>2025-07-04T10:54:29Z</time>
      </trkpt>
      <trkpt lat="46.24512" lon="-1.51002">
        <ele>1.4</ele>
        <time>2025-07-04T10:54:38Z</time>
      </trkpt>
      <trkpt lat="46.24513" lon="-1.51003">
        <ele>1.2</ele>
        <time>2025-07-04T10:54:39Z</time>
      </trkpt>
      <trkpt lat="46.24516" lon="-1.51012">
        <ele>1</ele>
        <time>2025-07-04T10:54:44Z</time>
      </trkpt>
      <trkpt lat="46.2452" lon="-1.51033">
        <ele>1.2</ele>
        <time>2025-07-04T10:54:54Z</time>
      </trkpt>
      <trkpt lat="46.24526" lon="-1.51054">
        <ele>0.80000000000001</ele>
        <time>2025-07-04T10:55:05Z</time>
      </trkpt>
      <trkpt lat="46.24532" lon="-1.51073">
        <ele>0.60000000000002</ele>
        <time>2025-07-04T10:55:15Z</time>
      </trkpt>
      <trkpt lat="46.24535" lon="-1.51079">
        <ele>0.39999999999998</ele>
        <time>2025-07-04T10:55:19Z</time>
      </trkpt>
      <trkpt lat="46.24541" lon="-1.51092">
        <ele>0.39999999999998</ele>
        <time>2025-07-04T10:55:27Z</time>
      </trkpt>
      <trkpt lat="46.24547" lon="-1.5111">
        <ele>0.39999999999998</ele>
        <time>2025-07-04T10:55:37Z</time>
      </trkpt>
      <trkpt lat="46.24552" lon="-1.51123">
        <ele>0.19999999999999</ele>
        <time>2025-07-04T10:55:44Z</time>
      </trkpt>
      <trkpt lat="46.24559" lon="-1.51134">
        <ele>0.19999999999999</ele>
        <time>2025-07-04T10:55:52Z</time>
      </trkpt>
      <trkpt lat="46.24565" lon="-1.51148">
        <ele>0.39999999999998</ele>
        <time>2025-07-04T10:56:00Z</time>
      </trkpt>
      <trkpt lat="46.24572" lon="-1.51159">
        <ele>0.19999999999999</ele>
        <time>2025-07-04T10:56:07Z</time>
      </trkpt>
      <trkpt lat="46.24583" lon="-1.5117">
        <ele>0.60000000000002</ele>
        <time>2025-07-04T10:56:17Z</time>
      </trkpt>
      <trkpt lat="46.24597" lon="-1.51177">
        <ele>1</ele>
        <time>2025-07-04T10:56:27Z</time>
      </trkpt>
      <trkpt lat="46.24598" lon="-1.51178">
        <ele>1</ele>
        <time>2025-07-04T10:56:28Z</time>
      </trkpt>
      <trkpt lat="46.24614" lon="-1.51177">
        <ele>1.2</ele>
        <time>2025-07-04T10:56:39Z</time>
      </trkpt>
      <trkpt lat="46.24618" lon="-1.51177">
        <ele>1.4</ele>
        <time>2025-07-04T10:56:42Z</time>
      </trkpt>
      <trkpt lat="46.24629" lon="-1.51175">
        <ele>1.4</ele>
        <time>2025-07-04T10:56:50Z</time>
      </trkpt>
      <trkpt lat="46.24641" lon="-1.51171">
        <ele>1.2</ele>
        <time>2025-07-04T10:57:00Z</time>
      </trkpt>
      <trkpt lat="46.2466" lon="-1.51164">
        <ele>1.6</ele>
        <time>2025-07-04T10:57:13Z</time>
      </trkpt>
      <trkpt lat="46.24661" lon="-1.51163">
        <ele>1.6</ele>
        <time>2025-07-04T10:57:14Z</time>
      </trkpt>
      <trkpt lat="46.24679" lon="-1.5116">
        <ele>1.6</ele>
        <time>2025-07-04T10:57:26Z</time>
      </trkpt>
      <trkpt lat="46.24684" lon="-1.51159">
        <ele>1.6</ele>
        <time>2025-07-04T10:57:30Z</time>
      </trkpt>
      <trkpt lat="46.24689" lon="-1.51163">
        <ele>1.8</ele>
        <time>2025-07-04T10:57:34Z</time>
      </trkpt>
      <trkpt lat="46.24694" lon="-1.51177">
        <ele>2</ele>
        <time>2025-07-04T10:57:42Z</time>
      </trkpt>
      <trkpt lat="46.24698" lon="-1.51189">
        <ele>2</ele>
        <time>2025-07-04T10:57:49Z</time>
      </trkpt>
      <trkpt lat="46.24703" lon="-1.51205">
        <ele>2</ele>
        <time>2025-07-04T10:57:57Z</time>
      </trkpt>
      <trkpt lat="46.24708" lon="-1.5122">
        <ele>2.2</ele>
        <time>2025-07-04T10:58:05Z</time>
      </trkpt>
      <trkpt lat="46.24712" lon="-1.51232">
        <ele>2.2</ele>
        <time>2025-07-04T10:58:12Z</time>
      </trkpt>
      <trkpt lat="46.24713" lon="-1.51234">
        <ele>1.8</ele>
        <time>2025-07-04T10:58:16Z</time>
      </trkpt>
      <trkpt lat="46.24714" lon="-1.51235">
        <ele>1.8</ele>
        <time>2025-07-04T10:58:17Z</time>
      </trkpt>
      <trkpt lat="46.24715" lon="-1.51236">
        <ele>1.8</ele>
        <time>2025-07-04T10:58:18Z</time>
      </trkpt>
      <trkpt lat="46.24717" lon="-1.51239">
        <ele>2</ele>
        <time>2025-07-04T10:58:21Z</time>
      </trkpt>
      <trkpt lat="46.24722" lon="-1.51248">
        <ele>2</ele>
        <time>2025-07-04T10:58:26Z</time>
      </trkpt>
      <trkpt lat="46.24725" lon="-1.51249">
        <ele>1.8</ele>
        <time>2025-07-04T10:58:28Z</time>
      </trkpt>
      <trkpt lat="46.24734" lon="-1.51252">
        <ele>1.8</ele>
        <time>2025-07-04T10:58:34Z</time>
      </trkpt>
      <trkpt lat="46.24746" lon="-1.51253">
        <ele>2</ele>
        <time>2025-07-04T10:58:42Z</time>
      </trkpt>
      <trkpt lat="46.24751" lon="-1.51253">
        <ele>2</ele>
        <time>2025-07-04T10:58:46Z</time>
      </trkpt>
      <trkpt lat="46.24764" lon="-1.51252">
        <ele>1.8</ele>
        <time>2025-07-04T10:58:54Z</time>
      </trkpt>
      <trkpt lat="46.24778" lon="-1.51252">
        <ele>2.2</ele>
        <time>2025-07-04T10:59:03Z</time>
      </trkpt>
      <trkpt lat="46.24782" lon="-1.5125">
        <ele>2</ele>
        <time>2025-07-04T10:59:06Z</time>
      </trkpt>
      <trkpt lat="46.24784" lon="-1.51248">
        <ele>2</ele>
        <time>2025-07-04T10:59:09Z</time>
      </trkpt>
      <trkpt lat="46.24788" lon="-1.51248">
        <ele>2</ele>
        <time>2025-07-04T10:59:12Z</time>
      </trkpt>
      <trkpt lat="46.2479" lon="-1.51249">
        <ele>2.4</ele>
        <time>2025-07-04T10:59:15Z</time>
      </trkpt>
      <trkpt lat="46.2479" lon="-1.51248">
        <ele>2.4</ele>
        <time>2025-07-04T10:59:16Z</time>
      </trkpt>
      <trkpt lat="46.24795" lon="-1.5124">
        <ele>3</ele>
        <time>2025-07-04T10:59:22Z</time>
      </trkpt>
      <trkpt lat="46.24797" lon="-1.5124">
        <ele>3</ele>
        <time>2025-07-04T10:59:24Z</time>
      </trkpt>
      <trkpt lat="46.24799" lon="-1.51243">
        <ele>3.2</ele>
        <time>2025-07-04T10:59:26Z</time>
      </trkpt>
      <trkpt lat="46.248" lon="-1.51245">
        <ele>3.2</ele>
        <time>2025-07-04T10:59:27Z</time>
      </trkpt>
      <trkpt lat="46.24804" lon="-1.51262">
        <ele>2.8</ele>
        <time>2025-07-04T10:59:35Z</time>
      </trkpt>
      <trkpt lat="46.24806" lon="-1.51275">
        <ele>3</ele>
        <time>2025-07-04T10:59:41Z</time>
      </trkpt>
      <trkpt lat="46.24806" lon="-1.51277">
        <ele>3</ele>
        <time>2025-07-04T10:59:42Z</time>
      </trkpt>
      <trkpt lat="46.24807" lon="-1.51281">
        <ele>3</ele>
        <time>2025-07-04T10:59:44Z</time>
      </trkpt>
      <trkpt lat="46.24808" lon="-1.51288">
        <ele>2.8</ele>
        <time>2025-07-04T10:59:47Z</time>
      </trkpt>
      <trkpt lat="46.24809" lon="-1.51302">
        <ele>2.8</ele>
        <time>2025-07-04T10:59:54Z</time>
      </trkpt>
      <trkpt lat="46.24812" lon="-1.51316">
        <ele>2.6</ele>
        <time>2025-07-04T11:00:02Z</time>
      </trkpt>
      <trkpt lat="46.24813" lon="-1.51318">
        <ele>2.6</ele>
        <time>2025-07-04T11:00:03Z</time>
      </trkpt>
      <trkpt lat="46.24816" lon="-1.51332">
        <ele>2.4</ele>
        <time>2025-07-04T11:00:10Z</time>
      </trkpt>
      <trkpt lat="46.24816" lon="-1.51339">
        <ele>2.4</ele>
        <time>2025-07-04T11:00:13Z</time>
      </trkpt>
      <trkpt lat="46.24819" lon="-1.51345">
        <ele>2.6</ele>
        <time>2025-07-04T11:00:17Z</time>
      </trkpt>
      <trkpt lat="46.24825" lon="-1.51348">
        <ele>2.8</ele>
        <time>2025-07-04T11:00:22Z</time>
      </trkpt>
      <trkpt lat="46.24829" lon="-1.51348">
        <ele>2.8</ele>
        <time>2025-07-04T11:00:27Z</time>
      </trkpt>
      <trkpt lat="46.24836" lon="-1.51352">
        <ele>3</ele>
        <time>2025-07-04T11:00:33Z</time>
      </trkpt>
      <trkpt lat="46.24849" lon="-1.51353">
        <ele>3.4</ele>
        <time>2025-07-04T11:00:42Z</time>
      </trkpt>
      <trkpt lat="46.24854" lon="-1.51352">
        <ele>3.2</ele>
        <time>2025-07-04T11:00:46Z</time>
      </trkpt>
      <trkpt lat="46.24857" lon="-1.51351">
        <ele>3.2</ele>
        <time>2025-07-04T11:00:49Z</time>
      </trkpt>
      <trkpt lat="46.24869" lon="-1.51352">
        <ele>3.2</ele>
        <time>2025-07-04T11:00:57Z</time>
      </trkpt>
      <trkpt lat="46.24873" lon="-1.51352">
        <ele>3.4</ele>
        <time>2025-07-04T11:01:00Z</time>
      </trkpt>
      <trkpt lat="46.24882" lon="-1.51352">
        <ele>3.4</ele>
        <time>2025-07-04T11:01:06Z</time>
      </trkpt>
      <trkpt lat="46.24894" lon="-1.51355">
        <ele>3.8</ele>
        <time>2025-07-04T11:01:14Z</time>
      </trkpt>
      <trkpt lat="46.24905" lon="-1.51357">
        <ele>3.8</ele>
        <time>2025-07-04T11:01:22Z</time>
      </trkpt>
      <trkpt lat="46.24917" lon="-1.51362">
        <ele>4.4</ele>
        <time>2025-07-04T11:01:31Z</time>
      </trkpt>
      <trkpt lat="46.24919" lon="-1.51364">
        <ele>4.4</ele>
        <time>2025-07-04T11:01:33Z</time>
      </trkpt>
      <trkpt lat="46.2492" lon="-1.51365">
        <ele>4.4</ele>
        <time>2025-07-04T11:01:34Z</time>
      </trkpt>
      <trkpt lat="46.24923" lon="-1.51367">
        <ele>4.6</ele>
        <time>2025-07-04T11:01:37Z</time>
      </trkpt>
      <trkpt lat="46.24929" lon="-1.5138">
        <ele>5</ele>
        <time>2025-07-04T11:01:44Z</time>
      </trkpt>
      <trkpt lat="46.2493" lon="-1.51383">
        <ele>5.2</ele>
        <time>2025-07-04T11:01:46Z</time>
      </trkpt>
      <trkpt lat="46.24932" lon="-1.51387">
        <ele>5.4</ele>
        <time>2025-07-04T11:01:48Z</time>
      </trkpt>
      <trkpt lat="46.24934" lon="-1.5139">
        <ele>5.6</ele>
        <time>2025-07-04T11:01:50Z</time>
      </trkpt>
      <trkpt lat="46.2494" lon="-1.51402">
        <ele>6.6</ele>
        <time>2025-07-04T11:01:57Z</time>
      </trkpt>
      <trkpt lat="46.24941" lon="-1.51406">
        <ele>6.6</ele>
        <time>2025-07-04T11:01:59Z</time>
      </trkpt>
      <trkpt lat="46.24946" lon="-1.51416">
        <ele>7</ele>
        <time>2025-07-04T11:02:06Z</time>
      </trkpt>
      <trkpt lat="46.24949" lon="-1.51419">
        <ele>7</ele>
        <time>2025-07-04T11:02:08Z</time>
      </trkpt>
      <trkpt lat="46.24956" lon="-1.51428">
        <ele>7.4</ele>
        <time>2025-07-04T11:02:15Z</time>
      </trkpt>
      <trkpt lat="46.24961" lon="-1.51432">
        <ele>7.4</ele>
        <time>2025-07-04T11:02:19Z</time>
      </trkpt>
      <trkpt lat="46.24962" lon="-1.51433">
        <ele>7.4</ele>
        <time>2025-07-04T11:02:20Z</time>
      </trkpt>
      <trkpt lat="46.24967" lon="-1.51435">
        <ele>7.4</ele>
        <time>2025-07-04T11:02:23Z</time>
      </trkpt>
      <trkpt lat="46.24976" lon="-1.51445">
        <ele>7</ele>
        <time>2025-07-04T11:02:31Z</time>
      </trkpt>
      <trkpt lat="46.24984" lon="-1.51451">
        <ele>7.4</ele>
        <time>2025-07-04T11:02:38Z</time>
      </trkpt>
      <trkpt lat="46.24984" lon="-1.51451">
        <ele>7.6</ele>
        <time>2025-07-04T11:02:39Z</time>
      </trkpt>
      <trkpt lat="46.24984" lon="-1.51452">
        <ele>7.6</ele>
        <time>2025-07-04T11:02:40Z</time>
      </trkpt>
      <trkpt lat="46.24983" lon="-1.51453">
        <ele>7.2</ele>
        <time>2025-07-04T11:02:42Z</time>
      </trkpt>
      <trkpt lat="46.24983" lon="-1.51452">
        <ele>7.2</ele>
        <time>2025-07-04T11:02:43Z</time>
      </trkpt>
      <trkpt lat="46.24989" lon="-1.51453">
        <ele>7.4</ele>
        <time>2025-07-04T11:02:48Z</time>
      </trkpt>
      <trkpt lat="46.2499" lon="-1.51453">
        <ele>7.6</ele>
        <time>2025-07-04T11:02:49Z</time>
      </trkpt>
      <trkpt lat="46.24998" lon="-1.51456">
        <ele>7.8</ele>
        <time>2025-07-04T11:02:55Z</time>
      </trkpt>
      <trkpt lat="46.25006" lon="-1.51457">
        <ele>7.8</ele>
        <time>2025-07-04T11:03:02Z</time>
      </trkpt>
      <trkpt lat="46.25019" lon="-1.5146">
        <ele>7.8</ele>
        <time>2025-07-04T11:03:11Z</time>
      </trkpt>
      <trkpt lat="46.25033" lon="-1.5146">
        <ele>7.8</ele>
        <time>2025-07-04T11:03:20Z</time>
      </trkpt>
      <trkpt lat="46.25045" lon="-1.51458">
        <ele>8.2</ele>
        <time>2025-07-04T11:03:27Z</time>
      </trkpt>
      <trkpt lat="46.25054" lon="-1.51456">
        <ele>8.4</ele>
        <time>2025-07-04T11:03:34Z</time>
      </trkpt>
      <trkpt lat="46.25055" lon="-1.51456">
        <ele>8.4</ele>
        <time>2025-07-04T11:03:35Z</time>
      </trkpt>
      <trkpt lat="46.25056" lon="-1.51456">
        <ele>8.6</ele>
        <time>2025-07-04T11:03:36Z</time>
      </trkpt>
      <trkpt lat="46.2506" lon="-1.51454">
        <ele>8.6</ele>
        <time>2025-07-04T11:03:39Z</time>
      </trkpt>
      <trkpt lat="46.25066" lon="-1.51451">
        <ele>9.2</ele>
        <time>2025-07-04T11:03:45Z</time>
      </trkpt>
      <trkpt lat="46.25068" lon="-1.51452">
        <ele>9.2</ele>
        <time>2025-07-04T11:03:47Z</time>
      </trkpt>
      <trkpt lat="46.25076" lon="-1.51454">
        <ele>9.6</ele>
        <time>2025-07-04T11:03:54Z</time>
      </trkpt>
      <trkpt lat="46.25081" lon="-1.51454">
        <ele>9.4</ele>
        <time>2025-07-04T11:03:57Z</time>
      </trkpt>
      <trkpt lat="46.25094" lon="-1.51454">
        <ele>9.6</ele>
        <time>2025-07-04T11:04:05Z</time>
      </trkpt>
      <trkpt lat="46.25104" lon="-1.51453">
        <ele>9.4</ele>
        <time>2025-07-04T11:04:12Z</time>
      </trkpt>
      <trkpt lat="46.25106" lon="-1.51453">
        <ele>9.4</ele>
        <time>2025-07-04T11:04:13Z</time>
      </trkpt>
      <trkpt lat="46.25117" lon="-1.5145">
        <ele>9.4</ele>
        <time>2025-07-04T11:04:21Z</time>
      </trkpt>
      <trkpt lat="46.25129" lon="-1.51445">
        <ele>9</ele>
        <time>2025-07-04T11:04:30Z</time>
      </trkpt>
      <trkpt lat="46.2513" lon="-1.51445">
        <ele>8.8</ele>
        <time>2025-07-04T11:04:31Z</time>
      </trkpt>
      <trkpt lat="46.25134" lon="-1.51443">
        <ele>8.6</ele>
        <time>2025-07-04T11:04:35Z</time>
      </trkpt>
      <trkpt lat="46.25137" lon="-1.51442">
        <ele>8.6</ele>
        <time>2025-07-04T11:04:37Z</time>
      </trkpt>
      <trkpt lat="46.25145" lon="-1.51442">
        <ele>8.2</ele>
        <time>2025-07-04T11:04:43Z</time>
      </trkpt>
      <trkpt lat="46.2516" lon="-1.51444">
        <ele>8.4</ele>
        <time>2025-07-04T11:04:53Z</time>
      </trkpt>
      <trkpt lat="46.25173" lon="-1.51447">
        <ele>8</ele>
        <time>2025-07-04T11:05:01Z</time>
      </trkpt>
      <trkpt lat="46.25182" lon="-1.51449">
        <ele>8.2</ele>
        <time>2025-07-04T11:05:07Z</time>
      </trkpt>
      <trkpt lat="46.25184" lon="-1.51449">
        <ele>8.2</ele>
        <time>2025-07-04T11:05:09Z</time>
      </trkpt>
      <trkpt lat="46.25196" lon="-1.51451">
        <ele>8.4</ele>
        <time>2025-07-04T11:05:18Z</time>
      </trkpt>
      <trkpt lat="46.2521" lon="-1.51453">
        <ele>9.2</ele>
        <time>2025-07-04T11:05:28Z</time>
      </trkpt>
      <trkpt lat="46.25216" lon="-1.51454">
        <ele>9.6</ele>
        <time>2025-07-04T11:05:33Z</time>
      </trkpt>
      <trkpt lat="46.25225" lon="-1.51457">
        <ele>10.4</ele>
        <time>2025-07-04T11:05:39Z</time>
      </trkpt>
      <trkpt lat="46.25231" lon="-1.51458">
        <ele>10.8</ele>
        <time>2025-07-04T11:05:43Z</time>
      </trkpt>
      <trkpt lat="46.25234" lon="-1.51458">
        <ele>11</ele>
        <time>2025-07-04T11:05:46Z</time>
      </trkpt>
      <trkpt lat="46.25238" lon="-1.5146">
        <ele>11</ele>
        <time>2025-07-04T11:05:49Z</time>
      </trkpt>
      <trkpt lat="46.25247" lon="-1.5147">
        <ele>11.4</ele>
        <time>2025-07-04T11:05:57Z</time>
      </trkpt>
      <trkpt lat="46.25252" lon="-1.51475">
        <ele>11.8</ele>
        <time>2025-07-04T11:06:02Z</time>
      </trkpt>
      <trkpt lat="46.25255" lon="-1.51476">
        <ele>11.8</ele>
        <time>2025-07-04T11:06:04Z</time>
      </trkpt>
      <trkpt lat="46.25261" lon="-1.51482">
        <ele>11.6</ele>
        <time>2025-07-04T11:06:11Z</time>
      </trkpt>
      <trkpt lat="46.25266" lon="-1.51486">
        <ele>11</ele>
        <time>2025-07-04T11:06:15Z</time>
      </trkpt>
      <trkpt lat="46.25273" lon="-1.51491">
        <ele>11</ele>
        <time>2025-07-04T11:06:19Z</time>
      </trkpt>
      <trkpt lat="46.25275" lon="-1.51491">
        <ele>10.8</ele>
        <time>2025-07-04T11:06:20Z</time>
      </trkpt>
      <trkpt lat="46.25282" lon="-1.51493">
        <ele>10.6</ele>
        <time>2025-07-04T11:06:24Z</time>
      </trkpt>
      <trkpt lat="46.25283" lon="-1.51494">
        <ele>10.6</ele>
        <time>2025-07-04T11:06:25Z</time>
      </trkpt>
      <trkpt lat="46.25291" lon="-1.51504">
        <ele>10.6</ele>
        <time>2025-07-04T11:06:33Z</time>
      </trkpt>
      <trkpt lat="46.253" lon="-1.51511">
        <ele>10.6</ele>
        <time>2025-07-04T11:06:40Z</time>
      </trkpt>
      <trkpt lat="46.25309" lon="-1.51518">
        <ele>10.6</ele>
        <time>2025-07-04T11:06:48Z</time>
      </trkpt>
      <trkpt lat="46.25314" lon="-1.51523">
        <ele>10.6</ele>
        <time>2025-07-04T11:06:54Z</time>
      </trkpt>
      <trkpt lat="46.25323" lon="-1.51526">
        <ele>10.6</ele>
        <time>2025-07-04T11:07:00Z</time>
      </trkpt>
      <trkpt lat="46.25328" lon="-1.51527">
        <ele>10.8</ele>
        <time>2025-07-04T11:07:03Z</time>
      </trkpt>
      <trkpt lat="46.25341" lon="-1.51528">
        <ele>11.4</ele>
        <time>2025-07-04T11:07:12Z</time>
      </trkpt>
      <trkpt lat="46.25349" lon="-1.51529">
        <ele>11.2</ele>
        <time>2025-07-04T11:07:19Z</time>
      </trkpt>
      <trkpt lat="46.25351" lon="-1.5153">
        <ele>11.2</ele>
        <time>2025-07-04T11:07:21Z</time>
      </trkpt>
      <trkpt lat="46.25353" lon="-1.5153">
        <ele>11.2</ele>
        <time>2025-07-04T11:07:22Z</time>
      </trkpt>
      <trkpt lat="46.25361" lon="-1.51531">
        <ele>11.2</ele>
        <time>2025-07-04T11:07:27Z</time>
      </trkpt>
      <trkpt lat="46.2537" lon="-1.51535">
        <ele>10.8</ele>
        <time>2025-07-04T11:07:35Z</time>
      </trkpt>
      <trkpt lat="46.25375" lon="-1.51536">
        <ele>10.8</ele>
        <time>2025-07-04T11:07:38Z</time>
      </trkpt>
      <trkpt lat="46.25381" lon="-1.51537">
        <ele>10.8</ele>
        <time>2025-07-04T11:07:42Z</time>
      </trkpt>
      <trkpt lat="46.25389" lon="-1.51539">
        <ele>11.2</ele>
        <time>2025-07-04T11:07:50Z</time>
      </trkpt>
      <trkpt lat="46.25396" lon="-1.5154">
        <ele>11.8</ele>
        <time>2025-07-04T11:07:55Z</time>
      </trkpt>
      <trkpt lat="46.25398" lon="-1.5154">
        <ele>11.8</ele>
        <time>2025-07-04T11:07:56Z</time>
      </trkpt>
      <trkpt lat="46.25402" lon="-1.51541">
        <ele>12</ele>
        <time>2025-07-04T11:07:58Z</time>
      </trkpt>
      <trkpt lat="46.25408" lon="-1.51542">
        <ele>12.2</ele>
        <time>2025-07-04T11:08:02Z</time>
      </trkpt>
      <trkpt lat="46.25413" lon="-1.51543">
        <ele>12.2</ele>
        <time>2025-07-04T11:08:05Z</time>
      </trkpt>
      <trkpt lat="46.25416" lon="-1.51545">
        <ele>12.2</ele>
        <time>2025-07-04T11:08:07Z</time>
      </trkpt>
      <trkpt lat="46.2543" lon="-1.51548">
        <ele>12.6</ele>
        <time>2025-07-04T11:08:17Z</time>
      </trkpt>
      <trkpt lat="46.2544" lon="-1.51549">
        <ele>12.6</ele>
        <time>2025-07-04T11:08:24Z</time>
      </trkpt>
      <trkpt lat="46.25443" lon="-1.5155">
        <ele>12.6</ele>
        <time>2025-07-04T11:08:26Z</time>
      </trkpt>
      <trkpt lat="46.25454" lon="-1.51553">
        <ele>12.4</ele>
        <time>2025-07-04T11:08:34Z</time>
      </trkpt>
      <trkpt lat="46.25465" lon="-1.51556">
        <ele>12.4</ele>
        <time>2025-07-04T11:08:41Z</time>
      </trkpt>
      <trkpt lat="46.25477" lon="-1.51557">
        <ele>12.2</ele>
        <time>2025-07-04T11:08:51Z</time>
      </trkpt>
      <trkpt lat="46.2549" lon="-1.51558">
        <ele>11.8</ele>
        <time>2025-07-04T11:08:58Z</time>
      </trkpt>
      <trkpt lat="46.25504" lon="-1.51563">
        <ele>11.6</ele>
        <time>2025-07-04T11:09:07Z</time>
      </trkpt>
      <trkpt lat="46.25517" lon="-1.51567">
        <ele>11.4</ele>
        <time>2025-07-04T11:09:17Z</time>
      </trkpt>
      <trkpt lat="46.2553" lon="-1.51572">
        <ele>11.6</ele>
        <time>2025-07-04T11:09:26Z</time>
      </trkpt>
      <trkpt lat="46.25544" lon="-1.5158">
        <ele>12.6</ele>
        <time>2025-07-04T11:09:36Z</time>
      </trkpt>
      <trkpt lat="46.25545" lon="-1.51581">
        <ele>12.8</ele>
        <time>2025-07-04T11:09:37Z</time>
      </trkpt>
      <trkpt lat="46.25551" lon="-1.51584">
        <ele>13.2</ele>
        <time>2025-07-04T11:09:41Z</time>
      </trkpt>
      <trkpt lat="46.2556" lon="-1.51587">
        <ele>12.6</ele>
        <time>2025-07-04T11:09:47Z</time>
      </trkpt>
      <trkpt lat="46.2557" lon="-1.51586">
        <ele>12.2</ele>
        <time>2025-07-04T11:09:53Z</time>
      </trkpt>
      <trkpt lat="46.25573" lon="-1.51586">
        <ele>11.8</ele>
        <time>2025-07-04T11:09:56Z</time>
      </trkpt>
      <trkpt lat="46.25577" lon="-1.51586">
        <ele>11.4</ele>
        <time>2025-07-04T11:09:59Z</time>
      </trkpt>
      <trkpt lat="46.2558" lon="-1.51584">
        <ele>11.4</ele>
        <time>2025-07-04T11:10:01Z</time>
      </trkpt>
      <trkpt lat="46.2559" lon="-1.51579">
        <ele>10.6</ele>
        <time>2025-07-04T11:10:09Z</time>
      </trkpt>
      <trkpt lat="46.25595" lon="-1.51576">
        <ele>10</ele>
        <time>2025-07-04T11:10:13Z</time>
      </trkpt>
      <trkpt lat="46.25597" lon="-1.51573">
        <ele>9.8</ele>
        <time>2025-07-04T11:10:15Z</time>
      </trkpt>
      <trkpt lat="46.25601" lon="-1.51565">
        <ele>9.6</ele>
        <time>2025-07-04T11:10:20Z</time>
      </trkpt>
      <trkpt lat="46.25601" lon="-1.51564">
        <ele>9.4</ele>
        <time>2025-07-04T11:10:21Z</time>
      </trkpt>
      <trkpt lat="46.25608" lon="-1.51551">
        <ele>9.2</ele>
        <time>2025-07-04T11:10:28Z</time>
      </trkpt>
      <trkpt lat="46.25609" lon="-1.51549">
        <ele>9</ele>
        <time>2025-07-04T11:10:29Z</time>
      </trkpt>
      <trkpt lat="46.25616" lon="-1.51535">
        <ele>8.6</ele>
        <time>2025-07-04T11:10:37Z</time>
      </trkpt>
      <trkpt lat="46.25616" lon="-1.51533">
        <ele>8.6</ele>
        <time>2025-07-04T11:10:38Z</time>
      </trkpt>
      <trkpt lat="46.25619" lon="-1.51528">
        <ele>8.6</ele>
        <time>2025-07-04T11:10:41Z</time>
      </trkpt>
      <trkpt lat="46.2562" lon="-1.51526">
        <ele>8.4</ele>
        <time>2025-07-04T11:10:42Z</time>
      </trkpt>
      <trkpt lat="46.25624" lon="-1.51522">
        <ele>7.8</ele>
        <time>2025-07-04T11:10:45Z</time>
      </trkpt>
      <trkpt lat="46.25632" lon="-1.51512">
        <ele>8</ele>
        <time>2025-07-04T11:10:52Z</time>
      </trkpt>
      <trkpt lat="46.25634" lon="-1.5151">
        <ele>7.8</ele>
        <time>2025-07-04T11:10:54Z</time>
      </trkpt>
      <trkpt lat="46.25637" lon="-1.51503">
        <ele>7.8</ele>
        <time>2025-07-04T11:10:58Z</time>
      </trkpt>
      <trkpt lat="46.25646" lon="-1.51491">
        <ele>7.6</ele>
        <time>2025-07-04T11:11:06Z</time>
      </trkpt>
      <trkpt lat="46.2565" lon="-1.51479">
        <ele>7.6</ele>
        <time>2025-07-04T11:11:13Z</time>
      </trkpt>
      <trkpt lat="46.25654" lon="-1.5147">
        <ele>7.8</ele>
        <time>2025-07-04T11:11:18Z</time>
      </trkpt>
      <trkpt lat="46.25655" lon="-1.51467">
        <ele>8</ele>
        <time>2025-07-04T11:11:20Z</time>
      </trkpt>
      <trkpt lat="46.25659" lon="-1.51461">
        <ele>8.4</ele>
        <time>2025-07-04T11:11:25Z</time>
      </trkpt>
      <trkpt lat="46.2566" lon="-1.51459">
        <ele>8.4</ele>
        <time>2025-07-04T11:11:26Z</time>
      </trkpt>
      <trkpt lat="46.25661" lon="-1.51458">
        <ele>8.4</ele>
        <time>2025-07-04T11:11:27Z</time>
      </trkpt>
      <trkpt lat="46.25665" lon="-1.5145">
        <ele>9</ele>
        <time>2025-07-04T11:11:32Z</time>
      </trkpt>
      <trkpt lat="46.25668" lon="-1.51442">
        <ele>9.4</ele>
        <time>2025-07-04T11:11:37Z</time>
      </trkpt>
      <trkpt lat="46.25669" lon="-1.5144">
        <ele>9.6</ele>
        <time>2025-07-04T11:11:38Z</time>
      </trkpt>
      <trkpt lat="46.25669" lon="-1.51439">
        <ele>9.6</ele>
        <time>2025-07-04T11:11:39Z</time>
      </trkpt>
      <trkpt lat="46.25671" lon="-1.51436">
        <ele>9.6</ele>
        <time>2025-07-04T11:11:41Z</time>
      </trkpt>
      <trkpt lat="46.25674" lon="-1.51426">
        <ele>10.2</ele>
        <time>2025-07-04T11:11:46Z</time>
      </trkpt>
      <trkpt lat="46.25674" lon="-1.51417">
        <ele>10.4</ele>
        <time>2025-07-04T11:11:51Z</time>
      </trkpt>
      <trkpt lat="46.25674" lon="-1.51412">
        <ele>10.2</ele>
        <time>2025-07-04T11:11:53Z</time>
      </trkpt>
      <trkpt lat="46.25675" lon="-1.51408">
        <ele>10.2</ele>
        <time>2025-07-04T11:11:55Z</time>
      </trkpt>
      <trkpt lat="46.25676" lon="-1.51405">
        <ele>10</ele>
        <time>2025-07-04T11:11:57Z</time>
      </trkpt>
      <trkpt lat="46.25678" lon="-1.51401">
        <ele>10</ele>
        <time>2025-07-04T11:11:59Z</time>
      </trkpt>
      <trkpt lat="46.25679" lon="-1.514">
        <ele>10</ele>
        <time>2025-07-04T11:12:00Z</time>
      </trkpt>
      <trkpt lat="46.25686" lon="-1.51378">
        <ele>9.2</ele>
        <time>2025-07-04T11:12:11Z</time>
      </trkpt>
      <trkpt lat="46.25688" lon="-1.51359">
        <ele>9</ele>
        <time>2025-07-04T11:12:20Z</time>
      </trkpt>
      <trkpt lat="46.25688" lon="-1.51354">
        <ele>9</ele>
        <time>2025-07-04T11:12:23Z</time>
      </trkpt>
      <trkpt lat="46.25688" lon="-1.51347">
        <ele>9.2</ele>
        <time>2025-07-04T11:12:27Z</time>
      </trkpt>
      <trkpt lat="46.25689" lon="-1.51346">
        <ele>9.2</ele>
        <time>2025-07-04T11:12:29Z</time>
      </trkpt>
      <trkpt lat="46.25695" lon="-1.51345">
        <ele>8.8</ele>
        <time>2025-07-04T11:12:34Z</time>
      </trkpt>
      <trkpt lat="46.25697" lon="-1.51344">
        <ele>8.8</ele>
        <time>2025-07-04T11:12:36Z</time>
      </trkpt>
      <trkpt lat="46.25705" lon="-1.5134">
        <ele>8.8</ele>
        <time>2025-07-04T11:12:42Z</time>
      </trkpt>
      <trkpt lat="46.25707" lon="-1.51337">
        <ele>8.6</ele>
        <time>2025-07-04T11:12:45Z</time>
      </trkpt>
      <trkpt lat="46.25708" lon="-1.51336">
        <ele>8.4</ele>
        <time>2025-07-04T11:12:46Z</time>
      </trkpt>
      <trkpt lat="46.25718" lon="-1.5133">
        <ele>8.4</ele>
        <time>2025-07-04T11:12:54Z</time>
      </trkpt>
      <trkpt lat="46.25719" lon="-1.51329">
        <ele>8.4</ele>
        <time>2025-07-04T11:12:55Z</time>
      </trkpt>
      <trkpt lat="46.25721" lon="-1.51326">
        <ele>8.2</ele>
        <time>2025-07-04T11:12:58Z</time>
      </trkpt>
      <trkpt lat="46.25722" lon="-1.51324">
        <ele>8</ele>
        <time>2025-07-04T11:13:00Z</time>
      </trkpt>
      <trkpt lat="46.25723" lon="-1.51323">
        <ele>8</ele>
        <time>2025-07-04T11:13:01Z</time>
      </trkpt>
      <trkpt lat="46.25727" lon="-1.51321">
        <ele>8</ele>
        <time>2025-07-04T11:13:04Z</time>
      </trkpt>
      <trkpt lat="46.25733" lon="-1.51315">
        <ele>8.2</ele>
        <time>2025-07-04T11:13:10Z</time>
      </trkpt>
      <trkpt lat="46.25735" lon="-1.51311">
        <ele>8.4</ele>
        <time>2025-07-04T11:13:13Z</time>
      </trkpt>
      <trkpt lat="46.2574" lon="-1.51306">
        <ele>8.8</ele>
        <time>2025-07-04T11:13:18Z</time>
      </trkpt>
      <trkpt lat="46.25744" lon="-1.51298">
        <ele>9.2</ele>
        <time>2025-07-04T11:13:24Z</time>
      </trkpt>
      <trkpt lat="46.25745" lon="-1.51295">
        <ele>9</ele>
        <time>2025-07-04T11:13:26Z</time>
      </trkpt>
      <trkpt lat="46.25751" lon="-1.51285">
        <ele>9.4</ele>
        <time>2025-07-04T11:13:34Z</time>
      </trkpt>
      <trkpt lat="46.25751" lon="-1.51284">
        <ele>9.4</ele>
        <time>2025-07-04T11:13:35Z</time>
      </trkpt>
      <trkpt lat="46.25754" lon="-1.51277">
        <ele>9.2</ele>
        <time>2025-07-04T11:13:40Z</time>
      </trkpt>
      <trkpt lat="46.25758" lon="-1.51265">
        <ele>9.4</ele>
        <time>2025-07-04T11:13:49Z</time>
      </trkpt>
      <trkpt lat="46.25762" lon="-1.51253">
        <ele>9.2</ele>
        <time>2025-07-04T11:13:57Z</time>
      </trkpt>
      <trkpt lat="46.25765" lon="-1.51248">
        <ele>9</ele>
        <time>2025-07-04T11:14:01Z</time>
      </trkpt>
      <trkpt lat="46.25767" lon="-1.51247">
        <ele>8.6</ele>
        <time>2025-07-04T11:14:04Z</time>
      </trkpt>
      <trkpt lat="46.25775" lon="-1.51251">
        <ele>7.4</ele>
        <time>2025-07-04T11:14:11Z</time>
      </trkpt>
      <trkpt lat="46.25776" lon="-1.51251">
        <ele>7.2</ele>
        <time>2025-07-04T11:14:12Z</time>
      </trkpt>
      <trkpt lat="46.25782" lon="-1.51253">
        <ele>6.4</ele>
        <time>2025-07-04T11:14:19Z</time>
      </trkpt>
      <trkpt lat="46.25788" lon="-1.51253">
        <ele>5.2</ele>
        <time>2025-07-04T11:14:24Z</time>
      </trkpt>
      <trkpt lat="46.25793" lon="-1.5125">
        <ele>5.2</ele>
        <time>2025-07-04T11:14:29Z</time>
      </trkpt>
      <trkpt lat="46.258" lon="-1.51246">
        <ele>5</ele>
        <time>2025-07-04T11:14:36Z</time>
      </trkpt>
      <trkpt lat="46.25802" lon="-1.51243">
        <ele>4.6</ele>
        <time>2025-07-04T11:14:39Z</time>
      </trkpt>
      <trkpt lat="46.25807" lon="-1.51234">
        <ele>4.8</ele>
        <time>2025-07-04T11:14:46Z</time>
      </trkpt>
      <trkpt lat="46.25808" lon="-1.51232">
        <ele>4.8</ele>
        <time>2025-07-04T11:14:47Z</time>
      </trkpt>
      <trkpt lat="46.25815" lon="-1.51222">
        <ele>4.2</ele>
        <time>2025-07-04T11:14:55Z</time>
      </trkpt>
      <trkpt lat="46.25816" lon="-1.5122">
        <ele>4.2</ele>
        <time>2025-07-04T11:14:57Z</time>
      </trkpt>
      <trkpt lat="46.25818" lon="-1.51215">
        <ele>4</ele>
        <time>2025-07-04T11:15:00Z</time>
      </trkpt>
      <trkpt lat="46.2582" lon="-1.51213">
        <ele>4</ele>
        <time>2025-07-04T11:15:02Z</time>
      </trkpt>
      <trkpt lat="46.2582" lon="-1.5121">
        <ele>4</ele>
        <time>2025-07-04T11:15:03Z</time>
      </trkpt>
      <trkpt lat="46.25821" lon="-1.51206">
        <ele>4</ele>
        <time>2025-07-04T11:15:07Z</time>
      </trkpt>
      <trkpt lat="46.25821" lon="-1.51198">
        <ele>3.4</ele>
        <time>2025-07-04T11:15:14Z</time>
      </trkpt>
      <trkpt lat="46.2582" lon="-1.51195">
        <ele>4</ele>
        <time>2025-07-04T11:15:20Z</time>
      </trkpt>
      <trkpt lat="46.2582" lon="-1.51181">
        <ele>3.8</ele>
        <time>2025-07-04T11:15:27Z</time>
      </trkpt>
      <trkpt lat="46.25819" lon="-1.51173">
        <ele>3.4</ele>
        <time>2025-07-04T11:15:32Z</time>
      </trkpt>
      <trkpt lat="46.25818" lon="-1.51166">
        <ele>3.4</ele>
        <time>2025-07-04T11:15:36Z</time>
      </trkpt>
      <trkpt lat="46.25814" lon="-1.51149">
        <ele>3.4</ele>
        <time>2025-07-04T11:15:46Z</time>
      </trkpt>
      <trkpt lat="46.25812" lon="-1.51141">
        <ele>3</ele>
        <time>2025-07-04T11:15:51Z</time>
      </trkpt>
      <trkpt lat="46.25809" lon="-1.51131">
        <ele>3.2</ele>
        <time>2025-07-04T11:15:57Z</time>
      </trkpt>
      <trkpt lat="46.25805" lon="-1.51119">
        <ele>3.4</ele>
        <time>2025-07-04T11:16:04Z</time>
      </trkpt>
      <trkpt lat="46.25803" lon="-1.51114">
        <ele>3.4</ele>
        <time>2025-07-04T11:16:06Z</time>
      </trkpt>
      <trkpt lat="46.25802" lon="-1.51107">
        <ele>3.4</ele>
        <time>2025-07-04T11:16:10Z</time>
      </trkpt>
      <trkpt lat="46.25801" lon="-1.51099">
        <ele>3.4</ele>
        <time>2025-07-04T11:16:15Z</time>
      </trkpt>
      <trkpt lat="46.25801" lon="-1.51098">
        <ele>3.4</ele>
        <time>2025-07-04T11:16:16Z</time>
      </trkpt>
      <trkpt lat="46.25799" lon="-1.51086">
        <ele>3.2</ele>
        <time>2025-07-04T11:16:23Z</time>
      </trkpt>
      <trkpt lat="46.25798" lon="-1.51084">
        <ele>3.2</ele>
        <time>2025-07-04T11:16:24Z</time>
      </trkpt>
      <trkpt lat="46.25798" lon="-1.51072">
        <ele>3.2</ele>
        <time>2025-07-04T11:16:31Z</time>
      </trkpt>
      <trkpt lat="46.25798" lon="-1.51066">
        <ele>3.2</ele>
        <time>2025-07-04T11:16:34Z</time>
      </trkpt>
      <trkpt lat="46.25798" lon="-1.51064">
        <ele>3.2</ele>
        <time>2025-07-04T11:16:36Z</time>
      </trkpt>
      <trkpt lat="46.25798" lon="-1.5106">
        <ele>3.2</ele>
        <time>2025-07-04T11:16:38Z</time>
      </trkpt>
      <trkpt lat="46.25797" lon="-1.51057">
        <ele>3.2</ele>
        <time>2025-07-04T11:16:40Z</time>
      </trkpt>
      <trkpt lat="46.25799" lon="-1.51046">
        <ele>3.2</ele>
        <time>2025-07-04T11:16:47Z</time>
      </trkpt>
      <trkpt lat="46.258" lon="-1.51035">
        <ele>3.2</ele>
        <time>2025-07-04T11:16:53Z</time>
      </trkpt>
      <trkpt lat="46.258" lon="-1.51033">
        <ele>3.2</ele>
        <time>2025-07-04T11:16:54Z</time>
      </trkpt>
      <trkpt lat="46.258" lon="-1.51021">
        <ele>3</ele>
        <time>2025-07-04T11:17:01Z</time>
      </trkpt>
      <trkpt lat="46.25797" lon="-1.51007">
        <ele>3</ele>
        <time>2025-07-04T11:17:09Z</time>
      </trkpt>
      <trkpt lat="46.25795" lon="-1.50994">
        <ele>3.2</ele>
        <time>2025-07-04T11:17:17Z</time>
      </trkpt>
      <trkpt lat="46.25792" lon="-1.50978">
        <ele>3.4</ele>
        <time>2025-07-04T11:17:26Z</time>
      </trkpt>
      <trkpt lat="46.25791" lon="-1.50976">
        <ele>3.4</ele>
        <time>2025-07-04T11:17:27Z</time>
      </trkpt>
      <trkpt lat="46.25787" lon="-1.50958">
        <ele>3.4</ele>
        <time>2025-07-04T11:17:38Z</time>
      </trkpt>
      <trkpt lat="46.25783" lon="-1.50941">
        <ele>3.6</ele>
        <time>2025-07-04T11:17:48Z</time>
      </trkpt>
      <trkpt lat="46.25782" lon="-1.50934">
        <ele>3.8</ele>
        <time>2025-07-04T11:17:52Z</time>
      </trkpt>
      <trkpt lat="46.25781" lon="-1.5093">
        <ele>3.8</ele>
        <time>2025-07-04T11:17:54Z</time>
      </trkpt>
      <trkpt lat="46.25778" lon="-1.50924">
        <ele>3.8</ele>
        <time>2025-07-04T11:17:58Z</time>
      </trkpt>
      <trkpt lat="46.25774" lon="-1.5091">
        <ele>3.8</ele>
        <time>2025-07-04T11:18:06Z</time>
      </trkpt>
      <trkpt lat="46.25769" lon="-1.50896">
        <ele>3.8</ele>
        <time>2025-07-04T11:18:15Z</time>
      </trkpt>
      <trkpt lat="46.25766" lon="-1.5089">
        <ele>3.8</ele>
        <time>2025-07-04T11:18:19Z</time>
      </trkpt>
      <trkpt lat="46.25765" lon="-1.50879">
        <ele>3.8</ele>
        <time>2025-07-04T11:18:25Z</time>
      </trkpt>
      <trkpt lat="46.2576" lon="-1.50861">
        <ele>3.8</ele>
        <time>2025-07-04T11:18:35Z</time>
      </trkpt>
      <trkpt lat="46.25759" lon="-1.50857">
        <ele>3.6</ele>
        <time>2025-07-04T11:18:38Z</time>
      </trkpt>
      <trkpt lat="46.25756" lon="-1.50847">
        <ele>3.4</ele>
        <time>2025-07-04T11:18:44Z</time>
      </trkpt>
      <trkpt lat="46.25752" lon="-1.50835">
        <ele>3.4</ele>
        <time>2025-07-04T11:18:51Z</time>
      </trkpt>
      <trkpt lat="46.25752" lon="-1.50834">
        <ele>3.4</ele>
        <time>2025-07-04T11:18:52Z</time>
      </trkpt>
      <trkpt lat="46.25752" lon="-1.50828">
        <ele>3.2</ele>
        <time>2025-07-04T11:18:56Z</time>
      </trkpt>
      <trkpt lat="46.25747" lon="-1.50811">
        <ele>3.2</ele>
        <time>2025-07-04T11:19:06Z</time>
      </trkpt>
      <trkpt lat="46.25741" lon="-1.50793">
        <ele>3</ele>
        <time>2025-07-04T11:19:17Z</time>
      </trkpt>
      <trkpt lat="46.25737" lon="-1.5078">
        <ele>3.4</ele>
        <time>2025-07-04T11:19:25Z</time>
      </trkpt>
      <trkpt lat="46.25735" lon="-1.50763">
        <ele>3</ele>
        <time>2025-07-04T11:19:34Z</time>
      </trkpt>
      <trkpt lat="46.25732" lon="-1.50744">
        <ele>3</ele>
        <time>2025-07-04T11:19:45Z</time>
      </trkpt>
      <trkpt lat="46.25729" lon="-1.50723">
        <ele>3.2</ele>
        <time>2025-07-04T11:19:57Z</time>
      </trkpt>
      <trkpt lat="46.25727" lon="-1.5071">
        <ele>3</ele>
        <time>2025-07-04T11:20:04Z</time>
      </trkpt>
      <trkpt lat="46.25726" lon="-1.50704">
        <ele>2.8</ele>
        <time>2025-07-04T11:20:12Z</time>
      </trkpt>
      <trkpt lat="46.25723" lon="-1.50698">
        <ele>2.8</ele>
        <time>2025-07-04T11:20:19Z</time>
      </trkpt>
      <trkpt lat="46.25724" lon="-1.50691">
        <ele>3</ele>
        <time>2025-07-04T11:20:23Z</time>
      </trkpt>
      <trkpt lat="46.25724" lon="-1.50688">
        <ele>3</ele>
        <time>2025-07-04T11:20:25Z</time>
      </trkpt>
      <trkpt lat="46.25724" lon="-1.50684">
        <ele>3.4</ele>
        <time>2025-07-04T11:20:31Z</time>
      </trkpt>
      <trkpt lat="46.25723" lon="-1.50682">
        <ele>3.2</ele>
        <time>2025-07-04T11:20:37Z</time>
      </trkpt>
      <trkpt lat="46.25721" lon="-1.50684">
        <ele>3.2</ele>
        <time>2025-07-04T11:20:43Z</time>
      </trkpt>
      <trkpt lat="46.25721" lon="-1.50684">
        <ele>3</ele>
        <time>2025-07-04T11:20:46Z</time>
      </trkpt>
      <trkpt lat="46.25724" lon="-1.50678">
        <ele>2.8</ele>
        <time>2025-07-04T11:20:55Z</time>
      </trkpt>
      <trkpt lat="46.25725" lon="-1.5066">
        <ele>2.8</ele>
        <time>2025-07-04T11:21:04Z</time>
      </trkpt>
      <trkpt lat="46.25723" lon="-1.50646">
        <ele>2.4</ele>
        <time>2025-07-04T11:21:13Z</time>
      </trkpt>
      <trkpt lat="46.25723" lon="-1.50635">
        <ele>2.6</ele>
        <time>2025-07-04T11:21:20Z</time>
      </trkpt>
      <trkpt lat="46.25719" lon="-1.50623">
        <ele>2.6</ele>
        <time>2025-07-04T11:21:28Z</time>
      </trkpt>
      <trkpt lat="46.25716" lon="-1.50605">
        <ele>2.6</ele>
        <time>2025-07-04T11:21:39Z</time>
      </trkpt>
      <trkpt lat="46.25715" lon="-1.50591">
        <ele>2.6</ele>
        <time>2025-07-04T11:21:47Z</time>
      </trkpt>
      <trkpt lat="46.25716" lon="-1.50578">
        <ele>2.6</ele>
        <time>2025-07-04T11:21:55Z</time>
      </trkpt>
      <trkpt lat="46.25716" lon="-1.50562">
        <ele>2.6</ele>
        <time>2025-07-04T11:22:05Z</time>
      </trkpt>
      <trkpt lat="46.25716" lon="-1.50558">
        <ele>2.6</ele>
        <time>2025-07-04T11:22:08Z</time>
      </trkpt>
      <trkpt lat="46.25716" lon="-1.50552">
        <ele>2.8</ele>
        <time>2025-07-04T11:22:12Z</time>
      </trkpt>
      <trkpt lat="46.25716" lon="-1.5055">
        <ele>2.8</ele>
        <time>2025-07-04T11:22:13Z</time>
      </trkpt>
      <trkpt lat="46.25715" lon="-1.50539">
        <ele>2.6</ele>
        <time>2025-07-04T11:22:20Z</time>
      </trkpt>
      <trkpt lat="46.25712" lon="-1.50526">
        <ele>2.8</ele>
        <time>2025-07-04T11:22:28Z</time>
      </trkpt>
      <trkpt lat="46.25714" lon="-1.50513">
        <ele>2.8</ele>
        <time>2025-07-04T11:22:36Z</time>
      </trkpt>
      <trkpt lat="46.25714" lon="-1.50502">
        <ele>3</ele>
        <time>2025-07-04T11:22:43Z</time>
      </trkpt>
      <trkpt lat="46.25713" lon="-1.50499">
        <ele>3</ele>
        <time>2025-07-04T11:22:45Z</time>
      </trkpt>
      <trkpt lat="46.25713" lon="-1.50496">
        <ele>3</ele>
        <time>2025-07-04T11:22:47Z</time>
      </trkpt>
      <trkpt lat="46.25714" lon="-1.50491">
        <ele>2.8</ele>
        <time>2025-07-04T11:22:51Z</time>
      </trkpt>
      <trkpt lat="46.25713" lon="-1.50489">
        <ele>2.8</ele>
        <time>2025-07-04T11:22:52Z</time>
      </trkpt>
      <trkpt lat="46.25715" lon="-1.50475">
        <ele>3</ele>
        <time>2025-07-04T11:23:01Z</time>
      </trkpt>
      <trkpt lat="46.25716" lon="-1.50473">
        <ele>2.8</ele>
        <time>2025-07-04T11:23:03Z</time>
      </trkpt>
      <trkpt lat="46.25717" lon="-1.5047">
        <ele>3</ele>
        <time>2025-07-04T11:23:05Z</time>
      </trkpt>
      <trkpt lat="46.25716" lon="-1.50466">
        <ele>2.8</ele>
        <time>2025-07-04T11:23:07Z</time>
      </trkpt>
      <trkpt lat="46.25718" lon="-1.50453">
        <ele>2.8</ele>
        <time>2025-07-04T11:23:15Z</time>
      </trkpt>
      <trkpt lat="46.2572" lon="-1.5045">
        <ele>2.8</ele>
        <time>2025-07-04T11:23:17Z</time>
      </trkpt>
      <trkpt lat="46.25721" lon="-1.50441">
        <ele>2.8</ele>
        <time>2025-07-04T11:23:22Z</time>
      </trkpt>
      <trkpt lat="46.25723" lon="-1.50427">
        <ele>3</ele>
        <time>2025-07-04T11:23:31Z</time>
      </trkpt>
      <trkpt lat="46.25723" lon="-1.50422">
        <ele>3</ele>
        <time>2025-07-04T11:23:35Z</time>
      </trkpt>
      <trkpt lat="46.25725" lon="-1.50415">
        <ele>2.8</ele>
        <time>2025-07-04T11:23:40Z</time>
      </trkpt>
      <trkpt lat="46.25728" lon="-1.50407">
        <ele>3</ele>
        <time>2025-07-04T11:23:45Z</time>
      </trkpt>
      <trkpt lat="46.25728" lon="-1.50403">
        <ele>3</ele>
        <time>2025-07-04T11:23:47Z</time>
      </trkpt>
      <trkpt lat="46.25728" lon="-1.50402">
        <ele>3</ele>
        <time>2025-07-04T11:23:48Z</time>
      </trkpt>
      <trkpt lat="46.25728" lon="-1.504">
        <ele>3</ele>
        <time>2025-07-04T11:23:50Z</time>
      </trkpt>
      <trkpt lat="46.2573" lon="-1.50394">
        <ele>3</ele>
        <time>2025-07-04T11:23:54Z</time>
      </trkpt>
      <trkpt lat="46.2573" lon="-1.50388">
        <ele>3.2</ele>
        <time>2025-07-04T11:23:58Z</time>
      </trkpt>
      <trkpt lat="46.2573" lon="-1.50379">
        <ele>3.2</ele>
        <time>2025-07-04T11:24:03Z</time>
      </trkpt>
      <trkpt lat="46.25731" lon="-1.50368">
        <ele>3.4</ele>
        <time>2025-07-04T11:24:11Z</time>
      </trkpt>
      <trkpt lat="46.25733" lon="-1.50357">
        <ele>3.4</ele>
        <time>2025-07-04T11:24:18Z</time>
      </trkpt>
      <trkpt lat="46.25735" lon="-1.50349">
        <ele>3.4</ele>
        <time>2025-07-04T11:24:23Z</time>
      </trkpt>
      <trkpt lat="46.25737" lon="-1.50345">
        <ele>3.6</ele>
        <time>2025-07-04T11:24:27Z</time>
      </trkpt>
      <trkpt lat="46.25743" lon="-1.50336">
        <ele>3.8</ele>
        <time>2025-07-04T11:24:33Z</time>
      </trkpt>
      <trkpt lat="46.25745" lon="-1.50332">
        <ele>3.4</ele>
        <time>2025-07-04T11:24:36Z</time>
      </trkpt>
      <trkpt lat="46.25748" lon="-1.50326">
        <ele>3.4</ele>
        <time>2025-07-04T11:24:41Z</time>
      </trkpt>
      <trkpt lat="46.25751" lon="-1.50323">
        <ele>3.6</ele>
        <time>2025-07-04T11:24:44Z</time>
      </trkpt>
      <trkpt lat="46.25753" lon="-1.50318">
        <ele>3.6</ele>
        <time>2025-07-04T11:24:47Z</time>
      </trkpt>
      <trkpt lat="46.25754" lon="-1.50317">
        <ele>3.8</ele>
        <time>2025-07-04T11:24:48Z</time>
      </trkpt>
      <trkpt lat="46.25754" lon="-1.50315">
        <ele>3.8</ele>
        <time>2025-07-04T11:24:49Z</time>
      </trkpt>
      <trkpt lat="46.25754" lon="-1.50311">
        <ele>3.8</ele>
        <time>2025-07-04T11:24:51Z</time>
      </trkpt>
      <trkpt lat="46.25756" lon="-1.503">
        <ele>3.4</ele>
        <time>2025-07-04T11:24:57Z</time>
      </trkpt>
      <trkpt lat="46.25758" lon="-1.50293">
        <ele>3.6</ele>
        <time>2025-07-04T11:25:01Z</time>
      </trkpt>
      <trkpt lat="46.2576" lon="-1.50288">
        <ele>3.8</ele>
        <time>2025-07-04T11:25:04Z</time>
      </trkpt>
      <trkpt lat="46.2576" lon="-1.50278">
        <ele>3.8</ele>
        <time>2025-07-04T11:25:10Z</time>
      </trkpt>
      <trkpt lat="46.25761" lon="-1.50276">
        <ele>3.8</ele>
        <time>2025-07-04T11:25:12Z</time>
      </trkpt>
      <trkpt lat="46.25761" lon="-1.50269">
        <ele>3.8</ele>
        <time>2025-07-04T11:25:16Z</time>
      </trkpt>
      <trkpt lat="46.2576" lon="-1.50265">
        <ele>3.6</ele>
        <time>2025-07-04T11:25:18Z</time>
      </trkpt>
      <trkpt lat="46.25757" lon="-1.50259">
        <ele>3.8</ele>
        <time>2025-07-04T11:25:22Z</time>
      </trkpt>
      <trkpt lat="46.25758" lon="-1.5025">
        <ele>3.8</ele>
        <time>2025-07-04T11:25:27Z</time>
      </trkpt>
      <trkpt lat="46.2576" lon="-1.50242">
        <ele>4</ele>
        <time>2025-07-04T11:25:32Z</time>
      </trkpt>
      <trkpt lat="46.25761" lon="-1.5024">
        <ele>4</ele>
        <time>2025-07-04T11:25:34Z</time>
      </trkpt>
      <trkpt lat="46.25767" lon="-1.5023">
        <ele>4</ele>
        <time>2025-07-04T11:25:42Z</time>
      </trkpt>
      <trkpt lat="46.25773" lon="-1.50221">
        <ele>4</ele>
        <time>2025-07-04T11:25:49Z</time>
      </trkpt>
      <trkpt lat="46.25779" lon="-1.50212">
        <ele>4.2</ele>
        <time>2025-07-04T11:25:57Z</time>
      </trkpt>
      <trkpt lat="46.25782" lon="-1.50209">
        <ele>4.4</ele>
        <time>2025-07-04T11:26:00Z</time>
      </trkpt>
      <trkpt lat="46.25785" lon="-1.50203">
        <ele>4.2</ele>
        <time>2025-07-04T11:26:04Z</time>
      </trkpt>
      <trkpt lat="46.25789" lon="-1.50198">
        <ele>4.2</ele>
        <time>2025-07-04T11:26:08Z</time>
      </trkpt>
      <trkpt lat="46.25791" lon="-1.50194">
        <ele>4.4</ele>
        <time>2025-07-04T11:26:11Z</time>
      </trkpt>
      <trkpt lat="46.25793" lon="-1.50189">
        <ele>4.2</ele>
        <time>2025-07-04T11:26:14Z</time>
      </trkpt>
      <trkpt lat="46.25796" lon="-1.50181">
        <ele>4.2</ele>
        <time>2025-07-04T11:26:19Z</time>
      </trkpt>
      <trkpt lat="46.25798" lon="-1.50167">
        <ele>4.4</ele>
        <time>2025-07-04T11:26:27Z</time>
      </trkpt>
      <trkpt lat="46.258" lon="-1.50152">
        <ele>4.4</ele>
        <time>2025-07-04T11:26:36Z</time>
      </trkpt>
      <trkpt lat="46.25804" lon="-1.5014">
        <ele>4.4</ele>
        <time>2025-07-04T11:26:44Z</time>
      </trkpt>
      <trkpt lat="46.25806" lon="-1.50122">
        <ele>4.6</ele>
        <time>2025-07-04T11:26:54Z</time>
      </trkpt>
      <trkpt lat="46.25805" lon="-1.50111">
        <ele>4.8</ele>
        <time>2025-07-04T11:27:02Z</time>
      </trkpt>
      <trkpt lat="46.25805" lon="-1.50109">
        <ele>5</ele>
        <time>2025-07-04T11:27:03Z</time>
      </trkpt>
      <trkpt lat="46.25806" lon="-1.50102">
        <ele>5.2</ele>
        <time>2025-07-04T11:27:07Z</time>
      </trkpt>
      <trkpt lat="46.25807" lon="-1.50093">
        <ele>5.2</ele>
        <time>2025-07-04T11:27:12Z</time>
      </trkpt>
      <trkpt lat="46.25807" lon="-1.5008">
        <ele>5.2</ele>
        <time>2025-07-04T11:27:20Z</time>
      </trkpt>
      <trkpt lat="46.25808" lon="-1.50065">
        <ele>5</ele>
        <time>2025-07-04T11:27:29Z</time>
      </trkpt>
      <trkpt lat="46.25807" lon="-1.50048">
        <ele>5</ele>
        <time>2025-07-04T11:27:38Z</time>
      </trkpt>
      <trkpt lat="46.25802" lon="-1.50035">
        <ele>4.8</ele>
        <time>2025-07-04T11:27:48Z</time>
      </trkpt>
      <trkpt lat="46.25799" lon="-1.50024">
        <ele>4.8</ele>
        <time>2025-07-04T11:27:55Z</time>
      </trkpt>
      <trkpt lat="46.25798" lon="-1.50023">
        <ele>4.8</ele>
        <time>2025-07-04T11:27:56Z</time>
      </trkpt>
      <trkpt lat="46.25798" lon="-1.50021">
        <ele>4.8</ele>
        <time>2025-07-04T11:27:57Z</time>
      </trkpt>
      <trkpt lat="46.25793" lon="-1.50006">
        <ele>4.8</ele>
        <time>2025-07-04T11:28:07Z</time>
      </trkpt>
      <trkpt lat="46.25789" lon="-1.49992">
        <ele>4.8</ele>
        <time>2025-07-04T11:28:15Z</time>
      </trkpt>
      <trkpt lat="46.25787" lon="-1.49983">
        <ele>4.8</ele>
        <time>2025-07-04T11:28:21Z</time>
      </trkpt>
      <trkpt lat="46.25786" lon="-1.4998">
        <ele>4.6</ele>
        <time>2025-07-04T11:28:23Z</time>
      </trkpt>
      <trkpt lat="46.25784" lon="-1.49967">
        <ele>4.6</ele>
        <time>2025-07-04T11:28:31Z</time>
      </trkpt>
      <trkpt lat="46.25778" lon="-1.49953">
        <ele>4.4</ele>
        <time>2025-07-04T11:28:40Z</time>
      </trkpt>
      <trkpt lat="46.25771" lon="-1.49937">
        <ele>4.2</ele>
        <time>2025-07-04T11:28:51Z</time>
      </trkpt>
      <trkpt lat="46.25771" lon="-1.49936">
        <ele>4.8</ele>
        <time>2025-07-04T11:28:56Z</time>
      </trkpt>
      <trkpt lat="46.25771" lon="-1.49932">
        <ele>4.2</ele>
        <time>2025-07-04T11:29:01Z</time>
      </trkpt>
      <trkpt lat="46.2577" lon="-1.4993">
        <ele>4.2</ele>
        <time>2025-07-04T11:29:02Z</time>
      </trkpt>
      <trkpt lat="46.2577" lon="-1.49929">
        <ele>4</ele>
        <time>2025-07-04T11:29:03Z</time>
      </trkpt>
      <trkpt lat="46.25768" lon="-1.49925">
        <ele>4.2</ele>
        <time>2025-07-04T11:29:05Z</time>
      </trkpt>
      <trkpt lat="46.25768" lon="-1.49924">
        <ele>4.2</ele>
        <time>2025-07-04T11:29:06Z</time>
      </trkpt>
      <trkpt lat="46.25768" lon="-1.49917">
        <ele>4</ele>
        <time>2025-07-04T11:29:10Z</time>
      </trkpt>
      <trkpt lat="46.25769" lon="-1.49907">
        <ele>4</ele>
        <time>2025-07-04T11:29:16Z</time>
      </trkpt>
      <trkpt lat="46.25768" lon="-1.49891">
        <ele>3.6</ele>
        <time>2025-07-04T11:29:24Z</time>
      </trkpt>
      <trkpt lat="46.25765" lon="-1.49882">
        <ele>3.8</ele>
        <time>2025-07-04T11:29:30Z</time>
      </trkpt>
      <trkpt lat="46.25765" lon="-1.4988">
        <ele>3.8</ele>
        <time>2025-07-04T11:29:31Z</time>
      </trkpt>
      <trkpt lat="46.25764" lon="-1.49877">
        <ele>3.8</ele>
        <time>2025-07-04T11:29:33Z</time>
      </trkpt>
      <trkpt lat="46.25762" lon="-1.49865">
        <ele>4</ele>
        <time>2025-07-04T11:29:41Z</time>
      </trkpt>
      <trkpt lat="46.2576" lon="-1.49861">
        <ele>4.4</ele>
        <time>2025-07-04T11:29:44Z</time>
      </trkpt>
      <trkpt lat="46.25758" lon="-1.49852">
        <ele>4.6</ele>
        <time>2025-07-04T11:29:51Z</time>
      </trkpt>
      <trkpt lat="46.25756" lon="-1.49847">
        <ele>4.6</ele>
        <time>2025-07-04T11:29:54Z</time>
      </trkpt>
      <trkpt lat="46.25755" lon="-1.49846">
        <ele>4.6</ele>
        <time>2025-07-04T11:29:55Z</time>
      </trkpt>
      <trkpt lat="46.25754" lon="-1.49843">
        <ele>4.8</ele>
        <time>2025-07-04T11:29:57Z</time>
      </trkpt>
      <trkpt lat="46.25753" lon="-1.4984">
        <ele>4.8</ele>
        <time>2025-07-04T11:29:59Z</time>
      </trkpt>
      <trkpt lat="46.2575" lon="-1.49837">
        <ele>5.2</ele>
        <time>2025-07-04T11:30:04Z</time>
      </trkpt>
      <trkpt lat="46.25748" lon="-1.49838">
        <ele>5.6</ele>
        <time>2025-07-04T11:30:06Z</time>
      </trkpt>
      <trkpt lat="46.25743" lon="-1.49841">
        <ele>5.6</ele>
        <time>2025-07-04T11:30:12Z</time>
      </trkpt>
      <trkpt lat="46.25742" lon="-1.4984">
        <ele>5.4</ele>
        <time>2025-07-04T11:30:14Z</time>
      </trkpt>
      <trkpt lat="46.25741" lon="-1.49836">
        <ele>4.8</ele>
        <time>2025-07-04T11:30:18Z</time>
      </trkpt>
      <trkpt lat="46.25742" lon="-1.49831">
        <ele>4.4</ele>
        <time>2025-07-04T11:30:20Z</time>
      </trkpt>
      <trkpt lat="46.25742" lon="-1.49829">
        <ele>4.2</ele>
        <time>2025-07-04T11:30:22Z</time>
      </trkpt>
      <trkpt lat="46.2574" lon="-1.49819">
        <ele>3.6</ele>
        <time>2025-07-04T11:30:28Z</time>
      </trkpt>
      <trkpt lat="46.25739" lon="-1.49817">
        <ele>3.4</ele>
        <time>2025-07-04T11:30:29Z</time>
      </trkpt>
      <trkpt lat="46.25731" lon="-1.49809">
        <ele>4.4</ele>
        <time>2025-07-04T11:30:38Z</time>
      </trkpt>
      <trkpt lat="46.25726" lon="-1.49802">
        <ele>4.6</ele>
        <time>2025-07-04T11:30:45Z</time>
      </trkpt>
      <trkpt lat="46.25724" lon="-1.49799">
        <ele>5</ele>
        <time>2025-07-04T11:30:48Z</time>
      </trkpt>
      <trkpt lat="46.25719" lon="-1.49792">
        <ele>5</ele>
        <time>2025-07-04T11:30:55Z</time>
      </trkpt>
      <trkpt lat="46.25717" lon="-1.4979">
        <ele>5.2</ele>
        <time>2025-07-04T11:30:57Z</time>
      </trkpt>
      <trkpt lat="46.25716" lon="-1.49789">
        <ele>5.2</ele>
        <time>2025-07-04T11:30:58Z</time>
      </trkpt>
      <trkpt lat="46.25713" lon="-1.49788">
        <ele>5.6</ele>
        <time>2025-07-04T11:31:02Z</time>
      </trkpt>
      <trkpt lat="46.2571" lon="-1.49786">
        <ele>6</ele>
        <time>2025-07-04T11:31:05Z</time>
      </trkpt>
      <trkpt lat="46.25709" lon="-1.49786">
        <ele>6.2</ele>
        <time>2025-07-04T11:31:07Z</time>
      </trkpt>
      <trkpt lat="46.25707" lon="-1.49783">
        <ele>7.2</ele>
        <time>2025-07-04T11:31:11Z</time>
      </trkpt>
      <trkpt lat="46.25704" lon="-1.4978">
        <ele>7.4</ele>
        <time>2025-07-04T11:31:14Z</time>
      </trkpt>
      <trkpt lat="46.25703" lon="-1.49772">
        <ele>7.6</ele>
        <time>2025-07-04T11:31:19Z</time>
      </trkpt>
      <trkpt lat="46.25698" lon="-1.49761">
        <ele>7.6</ele>
        <time>2025-07-04T11:31:28Z</time>
      </trkpt>
      <trkpt lat="46.25695" lon="-1.49753">
        <ele>7.6</ele>
        <time>2025-07-04T11:31:33Z</time>
      </trkpt>
      <trkpt lat="46.25693" lon="-1.49746">
        <ele>7.6</ele>
        <time>2025-07-04T11:31:37Z</time>
      </trkpt>
      <trkpt lat="46.25688" lon="-1.49731">
        <ele>7.2</ele>
        <time>2025-07-04T11:31:46Z</time>
      </trkpt>
      <trkpt lat="46.25684" lon="-1.49718">
        <ele>7.6</ele>
        <time>2025-07-04T11:31:54Z</time>
      </trkpt>
      <trkpt lat="46.25683" lon="-1.49714">
        <ele>7.4</ele>
        <time>2025-07-04T11:31:56Z</time>
      </trkpt>
      <trkpt lat="46.25681" lon="-1.49709">
        <ele>7.4</ele>
        <time>2025-07-04T11:32:00Z</time>
      </trkpt>
      <trkpt lat="46.25681" lon="-1.49707">
        <ele>7.4</ele>
        <time>2025-07-04T11:32:01Z</time>
      </trkpt>
      <trkpt lat="46.2568" lon="-1.49701">
        <ele>7.6</ele>
        <time>2025-07-04T11:32:05Z</time>
      </trkpt>
      <trkpt lat="46.25678" lon="-1.49695">
        <ele>7.2</ele>
        <time>2025-07-04T11:32:11Z</time>
      </trkpt>
      <trkpt lat="46.25676" lon="-1.49686">
        <ele>7.2</ele>
        <time>2025-07-04T11:32:19Z</time>
      </trkpt>
      <trkpt lat="46.25673" lon="-1.49673">
        <ele>7.2</ele>
        <time>2025-07-04T11:32:27Z</time>
      </trkpt>
      <trkpt lat="46.2567" lon="-1.49664">
        <ele>7.2</ele>
        <time>2025-07-04T11:32:34Z</time>
      </trkpt>
      <trkpt lat="46.2567" lon="-1.49662">
        <ele>7.2</ele>
        <time>2025-07-04T11:32:35Z</time>
      </trkpt>
      <trkpt lat="46.25665" lon="-1.49646">
        <ele>7.2</ele>
        <time>2025-07-04T11:32:47Z</time>
      </trkpt>
      <trkpt lat="46.25663" lon="-1.49637">
        <ele>7.4</ele>
        <time>2025-07-04T11:32:55Z</time>
      </trkpt>
      <trkpt lat="46.25661" lon="-1.49636">
        <ele>7.4</ele>
        <time>2025-07-04T11:32:57Z</time>
      </trkpt>
      <trkpt lat="46.25659" lon="-1.49629">
        <ele>7</ele>
        <time>2025-07-04T11:33:02Z</time>
      </trkpt>
      <trkpt lat="46.25659" lon="-1.49618">
        <ele>7.2</ele>
        <time>2025-07-04T11:33:12Z</time>
      </trkpt>
      <trkpt lat="46.25657" lon="-1.49621">
        <ele>7.2</ele>
        <time>2025-07-04T11:33:20Z</time>
      </trkpt>
      <trkpt lat="46.25659" lon="-1.49623">
        <ele>7.2</ele>
        <time>2025-07-04T11:33:26Z</time>
      </trkpt>
      <trkpt lat="46.25658" lon="-1.49621">
        <ele>6.6</ele>
        <time>2025-07-04T11:33:33Z</time>
      </trkpt>
      <trkpt lat="46.25656" lon="-1.49613">
        <ele>6.6</ele>
        <time>2025-07-04T11:33:37Z</time>
      </trkpt>
      <trkpt lat="46.25652" lon="-1.49598">
        <ele>6.8</ele>
        <time>2025-07-04T11:33:44Z</time>
      </trkpt>
      <trkpt lat="46.25647" lon="-1.49584">
        <ele>6.8</ele>
        <time>2025-07-04T11:33:52Z</time>
      </trkpt>
      <trkpt lat="46.25643" lon="-1.49569">
        <ele>6.8</ele>
        <time>2025-07-04T11:34:00Z</time>
      </trkpt>
      <trkpt lat="46.25639" lon="-1.49554">
        <ele>6.8</ele>
        <time>2025-07-04T11:34:09Z</time>
      </trkpt>
      <trkpt lat="46.25637" lon="-1.49547">
        <ele>6.8</ele>
        <time>2025-07-04T11:34:13Z</time>
      </trkpt>
      <trkpt lat="46.25632" lon="-1.49534">
        <ele>6.6</ele>
        <time>2025-07-04T11:34:22Z</time>
      </trkpt>
      <trkpt lat="46.25632" lon="-1.49532">
        <ele>6.6</ele>
        <time>2025-07-04T11:34:24Z</time>
      </trkpt>
      <trkpt lat="46.25631" lon="-1.49528">
        <ele>6.6</ele>
        <time>2025-07-04T11:34:27Z</time>
      </trkpt>
      <trkpt lat="46.2563" lon="-1.49525">
        <ele>6.6</ele>
        <time>2025-07-04T11:34:29Z</time>
      </trkpt>
      <trkpt lat="46.25626" lon="-1.49516">
        <ele>6.6</ele>
        <time>2025-07-04T11:34:36Z</time>
      </trkpt>
      <trkpt lat="46.25623" lon="-1.49503">
        <ele>6.6</ele>
        <time>2025-07-04T11:34:45Z</time>
      </trkpt>
      <trkpt lat="46.25617" lon="-1.49489">
        <ele>6.6</ele>
        <time>2025-07-04T11:34:54Z</time>
      </trkpt>
      <trkpt lat="46.25611" lon="-1.49473">
        <ele>6.6</ele>
        <time>2025-07-04T11:35:04Z</time>
      </trkpt>
      <trkpt lat="46.25603" lon="-1.49457">
        <ele>6.6</ele>
        <time>2025-07-04T11:35:14Z</time>
      </trkpt>
      <trkpt lat="46.25593" lon="-1.49444">
        <ele>6.8</ele>
        <time>2025-07-04T11:35:25Z</time>
      </trkpt>
      <trkpt lat="46.25592" lon="-1.49442">
        <ele>6.8</ele>
        <time>2025-07-04T11:35:26Z</time>
      </trkpt>
      <trkpt lat="46.25588" lon="-1.49437">
        <ele>6.8</ele>
        <time>2025-07-04T11:35:30Z</time>
      </trkpt>
      <trkpt lat="46.25583" lon="-1.49431">
        <ele>6.8</ele>
        <time>2025-07-04T11:35:35Z</time>
      </trkpt>
      <trkpt lat="46.25578" lon="-1.49426">
        <ele>6.8</ele>
        <time>2025-07-04T11:35:40Z</time>
      </trkpt>
      <trkpt lat="46.25577" lon="-1.49425">
        <ele>6.8</ele>
        <time>2025-07-04T11:35:41Z</time>
      </trkpt>
      <trkpt lat="46.25572" lon="-1.49422">
        <ele>6.8</ele>
        <time>2025-07-04T11:35:45Z</time>
      </trkpt>
      <trkpt lat="46.25566" lon="-1.49415">
        <ele>6.4</ele>
        <time>2025-07-04T11:35:52Z</time>
      </trkpt>
      <trkpt lat="46.25564" lon="-1.49413">
        <ele>6.2</ele>
        <time>2025-07-04T11:35:54Z</time>
      </trkpt>
      <trkpt lat="46.25556" lon="-1.49413">
        <ele>6.6</ele>
        <time>2025-07-04T11:36:02Z</time>
      </trkpt>
      <trkpt lat="46.25548" lon="-1.49408">
        <ele>5.6</ele>
        <time>2025-07-04T11:36:10Z</time>
      </trkpt>
      <trkpt lat="46.25547" lon="-1.49408">
        <ele>5.2</ele>
        <time>2025-07-04T11:36:11Z</time>
      </trkpt>
      <trkpt lat="46.25537" lon="-1.49411">
        <ele>4.4</ele>
        <time>2025-07-04T11:36:19Z</time>
      </trkpt>
      <trkpt lat="46.25536" lon="-1.49411">
        <ele>4.4</ele>
        <time>2025-07-04T11:36:20Z</time>
      </trkpt>
      <trkpt lat="46.25534" lon="-1.49412">
        <ele>4.4</ele>
        <time>2025-07-04T11:36:23Z</time>
      </trkpt>
      <trkpt lat="46.25533" lon="-1.49412">
        <ele>4.2</ele>
        <time>2025-07-04T11:36:24Z</time>
      </trkpt>
      <trkpt lat="46.25528" lon="-1.49412">
        <ele>4</ele>
        <time>2025-07-04T11:36:28Z</time>
      </trkpt>
      <trkpt lat="46.25527" lon="-1.49412">
        <ele>4</ele>
        <time>2025-07-04T11:36:29Z</time>
      </trkpt>
      <trkpt lat="46.25524" lon="-1.49414">
        <ele>4</ele>
        <time>2025-07-04T11:36:31Z</time>
      </trkpt>
      <trkpt lat="46.25519" lon="-1.49421">
        <ele>4</ele>
        <time>2025-07-04T11:36:36Z</time>
      </trkpt>
      <trkpt lat="46.25507" lon="-1.49429">
        <ele>3.6</ele>
        <time>2025-07-04T11:36:45Z</time>
      </trkpt>
      <trkpt lat="46.25505" lon="-1.49432">
        <ele>3.2</ele>
        <time>2025-07-04T11:36:48Z</time>
      </trkpt>
      <trkpt lat="46.25496" lon="-1.49437">
        <ele>3.2</ele>
        <time>2025-07-04T11:36:54Z</time>
      </trkpt>
      <trkpt lat="46.25495" lon="-1.49438">
        <ele>3.2</ele>
        <time>2025-07-04T11:36:55Z</time>
      </trkpt>
      <trkpt lat="46.25486" lon="-1.49442">
        <ele>2.8</ele>
        <time>2025-07-04T11:37:02Z</time>
      </trkpt>
      <trkpt lat="46.25482" lon="-1.49444">
        <ele>2.8</ele>
        <time>2025-07-04T11:37:05Z</time>
      </trkpt>
      <trkpt lat="46.2548" lon="-1.49445">
        <ele>2.8</ele>
        <time>2025-07-04T11:37:07Z</time>
      </trkpt>
      <trkpt lat="46.25477" lon="-1.49446">
        <ele>2.8</ele>
        <time>2025-07-04T11:37:09Z</time>
      </trkpt>
      <trkpt lat="46.25469" lon="-1.4945">
        <ele>2.8</ele>
        <time>2025-07-04T11:37:15Z</time>
      </trkpt>
      <trkpt lat="46.25466" lon="-1.4945">
        <ele>2.8</ele>
        <time>2025-07-04T11:37:17Z</time>
      </trkpt>
      <trkpt lat="46.25465" lon="-1.49451">
        <ele>2.6</ele>
        <time>2025-07-04T11:37:18Z</time>
      </trkpt>
      <trkpt lat="46.25453" lon="-1.49456">
        <ele>2.8</ele>
        <time>2025-07-04T11:37:26Z</time>
      </trkpt>
      <trkpt lat="46.25449" lon="-1.49459">
        <ele>2.6</ele>
        <time>2025-07-04T11:37:30Z</time>
      </trkpt>
      <trkpt lat="46.25442" lon="-1.49462">
        <ele>2.4</ele>
        <time>2025-07-04T11:37:34Z</time>
      </trkpt>
      <trkpt lat="46.25439" lon="-1.49464">
        <ele>2.4</ele>
        <time>2025-07-04T11:37:37Z</time>
      </trkpt>
      <trkpt lat="46.25428" lon="-1.49471">
        <ele>2.2</ele>
        <time>2025-07-04T11:37:46Z</time>
      </trkpt>
      <trkpt lat="46.25424" lon="-1.49474">
        <ele>2.2</ele>
        <time>2025-07-04T11:37:49Z</time>
      </trkpt>
      <trkpt lat="46.2541" lon="-1.49483">
        <ele>2</ele>
        <time>2025-07-04T11:37:59Z</time>
      </trkpt>
      <trkpt lat="46.25409" lon="-1.49483">
        <ele>2</ele>
        <time>2025-07-04T11:38:00Z</time>
      </trkpt>
      <trkpt lat="46.25405" lon="-1.49483">
        <ele>1.8</ele>
        <time>2025-07-04T11:38:03Z</time>
      </trkpt>
      <trkpt lat="46.25404" lon="-1.49484">
        <ele>1.6</ele>
        <time>2025-07-04T11:38:04Z</time>
      </trkpt>
      <trkpt lat="46.25403" lon="-1.49485">
        <ele>1.6</ele>
        <time>2025-07-04T11:38:05Z</time>
      </trkpt>
      <trkpt lat="46.25397" lon="-1.4949">
        <ele>1.6</ele>
        <time>2025-07-04T11:38:10Z</time>
      </trkpt>
      <trkpt lat="46.25386" lon="-1.49497">
        <ele>1.4</ele>
        <time>2025-07-04T11:38:18Z</time>
      </trkpt>
      <trkpt lat="46.25376" lon="-1.49505">
        <ele>1.4</ele>
        <time>2025-07-04T11:38:26Z</time>
      </trkpt>
      <trkpt lat="46.25376" lon="-1.49505">
        <ele>1.4</ele>
        <time>2025-07-04T11:38:27Z</time>
      </trkpt>
      <trkpt lat="46.2538" lon="-1.49506">
        <ele>0.39999999999998</ele>
        <time>2025-07-04T11:39:37Z</time>
      </trkpt>
      <trkpt lat="46.25375" lon="-1.49506">
        <ele>0.80000000000001</ele>
        <time>2025-07-04T11:39:40Z</time>
      </trkpt>
      <trkpt lat="46.25362" lon="-1.49506">
        <ele>0.80000000000001</ele>
        <time>2025-07-04T11:39:48Z</time>
      </trkpt>
      <trkpt lat="46.25355" lon="-1.4951">
        <ele>0.60000000000002</ele>
        <time>2025-07-04T11:39:53Z</time>
      </trkpt>
      <trkpt lat="46.25346" lon="-1.49517">
        <ele>0.80000000000001</ele>
        <time>2025-07-04T11:40:00Z</time>
      </trkpt>
      <trkpt lat="46.25329" lon="-1.49526">
        <ele>0.39999999999998</ele>
        <time>2025-07-04T11:40:11Z</time>
      </trkpt>
      <trkpt lat="46.25328" lon="-1.49526">
        <ele>0.39999999999998</ele>
        <time>2025-07-04T11:40:12Z</time>
      </trkpt>
      <trkpt lat="46.25318" lon="-1.49539">
        <ele>0.39999999999998</ele>
        <time>2025-07-04T11:40:21Z</time>
      </trkpt>
      <trkpt lat="46.25318" lon="-1.49548">
        <ele>0.19999999999999</ele>
        <time>2025-07-04T11:40:26Z</time>
      </trkpt>
      <trkpt lat="46.25319" lon="-1.49549">
        <ele>0.19999999999999</ele>
        <time>2025-07-04T11:40:27Z</time>
      </trkpt>
      <trkpt lat="46.25319" lon="-1.49551">
        <ele>0.19999999999999</ele>
        <time>2025-07-04T11:40:28Z</time>
      </trkpt>
      <trkpt lat="46.25318" lon="-1.49555">
        <ele>0.39999999999998</ele>
        <time>2025-07-04T11:40:30Z</time>
      </trkpt>
      <trkpt lat="46.25318" lon="-1.4956">
        <ele>0.39999999999998</ele>
        <time>2025-07-04T11:40:32Z</time>
      </trkpt>
      <trkpt lat="46.25317" lon="-1.49562">
        <ele>0.39999999999998</ele>
        <time>2025-07-04T11:40:33Z</time>
      </trkpt>
      <trkpt lat="46.25317" lon="-1.4957">
        <ele>0.39999999999998</ele>
        <time>2025-07-04T11:40:38Z</time>
      </trkpt>
      <trkpt lat="46.25317" lon="-1.49573">
        <ele>0.39999999999998</ele>
        <time>2025-07-04T11:40:39Z</time>
      </trkpt>
      <trkpt lat="46.25318" lon="-1.49584">
        <ele>0.39999999999998</ele>
        <time>2025-07-04T11:40:43Z</time>
      </trkpt>
      <trkpt lat="46.25317" lon="-1.49589">
        <ele>0.39999999999998</ele>
        <time>2025-07-04T11:40:45Z</time>
      </trkpt>
      <trkpt lat="46.25318" lon="-1.49595">
        <ele>0.39999999999998</ele>
        <time>2025-07-04T11:40:48Z</time>
      </trkpt>
      <trkpt lat="46.25317" lon="-1.49604">
        <ele>-0.19999999999999</ele>
        <time>2025-07-04T11:40:52Z</time>
      </trkpt>
      <trkpt lat="46.25318" lon="-1.49621">
        <ele>-0.19999999999999</ele>
        <time>2025-07-04T11:41:01Z</time>
      </trkpt>
      <trkpt lat="46.25318" lon="-1.49631">
        <ele>-0.19999999999999</ele>
        <time>2025-07-04T11:41:06Z</time>
      </trkpt>
      <trkpt lat="46.25318" lon="-1.49637">
        <ele>-0.19999999999999</ele>
        <time>2025-07-04T11:41:09Z</time>
      </trkpt>
      <trkpt lat="46.25318" lon="-1.49641">
        <ele>-0.19999999999999</ele>
        <time>2025-07-04T11:41:11Z</time>
      </trkpt>
      <trkpt lat="46.25318" lon="-1.49649">
        <ele>-0.19999999999999</ele>
        <time>2025-07-04T11:41:15Z</time>
      </trkpt>
      <trkpt lat="46.25318" lon="-1.49663">
        <ele>-0.19999999999999</ele>
        <time>2025-07-04T11:41:21Z</time>
      </trkpt>
      <trkpt lat="46.25317" lon="-1.49682">
        <ele>-0.19999999999999</ele>
        <time>2025-07-04T11:41:30Z</time>
      </trkpt>
      <trkpt lat="46.25316" lon="-1.4969">
        <ele>-0.19999999999999</ele>
        <time>2025-07-04T11:41:34Z</time>
      </trkpt>
      <trkpt lat="46.25316" lon="-1.49697">
        <ele>-0.19999999999999</ele>
        <time>2025-07-04T11:41:38Z</time>
      </trkpt>
      <trkpt lat="46.25315" lon="-1.497">
        <ele>-0.19999999999999</ele>
        <time>2025-07-04T11:41:39Z</time>
      </trkpt>
      <trkpt lat="46.25311" lon="-1.49703">
        <ele>0.19999999999999</ele>
        <time>2025-07-04T11:41:42Z</time>
      </trkpt>
      <trkpt lat="46.25304" lon="-1.49715">
        <ele>0.19999999999999</ele>
        <time>2025-07-04T11:41:49Z</time>
      </trkpt>
      <trkpt lat="46.25301" lon="-1.49724">
        <ele>-0.19999999999999</ele>
        <time>2025-07-04T11:41:55Z</time>
      </trkpt>
      <trkpt lat="46.25297" lon="-1.49733">
        <ele>-0.39999999999998</ele>
        <time>2025-07-04T11:42:03Z</time>
      </trkpt>
      <trkpt lat="46.25296" lon="-1.49734">
        <ele>-0.39999999999998</ele>
        <time>2025-07-04T11:42:04Z</time>
      </trkpt>
      <trkpt lat="46.25291" lon="-1.49743">
        <ele>-0.39999999999998</ele>
        <time>2025-07-04T11:42:09Z</time>
      </trkpt>
      <trkpt lat="46.25285" lon="-1.4975">
        <ele>-0.60000000000002</ele>
        <time>2025-07-04T11:42:15Z</time>
      </trkpt>
      <trkpt lat="46.25283" lon="-1.49754">
        <ele>-0.60000000000002</ele>
        <time>2025-07-04T11:42:18Z</time>
      </trkpt>
      <trkpt lat="46.25275" lon="-1.49767">
        <ele>-0.60000000000002</ele>
        <time>2025-07-04T11:42:26Z</time>
      </trkpt>
      <trkpt lat="46.25274" lon="-1.49769">
        <ele>-0.60000000000002</ele>
        <time>2025-07-04T11:42:27Z</time>
      </trkpt>
      <trkpt lat="46.25272" lon="-1.49775">
        <ele>-0.60000000000002</ele>
        <time>2025-07-04T11:42:31Z</time>
      </trkpt>
      <trkpt lat="46.25271" lon="-1.49776">
        <ele>-0.39999999999998</ele>
        <time>2025-07-04T11:42:32Z</time>
      </trkpt>
      <trkpt lat="46.2526" lon="-1.49795">
        <ele>-0.60000000000002</ele>
        <time>2025-07-04T11:42:42Z</time>
      </trkpt>
      <trkpt lat="46.25248" lon="-1.49817">
        <ele>-0.19999999999999</ele>
        <time>2025-07-04T11:42:55Z</time>
      </trkpt>
      <trkpt lat="46.25236" lon="-1.49837">
        <ele>0.19999999999999</ele>
        <time>2025-07-04T11:43:06Z</time>
      </trkpt>
      <trkpt lat="46.25234" lon="-1.4984">
        <ele>0.19999999999999</ele>
        <time>2025-07-04T11:43:08Z</time>
      </trkpt>
      <trkpt lat="46.25225" lon="-1.49858">
        <ele>0.19999999999999</ele>
        <time>2025-07-04T11:43:19Z</time>
      </trkpt>
      <trkpt lat="46.25224" lon="-1.49859">
        <ele>0.19999999999999</ele>
        <time>2025-07-04T11:43:20Z</time>
      </trkpt>
      <trkpt lat="46.25214" lon="-1.49872">
        <ele>0.19999999999999</ele>
        <time>2025-07-04T11:43:29Z</time>
      </trkpt>
      <trkpt lat="46.25204" lon="-1.49893">
        <ele>0.19999999999999</ele>
        <time>2025-07-04T11:43:41Z</time>
      </trkpt>
      <trkpt lat="46.25199" lon="-1.49903">
        <ele>0.19999999999999</ele>
        <time>2025-07-04T11:43:47Z</time>
      </trkpt>
      <trkpt lat="46.25196" lon="-1.49907">
        <ele>0.19999999999999</ele>
        <time>2025-07-04T11:43:49Z</time>
      </trkpt>
      <trkpt lat="46.25189" lon="-1.4992">
        <ele>0.19999999999999</ele>
        <time>2025-07-04T11:43:59Z</time>
      </trkpt>
      <trkpt lat="46.2518" lon="-1.49934">
        <ele>-0.19999999999999</ele>
        <time>2025-07-04T11:44:07Z</time>
      </trkpt>
      <trkpt lat="46.25177" lon="-1.49941">
        <ele>-0.19999999999999</ele>
        <time>2025-07-04T11:44:11Z</time>
      </trkpt>
      <trkpt lat="46.2517" lon="-1.49951">
        <ele>-0.39999999999998</ele>
        <time>2025-07-04T11:44:18Z</time>
      </trkpt>
      <trkpt lat="46.25166" lon="-1.4996">
        <ele>-0.39999999999998</ele>
        <time>2025-07-04T11:44:23Z</time>
      </trkpt>
      <trkpt lat="46.25165" lon="-1.49961">
        <ele>-0.39999999999998</ele>
        <time>2025-07-04T11:44:24Z</time>
      </trkpt>
      <trkpt lat="46.25154" lon="-1.49961">
        <ele>-0.80000000000001</ele>
        <time>2025-07-04T11:44:32Z</time>
      </trkpt>
      <trkpt lat="46.25154" lon="-1.49959">
        <ele>-0.80000000000001</ele>
        <time>2025-07-04T11:44:33Z</time>
      </trkpt>
      <trkpt lat="46.25147" lon="-1.49953">
        <ele>-0.60000000000002</ele>
        <time>2025-07-04T11:44:38Z</time>
      </trkpt>
      <trkpt lat="46.25146" lon="-1.49952">
        <ele>-0.80000000000001</ele>
        <time>2025-07-04T11:44:39Z</time>
      </trkpt>
      <trkpt lat="46.25144" lon="-1.4995">
        <ele>-0.80000000000001</ele>
        <time>2025-07-04T11:44:41Z</time>
      </trkpt>
      <trkpt lat="46.25142" lon="-1.49947">
        <ele>-0.80000000000001</ele>
        <time>2025-07-04T11:44:43Z</time>
      </trkpt>
      <trkpt lat="46.2513" lon="-1.49932">
        <ele>-0.80000000000001</ele>
        <time>2025-07-04T11:44:54Z</time>
      </trkpt>
      <trkpt lat="46.25121" lon="-1.49924">
        <ele>-0.80000000000001</ele>
        <time>2025-07-04T11:45:01Z</time>
      </trkpt>
      <trkpt lat="46.25115" lon="-1.49913">
        <ele>-1</ele>
        <time>2025-07-04T11:45:08Z</time>
      </trkpt>
      <trkpt lat="46.25112" lon="-1.4991">
        <ele>-1</ele>
        <time>2025-07-04T11:45:10Z</time>
      </trkpt>
      <trkpt lat="46.25111" lon="-1.49909">
        <ele>-1</ele>
        <time>2025-07-04T11:45:11Z</time>
      </trkpt>
      <trkpt lat="46.25104" lon="-1.49903">
        <ele>-1</ele>
        <time>2025-07-04T11:45:16Z</time>
      </trkpt>
      <trkpt lat="46.2509" lon="-1.49905">
        <ele>-1.4</ele>
        <time>2025-07-04T11:45:24Z</time>
      </trkpt>
      <trkpt lat="46.25084" lon="-1.49912">
        <ele>-1.2</ele>
        <time>2025-07-04T11:45:31Z</time>
      </trkpt>
      <trkpt lat="46.25073" lon="-1.49913">
        <ele>-1.2</ele>
        <time>2025-07-04T11:45:39Z</time>
      </trkpt>
      <trkpt lat="46.25067" lon="-1.49909">
        <ele>-1.4</ele>
        <time>2025-07-04T11:45:43Z</time>
      </trkpt>
      <trkpt lat="46.25065" lon="-1.4991">
        <ele>-1.2</ele>
        <time>2025-07-04T11:45:45Z</time>
      </trkpt>
      <trkpt lat="46.25064" lon="-1.49909">
        <ele>-1.2</ele>
        <time>2025-07-04T11:45:46Z</time>
      </trkpt>
      <trkpt lat="46.25054" lon="-1.49909">
        <ele>-1.2</ele>
        <time>2025-07-04T11:45:53Z</time>
      </trkpt>
      <trkpt lat="46.2505" lon="-1.49909">
        <ele>-1.2</ele>
        <time>2025-07-04T11:45:57Z</time>
      </trkpt>
      <trkpt lat="46.25044" lon="-1.49909">
        <ele>-1</ele>
        <time>2025-07-04T11:46:01Z</time>
      </trkpt>
      <trkpt lat="46.25042" lon="-1.49909">
        <ele>-1</ele>
        <time>2025-07-04T11:46:02Z</time>
      </trkpt>
      <trkpt lat="46.25031" lon="-1.49909">
        <ele>-1.2</ele>
        <time>2025-07-04T11:46:10Z</time>
      </trkpt>
      <trkpt lat="46.25021" lon="-1.49911">
        <ele>-1.2</ele>
        <time>2025-07-04T11:46:17Z</time>
      </trkpt>
      <trkpt lat="46.25019" lon="-1.4991">
        <ele>-1.2</ele>
        <time>2025-07-04T11:46:19Z</time>
      </trkpt>
      <trkpt lat="46.25012" lon="-1.49909">
        <ele>-1</ele>
        <time>2025-07-04T11:46:24Z</time>
      </trkpt>
      <trkpt lat="46.25011" lon="-1.49909">
        <ele>-1</ele>
        <time>2025-07-04T11:46:25Z</time>
      </trkpt>
      <trkpt lat="46.25001" lon="-1.49907">
        <ele>-1.4</ele>
        <time>2025-07-04T11:46:32Z</time>
      </trkpt>
      <trkpt lat="46.24999" lon="-1.49907">
        <ele>-1.4</ele>
        <time>2025-07-04T11:46:33Z</time>
      </trkpt>
      <trkpt lat="46.24998" lon="-1.49907">
        <ele>-1.4</ele>
        <time>2025-07-04T11:46:34Z</time>
      </trkpt>
      <trkpt lat="46.24993" lon="-1.49903">
        <ele>-1.2</ele>
        <time>2025-07-04T11:46:39Z</time>
      </trkpt>
      <trkpt lat="46.24989" lon="-1.49901">
        <ele>-1.2</ele>
        <time>2025-07-04T11:46:42Z</time>
      </trkpt>
      <trkpt lat="46.24981" lon="-1.49902">
        <ele>-1.2</ele>
        <time>2025-07-04T11:46:45Z</time>
      </trkpt>
      <trkpt lat="46.24979" lon="-1.49903">
        <ele>-1.2</ele>
        <time>2025-07-04T11:46:46Z</time>
      </trkpt>
      <trkpt lat="46.2497" lon="-1.49898">
        <ele>-1.6</ele>
        <time>2025-07-04T11:46:53Z</time>
      </trkpt>
      <trkpt lat="46.24968" lon="-1.49898">
        <ele>-1.4</ele>
        <time>2025-07-04T11:46:57Z</time>
      </trkpt>
      <trkpt lat="46.24964" lon="-1.49899">
        <ele>-1.6</ele>
        <time>2025-07-04T11:47:00Z</time>
      </trkpt>
      <trkpt lat="46.24956" lon="-1.49901">
        <ele>-1.6</ele>
        <time>2025-07-04T11:47:07Z</time>
      </trkpt>
      <trkpt lat="46.24953" lon="-1.49899">
        <ele>-1.8</ele>
        <time>2025-07-04T11:47:10Z</time>
      </trkpt>
      <trkpt lat="46.24948" lon="-1.49899">
        <ele>-1.6</ele>
        <time>2025-07-04T11:47:14Z</time>
      </trkpt>
      <trkpt lat="46.24945" lon="-1.49901">
        <ele>-1.6</ele>
        <time>2025-07-04T11:47:16Z</time>
      </trkpt>
      <trkpt lat="46.24937" lon="-1.49904">
        <ele>-1.8</ele>
        <time>2025-07-04T11:47:23Z</time>
      </trkpt>
      <trkpt lat="46.24934" lon="-1.49907">
        <ele>-1.8</ele>
        <time>2025-07-04T11:47:25Z</time>
      </trkpt>
      <trkpt lat="46.24927" lon="-1.49912">
        <ele>-1.8</ele>
        <time>2025-07-04T11:47:30Z</time>
      </trkpt>
      <trkpt lat="46.24924" lon="-1.49913">
        <ele>-1.8</ele>
        <time>2025-07-04T11:47:32Z</time>
      </trkpt>
      <trkpt lat="46.24917" lon="-1.49918">
        <ele>-1.6</ele>
        <time>2025-07-04T11:47:37Z</time>
      </trkpt>
      <trkpt lat="46.24916" lon="-1.49918">
        <ele>-1.6</ele>
        <time>2025-07-04T11:47:38Z</time>
      </trkpt>
      <trkpt lat="46.24909" lon="-1.49923">
        <ele>-2</ele>
        <time>2025-07-04T11:47:45Z</time>
      </trkpt>
      <trkpt lat="46.24908" lon="-1.49924">
        <ele>-2</ele>
        <time>2025-07-04T11:47:46Z</time>
      </trkpt>
      <trkpt lat="46.24903" lon="-1.49925">
        <ele>-1.8</ele>
        <time>2025-07-04T11:47:50Z</time>
      </trkpt>
      <trkpt lat="46.24901" lon="-1.49926">
        <ele>-1.8</ele>
        <time>2025-07-04T11:47:51Z</time>
      </trkpt>
      <trkpt lat="46.24892" lon="-1.49934">
        <ele>-1.8</ele>
        <time>2025-07-04T11:47:59Z</time>
      </trkpt>
      <trkpt lat="46.2489" lon="-1.49936">
        <ele>-1.8</ele>
        <time>2025-07-04T11:48:01Z</time>
      </trkpt>
      <trkpt lat="46.24885" lon="-1.49939">
        <ele>-1.8</ele>
        <time>2025-07-04T11:48:05Z</time>
      </trkpt>
      <trkpt lat="46.24875" lon="-1.49946">
        <ele>-1.8</ele>
        <time>2025-07-04T11:48:12Z</time>
      </trkpt>
      <trkpt lat="46.24867" lon="-1.49952">
        <ele>-1.8</ele>
        <time>2025-07-04T11:48:18Z</time>
      </trkpt>
      <trkpt lat="46.24866" lon="-1.49952">
        <ele>-1.8</ele>
        <time>2025-07-04T11:48:19Z</time>
      </trkpt>
      <trkpt lat="46.24865" lon="-1.49952">
        <ele>-1.8</ele>
        <time>2025-07-04T11:48:20Z</time>
      </trkpt>
      <trkpt lat="46.24861" lon="-1.49953">
        <ele>-1.8</ele>
        <time>2025-07-04T11:48:23Z</time>
      </trkpt>
      <trkpt lat="46.24859" lon="-1.49955">
        <ele>-1.6</ele>
        <time>2025-07-04T11:48:25Z</time>
      </trkpt>
      <trkpt lat="46.24857" lon="-1.49957">
        <ele>-1.6</ele>
        <time>2025-07-04T11:48:26Z</time>
      </trkpt>
      <trkpt lat="46.24857" lon="-1.49958">
        <ele>-1.6</ele>
        <time>2025-07-04T11:48:27Z</time>
      </trkpt>
      <trkpt lat="46.24847" lon="-1.49958">
        <ele>-1.6</ele>
        <time>2025-07-04T11:48:32Z</time>
      </trkpt>
      <trkpt lat="46.24846" lon="-1.49959">
        <ele>-1.6</ele>
        <time>2025-07-04T11:48:33Z</time>
      </trkpt>
      <trkpt lat="46.24844" lon="-1.49959">
        <ele>-1.6</ele>
        <time>2025-07-04T11:48:34Z</time>
      </trkpt>
      <trkpt lat="46.2484" lon="-1.4996">
        <ele>-1.8</ele>
        <time>2025-07-04T11:48:38Z</time>
      </trkpt>
      <trkpt lat="46.24839" lon="-1.49961">
        <ele>-1.8</ele>
        <time>2025-07-04T11:48:39Z</time>
      </trkpt>
      <trkpt lat="46.24832" lon="-1.49965">
        <ele>-2</ele>
        <time>2025-07-04T11:48:44Z</time>
      </trkpt>
      <trkpt lat="46.24831" lon="-1.49965">
        <ele>-2</ele>
        <time>2025-07-04T11:48:45Z</time>
      </trkpt>
      <trkpt lat="46.24822" lon="-1.49972">
        <ele>-2</ele>
        <time>2025-07-04T11:48:52Z</time>
      </trkpt>
      <trkpt lat="46.24817" lon="-1.49975">
        <ele>-2.2</ele>
        <time>2025-07-04T11:48:55Z</time>
      </trkpt>
      <trkpt lat="46.24814" lon="-1.49977">
        <ele>-2.2</ele>
        <time>2025-07-04T11:48:58Z</time>
      </trkpt>
      <trkpt lat="46.24802" lon="-1.49982">
        <ele>-2.2</ele>
        <time>2025-07-04T11:49:05Z</time>
      </trkpt>
      <trkpt lat="46.24795" lon="-1.49984">
        <ele>-2.2</ele>
        <time>2025-07-04T11:49:09Z</time>
      </trkpt>
      <trkpt lat="46.24794" lon="-1.49985">
        <ele>-2.2</ele>
        <time>2025-07-04T11:49:11Z</time>
      </trkpt>
      <trkpt lat="46.24788" lon="-1.49992">
        <ele>-2</ele>
        <time>2025-07-04T11:49:17Z</time>
      </trkpt>
      <trkpt lat="46.24787" lon="-1.49992">
        <ele>-1.8</ele>
        <time>2025-07-04T11:49:18Z</time>
      </trkpt>
      <trkpt lat="46.2478" lon="-1.49998">
        <ele>-1.8</ele>
        <time>2025-07-04T11:49:24Z</time>
      </trkpt>
      <trkpt lat="46.24778" lon="-1.49997">
        <ele>-1.8</ele>
        <time>2025-07-04T11:49:26Z</time>
      </trkpt>
      <trkpt lat="46.24774" lon="-1.49997">
        <ele>-2</ele>
        <time>2025-07-04T11:49:29Z</time>
      </trkpt>
      <trkpt lat="46.24773" lon="-1.49997">
        <ele>-2</ele>
        <time>2025-07-04T11:49:30Z</time>
      </trkpt>
      <trkpt lat="46.24761" lon="-1.49989">
        <ele>-1.6</ele>
        <time>2025-07-04T11:49:38Z</time>
      </trkpt>
      <trkpt lat="46.24748" lon="-1.49988">
        <ele>-1.4</ele>
        <time>2025-07-04T11:49:48Z</time>
      </trkpt>
      <trkpt lat="46.24747" lon="-1.49988">
        <ele>-1.4</ele>
        <time>2025-07-04T11:49:49Z</time>
      </trkpt>
      <trkpt lat="46.24745" lon="-1.49988">
        <ele>-1.2</ele>
        <time>2025-07-04T11:49:51Z</time>
      </trkpt>
    </trkseg>
  </trk>
</gpx>